Date StartTime U_cm/s V_cm/s W_cm/s Ustd_cm/s Vstd_cm/s Wstd_cm/s Uvar_(cm/s)^2 Vvar_(cm/s)^2 Wvar_(cm/s)^2 KE_(m/s)^2 TurbulentKE_(m/s)^2 HorizWindSpeed_cm/s FrictionSpeec_cm/s DragCoef SpeedOfSound_m/s SonicTemperature_C Pressure_mb 
06/07/2013  00:00:00      -33.030       39.974       -9.167       25.546       29.142       12.849      652.610      849.269      165.102        0.222        0.083       51.854       15.782        0.093      346.507       24.805      861.840
06/07/2013  00:01:00        1.837      129.045      -17.191       18.542       29.029       10.515      343.806      842.693      110.561        0.912        0.065      129.058       12.801        0.010      346.765       25.247      861.835
06/07/2013  00:02:00       13.940      153.814      -31.069       33.859       34.337       20.548     1146.446     1179.019      422.224        1.378        0.137      154.444       17.658        0.013      346.681       25.104      861.843
06/07/2013  00:03:00      -79.848      142.180      -26.733       48.757       43.063       22.153     2377.253     1854.418      490.741        1.601        0.236      163.067       15.652        0.009      346.563       24.901      861.852
06/07/2013  00:04:00      -96.626       68.318      -14.015       33.721       30.157       24.920     1137.073      909.458      621.025        0.843        0.133      118.338       15.979        0.018      346.538       24.859      861.858
06/07/2013  00:05:00     -117.027      109.406      -30.960       25.870       35.977       18.872      669.248     1294.335      356.171        1.447        0.116      160.203       14.669        0.008      346.780       25.274      861.865
06/07/2013  00:06:00      -66.876       55.444      -17.217       23.357       27.946       13.680      545.558      780.983      187.131        0.468        0.076       86.870       15.163        0.030      346.764       25.248      861.845
06/07/2013  00:07:00      -66.167       23.081      -12.554       21.692       26.443       16.941      470.539      699.239      286.992        0.326        0.073       70.077        9.624        0.019      346.424       24.660      861.838
06/07/2013  00:08:00     -113.080       69.658      -20.939       42.497       34.407       30.390     1806.028     1183.814      923.563        1.099        0.196      132.813       28.506        0.046      346.583       24.934      861.862
06/07/2013  00:09:00     -139.485       71.378      -20.778       32.188       36.402       25.557     1036.071     1325.109      653.183        1.400        0.151      156.687       20.382        0.017      346.562       24.898      861.882
06/07/2013  00:10:00     -171.818       60.520      -14.605       57.339       46.388       31.283     3287.814     2151.858      978.648        1.991        0.321      182.165       29.067        0.025      346.453       24.711      861.893
06/07/2013  00:11:00     -187.187       63.465      -20.829       45.204       35.266       24.501     2043.418     1243.711      600.321        2.169        0.194      197.653       20.553        0.011      346.515       24.815      861.902
06/07/2013  00:12:00     -142.243       48.373      -19.336       37.042       27.148       19.885     1372.086      737.031      395.402        1.273        0.125      150.243       17.008        0.013      346.444       24.697      861.888
06/07/2013  00:13:00     -115.588       34.744      -12.462       41.495       32.590       22.491     1721.808     1062.137      505.855        0.901        0.164      120.696       20.202        0.028      346.259       24.378      861.868
06/07/2013  00:14:00     -176.651       44.251      -24.765       53.103       45.226       23.835     2819.957     2045.378      568.124        1.960        0.272      182.109       15.377        0.007      346.237       24.340      861.879
06/07/2013  00:15:00     -169.202       49.347      -23.789       61.176       47.883       32.089     3742.485     2292.826     1029.709        1.935        0.353      176.251       29.285        0.028      346.164       24.212      861.897
06/07/2013  00:16:00     -125.710       51.385      -18.281       40.710       43.736       20.147     1657.343     1912.821      405.894        1.138        0.199      135.806       18.856        0.019      346.140       24.173      861.887
06/07/2013  00:17:00      -84.022       76.112      -18.297       31.613       39.208       23.781      999.383     1537.258      565.551        0.814        0.155      113.370       22.519        0.039      346.211       24.295      861.884
06/07/2013  00:18:00      -82.432       81.164      -20.162       27.866       36.537       19.610      776.509     1334.961      384.544        0.814        0.125      115.683       19.905        0.030      346.188       24.256      861.891
06/07/2013  00:19:00     -103.348       71.640      -19.712       28.886       35.089       19.252      834.386     1231.258      370.639        0.932        0.122      125.750       18.336        0.021      346.202       24.280      861.891
06/07/2013  00:20:00     -127.078       94.877      -31.695       41.983       46.093       29.722     1762.584     2124.554      883.383        1.546        0.239      158.589       24.907        0.025      346.389       24.602      861.907
06/07/2013  00:21:00     -138.861      114.976      -39.923       40.641       52.772       32.506     1651.718     2784.912     1056.646        1.979        0.275      180.283       27.159        0.023      346.501       24.793      861.915
06/07/2013  00:22:00      -91.119      129.617      -30.355       42.943       62.294       31.853     1844.060     3880.573     1014.642        1.638        0.337      158.440       35.733        0.051      346.701       25.136      861.902
06/07/2013  00:23:00     -102.904       48.662      -14.691       28.232       44.458       18.472      797.024     1976.509      341.230        0.814        0.156      113.830       12.182        0.011      346.354       24.541      861.892
06/07/2013  00:24:00     -150.686        4.627      -21.564       35.404       27.804       21.177     1253.473      773.043      448.475        1.283        0.124      150.757       17.143        0.013      345.816       23.618      861.871
06/07/2013  00:25:00     -161.577       28.250      -21.504       39.826       32.595       19.588     1586.125     1062.450      383.687        1.520        0.152      164.028       18.723        0.013      345.818       23.621      861.866
06/07/2013  00:26:00     -169.123       36.844      -15.532       37.547       30.828       21.151     1409.792      950.350      447.362        1.650        0.140      173.089       16.473        0.009      345.914       23.785      861.857
06/07/2013  00:27:00     -168.077      -12.936      -18.613       25.779       30.049       19.119      664.558      902.915      365.533        1.535        0.097      168.574       15.014        0.008      345.686       23.393      861.826
06/07/2013  00:28:00     -150.319      -14.589      -20.273       26.267       25.757       18.430      689.950      663.433      339.661        1.246        0.085      151.026       17.329        0.013      345.574       23.200      861.802
06/07/2013  00:29:00     -181.455       -0.000      -22.766       24.006       19.950       15.949      576.298      398.017      254.376        1.734        0.061      181.455       12.522        0.005      345.616       23.272      861.795
06/07/2013  00:30:00     -140.637        7.367      -17.141       42.770       45.599       24.846     1829.259     2079.261      617.306        1.233        0.226      140.829       18.931        0.018      345.634       23.303      861.782
06/07/2013  00:31:00     -224.555      -20.905      -27.030       46.982       33.006       20.462     2207.313     1089.376      418.689        2.765        0.186      225.526       21.479        0.009      345.506       23.081      861.779
06/07/2013  00:32:00     -155.109       -9.471      -17.449       39.833       35.148       21.119     1586.634     1235.379      446.024        1.386        0.163      155.398       18.749        0.015      345.487       23.051      861.757
06/07/2013  00:33:00     -175.182      -20.475      -23.509       22.132       25.519       16.695      489.832      651.217      278.715        1.654        0.071      176.374       12.424        0.005      345.434       22.962      861.751
06/07/2013  00:34:00     -216.740       -6.697      -28.676       41.069       45.389       24.757     1686.636     2060.130      612.891        2.610        0.218      216.844        9.801        0.002      345.443       22.972      861.778
06/07/2013  00:35:00     -206.089       16.008      -25.694       62.019       73.261       32.599     3846.309     5367.194     1062.691        2.683        0.514      206.710       25.394        0.015      345.465       23.012      861.777
06/07/2013  00:36:00     -186.079        7.870      -27.498       67.128       43.374       30.928     4506.208     1881.342      956.516        2.139        0.367      186.245       35.487        0.036      345.498       23.069      861.766
06/07/2013  00:37:00     -140.879       10.055      -25.884       65.187       38.104       31.233     4249.298     1451.903      975.516        1.365        0.334      141.238       24.981        0.031      345.563       23.182      861.761
06/07/2013  00:38:00     -128.102      -32.924      -20.050       54.269       38.185       24.867     2945.147     1458.129      618.389        1.146        0.251      132.265       16.447        0.015      345.474       23.028      861.745
06/07/2013  00:39:00     -164.342      -29.035      -13.830       49.321       43.095       26.072     2432.556     1857.150      679.739        1.650        0.248      166.887       25.295        0.023      345.492       23.060      861.735
06/07/2013  00:40:00     -164.411        1.247      -15.009       49.088       39.368       26.382     2409.610     1549.867      696.035        1.596        0.233      164.416       25.075        0.023      345.522       23.112      861.733
06/07/2013  00:41:00     -177.264       -2.686      -23.941       44.974       62.035       27.716     2022.668     3848.390      768.162        1.932        0.332      177.285       21.977        0.015      345.572       23.196      861.727
06/07/2013  00:42:00     -166.497      -46.399      -12.352       37.004       34.023       21.445     1369.320     1157.592      459.903        1.651        0.149      172.842       17.924        0.011      345.536       23.136      861.728
06/07/2013  00:43:00     -189.288      -35.946      -19.809       49.870       44.716       26.325     2487.047     1999.480      692.993        2.135        0.259      192.671       26.063        0.018      345.522       23.109      861.726
06/07/2013  00:44:00     -195.545      -29.107      -25.247       43.213       34.632       30.475     1867.331     1199.402      928.735        2.186        0.200      197.700       23.417        0.014      345.512       23.094      861.728
06/07/2013  00:45:00     -175.538      -39.055      -23.150       29.681       28.005       20.086      880.985      784.284      403.442        1.747        0.103      179.830       11.976        0.004      345.470       23.022      861.731
06/07/2013  00:46:00     -196.459      -49.851      -16.465       39.031       53.234       26.477     1523.411     2833.864      701.031        2.320        0.253      202.685       19.568        0.009      345.447       22.981      861.729
06/07/2013  00:47:00     -192.769      -34.156      -29.236       29.358       34.769       26.555      861.900     1208.913      705.151        2.098        0.139      195.771       13.631        0.005      345.493       23.062      861.737
06/07/2013  00:48:00     -195.683      -17.986      -22.151       44.931       39.068       21.722     2018.827     1526.341      471.830        2.156        0.201      196.508       22.201        0.013      345.486       23.049      861.737
06/07/2013  00:49:00     -213.299        1.308      -20.631       29.729       30.541       21.031      883.829      932.727      442.303        2.409        0.113      213.303       15.342        0.005      345.580       23.209      861.744
06/07/2013  00:50:00     -203.492       32.532      -20.973       45.429       26.240       22.051     2063.750      688.553      486.255        2.307        0.162      206.076       17.208        0.007      345.623       23.284      861.753
06/07/2013  00:51:00     -211.841       34.727      -18.747       37.778       37.024       23.587     1427.192     1370.764      556.337        2.489        0.168      214.668       20.194        0.009      345.541       23.142      861.744
06/07/2013  00:52:00     -180.550       14.235      -19.429       39.785       34.520       23.672     1582.819     1191.630      560.365        1.826        0.167      181.110       19.328        0.011      345.588       23.223      861.740
06/07/2013  00:53:00     -134.900        5.871      -15.608       63.006       50.132       26.004     3969.796     2513.189      676.205        1.282        0.358      135.028       30.114        0.050      345.500       23.073      861.725
06/07/2013  00:54:00     -177.672       46.191      -21.187       49.410       51.452       26.450     2441.361     2647.342      699.609        1.997        0.289      183.578       28.397        0.024      345.597       23.239      861.713
06/07/2013  00:55:00     -133.023      -17.906      -16.267       34.633       33.253       23.436     1199.435     1105.777      549.255        1.057        0.143      134.222       11.930        0.008      345.603       23.250      861.686
06/07/2013  00:56:00     -133.778      -33.512      -15.222       38.754       35.166       25.075     1501.837     1236.674      628.774        1.131        0.168      137.912       19.001        0.019      345.610       23.266      861.675
06/07/2013  00:57:00     -191.214      -69.045      -14.913       32.170       41.200       25.417     1034.890     1697.476      646.011        2.246        0.169      203.298       19.760        0.009      345.591       23.229      861.659
06/07/2013  00:58:00     -208.049      -31.604      -18.103       43.900       37.383       27.464     1927.175     1397.512      754.274        2.434        0.204      210.436       21.700        0.011      345.488       23.049      861.680
06/07/2013  00:59:00     -191.679      -29.214      -22.095       34.850       43.399       26.351     1214.508     1883.434      694.395        2.094        0.190      193.892       20.191        0.011      345.479       23.038      861.667
06/07/2013  01:00:00     -138.408      -20.813       -8.802       53.689       38.433       24.474     2882.560     1477.097      598.993        1.231        0.248      139.964       28.026        0.040      345.412       22.923      861.652
06/07/2013  01:01:00     -163.575        5.036      -11.612       45.844       33.361       18.281     2101.710     1112.987      334.196        1.523        0.177      163.652       15.067        0.008      345.423       22.942      861.647
06/07/2013  01:02:00     -221.053      -22.870      -32.169       49.120       44.867       30.003     2412.729     2013.073      900.159        2.787        0.266      222.233       25.181        0.013      345.426       22.944      861.650
06/07/2013  01:03:00     -173.010       -6.920      -16.299       47.850       47.541       30.422     2289.647     2260.140      925.509        1.786        0.274      173.148       23.328        0.018      345.391       22.886      861.658
06/07/2013  01:04:00     -215.384        9.543      -20.743       53.834       39.584       30.194     2898.106     1566.881      911.704        2.614        0.269      215.595       27.787        0.017      345.439       22.965      861.655
06/07/2013  01:05:00     -179.965        1.960      -20.702       60.335       42.801       21.748     3640.282     1831.951      472.975        1.938        0.297      179.976       20.693        0.013      345.348       22.812      861.656
06/07/2013  01:06:00     -150.099        6.074      -15.524       38.991       48.240       25.642     1520.262     2327.070      657.489        1.366        0.225      150.221       21.646        0.021      345.433       22.958      861.657
06/07/2013  01:07:00     -184.249      -78.820      -16.947       59.243       48.904       35.172     3509.705     2391.569     1237.046        2.379        0.357      200.400       29.669        0.022      345.275       22.687      861.679
06/07/2013  01:08:00     -248.841      -36.943      -18.162       85.763       62.992       38.515     7355.277     3967.940     1483.423        3.821        0.640      251.568       35.590        0.020      345.202       22.560      861.691
06/07/2013  01:09:00     -266.357       36.491      -24.303       50.207       56.966       34.688     2520.701     3245.121     1203.247        3.992        0.348      268.845       28.178        0.011      345.218       22.586      861.679
06/07/2013  01:10:00     -213.660       35.664      -11.412       80.725       45.281       20.586     6516.532     2050.407      423.777        2.802        0.450      216.616       28.988        0.018      345.345       22.806      861.663
06/07/2013  01:11:00     -143.928      -60.230       -2.240       53.207       44.565       24.299     2830.970     1986.071      590.431        1.488        0.270      156.022       24.171        0.024      345.226       22.604      861.653
06/07/2013  01:12:00      -96.000      -43.901        9.131       59.165       35.253       21.105     3500.468     1242.795      445.425        0.821        0.259      105.562       23.150        0.048      345.216       22.588      861.634
06/07/2013  01:13:00     -123.556      -74.097        1.055       57.054       47.161       26.153     3255.109     2224.116      683.964        1.346        0.308      144.071       24.465        0.029      345.309       22.746      861.618
06/07/2013  01:14:00     -113.050      -94.723       -0.291       50.555       41.163       29.295     2555.810     1694.383      858.176        1.343        0.255      147.489       28.553        0.037      345.509       23.091      861.607
06/07/2013  01:15:00      -73.000      -40.302        2.025       67.585       42.469       20.381     4567.676     1803.604      415.374        0.687        0.339       83.386       26.645        0.102      345.529       23.125      861.583
06/07/2013  01:16:00     -117.264       16.343       -7.735       44.849       38.286       23.368     2011.450     1465.815      546.085        0.905        0.201      118.397       20.112        0.029      345.264       22.670      861.581
06/07/2013  01:17:00     -171.298       28.213      -10.310       73.487       65.391       32.735     5400.401     4275.921     1071.577        2.049        0.537      173.605       30.812        0.032      344.939       22.112      861.600
06/07/2013  01:18:00      -92.295      -31.162      -17.292       55.873       50.954       41.991     3121.819     2596.303     1763.238        0.863        0.374       97.413       22.141        0.052      344.890       22.030      861.597
06/07/2013  01:19:00     -141.336      -75.958      -10.353       56.833       44.079       32.252     3229.970     1942.918     1040.215        1.603        0.311      160.454       21.306        0.018      344.947       22.127      861.588
06/07/2013  01:20:00     -129.415      -59.846       -4.135       43.997       42.015       21.843     1935.758     1765.227      477.109        1.226        0.209      142.583       19.060        0.018      345.042       22.292      861.574
06/07/2013  01:21:00     -205.037      -11.264      -21.631       57.297       29.721       18.061     3282.965      883.333      326.185        2.356        0.225      205.346       19.908        0.009      344.988       22.195      861.581
06/07/2013  01:22:00     -198.881      -46.847      -17.014       65.994       45.276       27.346     4355.213     2049.901      747.787        2.459        0.358      204.324       28.679        0.020      345.170       22.506      861.573
06/07/2013  01:23:00     -154.318      -63.241        0.142       61.958       56.358       26.825     3838.736     3176.173      719.603        1.777        0.387      166.774       25.542        0.023      345.160       22.491      861.582
06/07/2013  01:24:00     -174.227      -57.177       -6.998       60.744       37.417       29.091     3689.801     1400.028      846.265        1.980        0.297      183.370       30.868        0.028      345.059       22.318      861.590
06/07/2013  01:25:00     -208.288      -87.689       -7.388       44.995       41.347       27.168     2024.561     1709.613      738.080        2.780        0.224      225.994       25.648        0.013      345.104       22.391      861.587
06/07/2013  01:26:00     -152.549      -60.866       -3.639       58.096       41.038       28.440     3375.194     1684.090      808.813        1.643        0.293      164.243       30.444        0.034      345.092       22.376      861.577
06/07/2013  01:27:00     -153.105      -51.536       -3.242       51.780       36.207       25.409     2681.143     1310.969      645.613        1.537        0.232      161.546       21.006        0.017      345.018       22.249      861.552
06/07/2013  01:28:00     -154.913      -41.512       -8.829       32.354       46.128       18.877     1046.764     2127.817      356.352        1.466        0.177      160.379       13.644        0.007      344.947       22.127      861.537
06/07/2013  01:29:00     -162.394      -16.154      -19.473       40.423       37.991       22.577     1633.980     1443.304      509.720        1.530        0.179      163.195       20.401        0.016      344.896       22.040      861.529
06/07/2013  01:30:00     -143.859      -52.658      -12.966       42.072       30.612       21.205     1770.026      937.069      449.660        1.340        0.158      153.194       21.193        0.019      344.829       21.925      861.506
06/07/2013  01:31:00     -143.090      -34.821      -10.739       43.834       32.263       22.116     1921.400     1040.919      489.137        1.263        0.173      147.266       21.168        0.021      344.788       21.855      861.487
06/07/2013  01:32:00     -198.903      -27.047      -16.314       41.323       36.311       26.559     1707.582     1318.457      705.392        2.214        0.187      200.733       25.893        0.017      344.774       21.827      861.470
06/07/2013  01:33:00     -198.262       -6.022      -18.669       34.083       42.723       27.226     1161.617     1825.288      741.261        2.171        0.186      198.354       18.791        0.009      344.699       21.701      861.476
06/07/2013  01:34:00     -168.668      -17.430      -15.794       33.934       34.794       24.308     1151.525     1210.611      590.886        1.598        0.148      169.566       18.991        0.013      344.683       21.675      861.461
06/07/2013  01:35:00     -170.918      -22.774      -15.311       50.250       33.101       27.049     2525.024     1095.688      731.638        1.716        0.218      172.429       25.235        0.021      344.666       21.646      861.447
06/07/2013  01:36:00     -171.284      -34.555       -8.781       60.800       40.154       25.387     3696.605     1612.328      644.522        1.828        0.298      174.734       24.093        0.019      344.578       21.496      861.456
06/07/2013  01:37:00     -132.300      -58.648       -1.570       54.285       55.371       30.938     2946.872     3065.921      957.135        1.396        0.348      144.717       27.276        0.036      344.567       21.477      861.437
06/07/2013  01:38:00     -149.208      -56.152       -4.500       40.851       38.352       24.071     1668.809     1470.853      579.429        1.458        0.186      159.424       24.460        0.024      344.600       21.534      861.417
06/07/2013  01:39:00     -147.593      -55.508       -3.336       44.626       34.761       23.444     1991.505     1208.328      549.628        1.431        0.187      157.686       19.956        0.016      344.709       21.721      861.411
06/07/2013  01:40:00     -202.062      -74.534      -13.232       33.643       35.979       21.269     1131.856     1294.508      452.353        2.472        0.144      215.370       15.765        0.005      344.649       21.613      861.417
06/07/2013  01:41:00     -194.957      -57.749      -14.177       56.250       34.665       25.790     3164.110     1201.686      665.113        2.329        0.252      203.330       26.241        0.017      344.594       21.521      861.415
06/07/2013  01:42:00     -116.572      -67.553       -0.142       48.858       53.826       34.379     2387.114     2897.187     1181.923        1.231        0.323      134.730       32.327        0.058      344.569       21.479      861.420
06/07/2013  01:43:00      -96.097      -90.713        2.067       75.012       54.151       41.090     5626.730     2932.307     1688.410        1.386        0.512      132.149       39.428        0.089      344.484       21.334      861.426
06/07/2013  01:44:00     -156.470     -103.697       -1.332       76.424       60.283       45.035     5840.650     3634.084     2028.158        2.337        0.575      187.712       43.506        0.054      344.452       21.278      861.438
06/07/2013  01:45:00     -152.354      -88.548       -6.302       70.471       58.474       40.963     4966.168     3419.236     1677.929        2.058        0.503      176.217       39.508        0.050      344.509       21.376      861.439
06/07/2013  01:46:00     -187.842      -95.929      -11.773       60.798       69.716       40.620     3696.351     4860.307     1649.992        2.741        0.510      210.920       35.990        0.029      344.738       21.768      861.436
06/07/2013  01:47:00     -133.661      -79.956        9.863       77.706       56.079       36.912     6038.185     3144.849     1362.527        1.745        0.527      155.750       35.639        0.052      344.671       21.653      861.460
06/07/2013  01:48:00     -137.534     -117.721        0.832       81.605       61.190       44.575     6659.313     3744.156     1986.966        2.258        0.620      181.035       49.946        0.076      344.717       21.732      861.471
06/07/2013  01:49:00     -156.553     -118.988       -9.894       62.980       41.991       33.805     3966.452     1763.266     1142.783        2.282        0.344      196.639       29.576        0.023      344.727       21.750      861.467
06/07/2013  01:50:00     -128.549      -75.820        7.521       65.267       43.108       32.061     4259.830     1858.305     1027.879        1.474        0.357      149.243       31.987        0.046      344.735       21.764      861.468
06/07/2013  01:51:00     -138.983      -34.341       -7.681       58.878       40.090       26.348     3466.567     1607.213      694.225        1.316        0.288      143.163       31.569        0.049      344.792       21.862      861.472
06/07/2013  01:52:00     -138.982       31.548      -13.452       27.865       35.529       18.692      776.475     1262.333      349.380        1.144        0.119      142.518       10.809        0.006      344.562       21.469      861.477
06/07/2013  01:53:00     -128.024      -37.945       -6.631       31.720       23.688       16.527     1006.127      561.111      273.126        0.986        0.092      133.529       17.361        0.017      344.731       21.758      861.476
06/07/2013  01:54:00      -92.486      -53.387       -3.538       47.153       33.459       23.911     2223.408     1119.504      571.752        0.766        0.196      106.788       25.800        0.058      344.693       21.692      861.485
06/07/2013  01:55:00     -104.252      -36.574       -7.475       19.091       29.106       13.817      364.461      847.135      190.897        0.683        0.070      110.482        7.783        0.005      344.656       21.630      861.492
06/07/2013  01:56:00     -111.815        4.114      -15.539       22.891       18.472       11.992      523.988      341.227      143.797        0.688        0.050      111.890       10.431        0.009      344.637       21.597      861.486
06/07/2013  01:57:00     -158.154       25.210      -12.525       30.588       25.470       11.505      935.616      648.732      132.367        1.376        0.086      160.150        8.001        0.002      344.799       21.873      861.488
06/07/2013  01:58:00     -152.055       63.204      -12.543       55.524       30.799       25.745     3082.884      948.551      662.817        1.598        0.235      164.668       24.380        0.022      344.913       22.068      861.465
06/07/2013  01:59:00     -107.682        6.033      -10.135       30.751       32.111       14.315      945.644     1031.101      204.906        0.696        0.109      107.851        9.791        0.008      344.829       21.927      861.451
06/07/2013  02:00:00     -139.114      -42.244       -8.900       33.258       31.396       15.130     1106.090      985.695      228.928        1.177        0.116      145.387       13.361        0.008      344.728       21.753      861.442
06/07/2013  02:01:00     -151.560      -51.657       -9.008       26.716       22.836       14.226      713.748      521.472      202.367        1.358        0.072      160.121       12.488        0.006      344.568       21.478      861.434
06/07/2013  02:02:00     -131.656      -58.676       -3.548       65.626       40.390       25.840     4306.814     1631.314      667.685        1.370        0.330      144.140       17.838        0.015      344.526       21.405      861.424
06/07/2013  02:03:00     -101.437      -18.366       -6.328       42.871       28.009       17.331     1837.935      784.516      300.375        0.679        0.146      103.086       15.202        0.022      344.679       21.669      861.424
06/07/2013  02:04:00      -44.160      -20.382        7.567       37.591       20.298       16.751     1413.071      412.024      280.611        0.226        0.105       48.637       21.734        0.200      344.566       21.475      861.420
06/07/2013  02:05:00      -84.682      -26.557       -2.305       29.794       23.092       15.819      887.659      533.224      250.226        0.478        0.084       88.749       14.847        0.028      344.573       21.488      861.423
06/07/2013  02:06:00      -88.259      -23.429      -15.713       15.394       16.595       14.003      236.968      275.379      196.090        0.465        0.035       91.316        9.072        0.010      344.569       21.482      861.422
06/07/2013  02:07:00      -46.548      -15.350        1.882       27.368       19.396       12.307      749.011      376.220      151.455        0.184        0.064       49.014       12.956        0.070      344.570       21.481      861.414
06/07/2013  02:08:00      -49.076       20.028        0.482       24.700       21.514       15.942      610.085      462.853      254.152        0.207        0.066       53.005       14.517        0.075      344.715       21.731      861.415
06/07/2013  02:09:00      -49.076        2.234      -10.195       13.857       15.032       11.662      192.029      225.956      136.012        0.154        0.028       49.127        5.335        0.012      344.723       21.743      861.416
06/07/2013  02:10:00      -30.198      -23.964       -1.542       23.425       19.890       10.971      548.735      395.597      120.368        0.128        0.053       38.551       14.530        0.142      344.662       21.637      861.414
06/07/2013  02:11:00      -31.708       -1.159       -5.491       13.787       17.380        8.764      190.089      302.050       76.803        0.080        0.028       31.730        5.104        0.026      344.656       21.629      861.413
06/07/2013  02:12:00        9.754        8.338        2.381       20.697       16.428        9.434      428.379      269.892       89.005        0.048        0.039       12.832       10.251        0.638      344.723       21.745      861.408
06/07/2013  02:13:00       10.327       -2.818        5.616       13.047       15.300       14.385      170.234      234.095      206.927        0.038        0.031       10.705       10.724        1.004      344.571       21.486      861.406
06/07/2013  02:14:00        1.524       -7.555        4.972       10.524       10.913        7.496      110.762      119.083       56.187        0.019        0.014        7.707        6.731        0.763      344.479       21.326      861.413
06/07/2013  02:15:00      -19.169      -16.310       -5.045       14.714       16.250        9.257      216.495      264.046       85.699        0.061        0.028       25.169        9.875        0.154      344.710       21.722      861.418
06/07/2013  02:16:00       -9.370      -16.848       -5.065        9.632       10.457        7.449       92.768      109.353       55.483        0.033        0.013       19.278        3.799        0.039      344.537       21.425      861.424
06/07/2013  02:17:00      -19.512      -21.967       -3.544       12.163        5.919        7.083      147.943       35.036       50.165        0.055        0.012       29.381        3.270        0.012      344.564       21.472      861.427
06/07/2013  02:18:00      -26.386      -25.519       -4.382        8.655       10.416        4.803       74.914      108.494       23.069        0.079        0.010       36.707        3.654        0.010      344.686       21.679      861.441
06/07/2013  02:19:00      -35.125      -35.592        2.760       15.324       14.595       16.862      234.836      213.021      284.334        0.162        0.037       50.006        9.659        0.037      344.493       21.351      861.452
06/07/2013  02:20:00      -49.183      -38.495       -5.754       22.535       20.653       12.486      507.824      426.559      155.911        0.251        0.055       62.457        5.496        0.008      344.269       20.967      861.454
06/07/2013  02:21:00      -35.118      -48.504       -1.160       30.861       19.851       16.963      952.432      394.059      287.729        0.261        0.082       59.883        8.097        0.018      344.457       21.291      861.469
06/07/2013  02:22:00      -20.696      -49.067        0.155       25.489       29.261       11.111      649.711      856.187      123.457        0.223        0.081       53.254       10.603        0.040      344.471       21.315      861.490
06/07/2013  02:23:00        1.275      -70.380      -11.829       18.952       17.403        9.010      359.175      302.851       81.180        0.292        0.037       70.391        4.857        0.005      344.712       21.724      861.499
06/07/2013  02:24:00       -1.836      -32.722       -5.907       12.715       11.982       11.500      161.660      143.558      132.254        0.077        0.022       32.774        9.247        0.080      344.669       21.652      861.499
06/07/2013  02:25:00      -42.230      -35.436       -1.751       27.196       16.196       11.996      739.601      262.316      143.904        0.209        0.057       55.128       10.971        0.040      344.520       21.397      861.498
06/07/2013  02:26:00      -74.450      -69.583        7.936       39.826       43.072       23.827     1586.074     1855.176      567.716        0.723        0.200      101.905       14.509        0.020      344.484       21.336      861.497
06/07/2013  02:27:00      -61.458      -86.186        1.898       32.050       26.087       28.209     1027.234      680.514      795.759        0.686        0.125      105.854       22.277        0.044      344.710       21.722      861.506
06/07/2013  02:28:00      -66.193      -75.308        4.635       42.326       32.454       26.158     1791.532     1053.259      684.267        0.680        0.176      100.264       24.176        0.058      344.702       21.709      861.515
06/07/2013  02:29:00      -82.105      -91.133       -1.214       44.286       40.213       29.931     1961.230     1617.052      895.885        0.976        0.224      122.664       22.759        0.034      344.593       21.522      861.527
06/07/2013  02:30:00      -60.665      -47.618       18.936       61.388       49.035       31.370     3768.535     2404.384      984.096        0.673        0.358       77.121       34.433        0.199      344.472       21.316      861.543
06/07/2013  02:31:00     -115.318     -104.769        8.053       60.707       50.636       33.535     3685.292     2564.053     1124.617        1.586        0.369      155.803       32.656        0.044      344.506       21.370      861.560
06/07/2013  02:32:00      -83.752      -62.949        9.603       49.245       56.593       25.286     2425.074     3202.787      639.365        0.867        0.313      104.771       25.912        0.061      344.445       21.268      861.578
06/07/2013  02:33:00      -82.905      -29.091        4.300       40.102       29.695       14.721     1608.154      881.794      216.705        0.522        0.135       87.861        9.595        0.012      344.326       21.065      861.589
06/07/2013  02:34:00      -53.666       14.048       -2.790       19.968       18.445       10.187      398.701      340.236      103.783        0.196        0.042       55.474        3.786        0.005      343.992       20.495      861.603
06/07/2013  02:35:00      -78.135      -18.615       -3.218       42.354       24.205       11.827     1793.853      585.887      139.875        0.449        0.126       80.322       10.832        0.018      344.090       20.662      861.607
06/07/2013  02:36:00      -41.358      -30.810        9.078       82.437       33.015       33.312     6795.784     1090.009     1109.669        0.587        0.450       51.572       38.176        0.548      344.446       21.272      861.590
06/07/2013  02:37:00      -66.716      -47.313        2.225       42.194       37.046       26.350     1780.293     1372.430      694.349        0.527        0.192       81.790       19.985        0.060      344.447       21.271      861.596
06/07/2013  02:38:00      -35.054      -26.774        4.374       37.619       32.184       22.609     1415.189     1035.842      511.148        0.246        0.148       44.109       20.718        0.221      344.475       21.320      861.596
06/07/2013  02:39:00      -19.554      -21.673       11.676       39.725       47.025       21.645     1578.047     2211.337      468.494        0.262        0.213       29.191       25.942        0.790      344.346       21.099      861.600
06/07/2013  02:40:00      -51.916      -30.136       -2.997       29.411       16.891       14.488      864.986      285.290      209.904        0.249        0.068       60.029       16.142        0.072      344.418       21.222      861.600
06/07/2013  02:41:00      -43.428       11.941      -10.782       20.249       20.444       10.186      410.039      417.965      103.754        0.154        0.047       45.040        8.089        0.032      344.326       21.065      861.598
06/07/2013  02:42:00      -24.349       -7.007       -6.169       15.338        7.793        7.700      235.269       60.727       59.293        0.052        0.018       25.338        6.345        0.063      344.338       21.090      861.585
06/07/2013  02:43:00      -32.488       19.495       -2.498       18.199       30.908       11.226      331.198      955.310      126.016        0.143        0.071       37.888       12.210        0.104      344.524       21.406      861.584
06/07/2013  02:44:00        0.052       36.966       -1.912       50.239       47.840       25.400     2523.947     2288.630      645.142        0.341        0.273       36.966       22.410        0.368      344.684       21.677      861.583
06/07/2013  02:45:00      -25.710       72.268      -14.061       29.208       30.803       16.886      853.084      948.822      285.153        0.408        0.104       76.705       18.461        0.058      344.589       21.515      861.585
06/07/2013  02:46:00      -40.918        8.623       -7.308       44.234       50.796       24.639     1956.670     2580.236      607.078        0.347        0.257       41.816       23.866        0.326      344.747       21.785      861.583
06/07/2013  02:47:00      -43.717       51.539      -11.008       34.331       38.876       18.085     1178.632     1511.351      327.050        0.385        0.151       67.582       10.767        0.025      344.506       21.373      861.585
06/07/2013  02:48:00      -66.465        0.570       -8.106       27.521       24.323       18.182      757.385      591.608      330.594        0.308        0.084       66.467       18.318        0.076      344.503       21.368      861.599
06/07/2013  02:49:00      -69.953       -3.750       -2.699       39.912       31.746       17.045     1593.004     1007.801      290.544        0.390        0.145       70.053       17.183        0.060      344.514       21.387      861.608
06/07/2013  02:50:00      -50.072       85.456      -25.423       28.592       39.313       28.486      817.517     1545.501      811.469        0.681        0.159       99.045       24.814        0.063      344.530       21.415      861.611
06/07/2013  02:51:00      -20.506      117.692      -10.136       35.901       41.057       29.210     1288.887     1685.681      853.222        0.910        0.191      119.465       28.958        0.059      344.553       21.455      861.603
06/07/2013  02:52:00        6.628      121.296      -15.888       37.952       47.350       26.606     1440.323     2242.025      707.876        0.970        0.220      121.476       28.385        0.055      344.549       21.447      861.592
06/07/2013  02:53:00        6.786      145.348      -28.033       31.851       25.190       18.666     1014.499      634.542      348.434        1.198        0.100      145.507       11.370        0.006      344.545       21.440      861.585
06/07/2013  02:54:00       22.345      120.187       -4.075       56.057       71.494       39.523     3142.380     5111.356     1562.032        1.239        0.491      122.246       33.515        0.075      344.440       21.260      861.576
06/07/2013  02:55:00      -59.365      143.283      -19.841       35.920       41.899       22.267     1290.241     1755.524      495.832        1.399        0.177      155.094       19.965        0.017      344.556       21.459      861.574
06/07/2013  02:56:00      -47.952      162.640      -25.154       45.760       59.162       30.716     2093.948     3500.126      943.454        1.796        0.327      169.562       28.108        0.027      344.682       21.671      861.575
06/07/2013  02:57:00      -70.372      100.544      -20.433       38.096       52.304       21.818     1451.290     2735.730      476.007        1.007        0.233      122.724       17.151        0.020      344.582       21.502      861.584
06/07/2013  02:58:00      -87.159       48.405      -24.193       30.888       41.834       20.111      954.087     1750.056      404.469        0.682        0.155       99.699       22.580        0.051      344.573       21.488      861.603
06/07/2013  02:59:00      -66.698        9.139      -13.287       23.491       24.089       12.098      551.819      580.293      146.353        0.299        0.064       67.321        5.568        0.007      344.425       21.235      861.617
06/07/2013  03:00:00      -65.043      -10.734        0.707       56.007       22.620       23.578     3136.764      511.666      555.929        0.427        0.210       65.923       28.307        0.184      344.361       21.126      861.614
06/07/2013  03:01:00      -97.246      -28.583      -10.385       35.429       19.692       13.189     1255.200      387.761      173.952        0.610        0.091      101.360       12.707        0.016      344.461       21.297      861.618
06/07/2013  03:02:00      -75.229      -45.706       -0.815       32.986       30.056       16.356     1088.081      903.345      267.514        0.500        0.113       88.025       14.130        0.026      344.437       21.253      861.627
06/07/2013  03:03:00      -95.365      -73.347        7.365       57.361       34.260       27.891     3290.322     1173.733      777.907        0.988        0.262      120.308       28.547        0.056      344.235       20.911      861.645
06/07/2013  03:04:00     -113.571      -73.966       -2.410       42.188       36.579       21.898     1779.817     1337.992      479.515        1.099        0.180      135.534       25.251        0.035      344.253       20.940      861.644
06/07/2013  03:05:00     -112.197     -101.818       -4.451       45.170       38.843       23.102     2040.291     1508.756      533.688        1.353        0.204      151.509       23.059        0.023      344.092       20.665      861.636
06/07/2013  03:06:00      -32.569      -35.884        1.353       44.535       30.430       18.403     1983.387      926.010      338.668        0.280        0.162       48.460       16.569        0.117      344.087       20.656      861.618
06/07/2013  03:07:00      -47.086      -41.582        7.554       52.160       42.178       28.213     2720.677     1778.955      795.997        0.465        0.265       62.818       23.918        0.145      344.042       20.579      861.606
06/07/2013  03:08:00      -27.111      -27.983       12.824       53.848       28.998       22.600     2899.575      840.893      510.766        0.297        0.213       38.962       25.205        0.418      344.017       20.537      861.611
06/07/2013  03:09:00       -7.500      -37.181       27.599       52.801       38.081       26.040     2787.914     1450.141      678.089        0.356        0.246       37.930       25.722        0.460      343.970       20.457      861.603
06/07/2013  03:10:00        2.565      -30.804       11.188       34.621       28.336       20.682     1198.579      802.938      427.740        0.175        0.121       30.910        9.282        0.090      343.989       20.488      861.596
06/07/2013  03:11:00      -70.053      -37.552        8.464       65.474       43.641       26.605     4286.814     1904.521      707.833        0.664        0.345       79.483       28.816        0.131      343.827       20.212      861.625
06/07/2013  03:12:00      -98.841      -83.610       10.305       63.403       47.325       32.477     4019.942     2239.657     1054.775        1.209        0.366      129.460       27.704        0.046      343.734       20.053      861.663
06/07/2013  03:13:00     -114.437      -65.551       -3.596       72.063       44.742       28.922     5193.137     2001.879      836.475        1.272        0.402      131.881       31.106        0.056      343.792       20.153      861.683
06/07/2013  03:14:00     -106.662      -83.618        0.433       64.164       62.532       36.932     4117.020     3910.254     1363.967        1.388        0.470      135.532       33.401        0.061      343.769       20.112      861.689
06/07/2013  03:15:00     -156.743     -100.658       11.253       81.172       85.945       41.740     6588.875     7386.516     1742.222        2.527        0.786      186.280       48.100        0.067      343.799       20.162      861.697
06/07/2013  03:16:00     -102.610      -93.072        0.179       56.691       49.182       33.950     3213.894     2418.905     1152.628        1.299        0.339      138.533       35.003        0.064      343.761       20.101      861.705
06/07/2013  03:17:00      -88.964      -58.810        7.837       49.369       40.668       24.931     2437.298     1653.855      621.560        0.807        0.236      106.645       21.623        0.041      343.719       20.029      861.704
06/07/2013  03:18:00      -87.296      -80.406       -9.386       44.046       36.671       20.799     1940.061     1344.797      432.612        0.894        0.186      118.683       21.013        0.031      343.717       20.025      861.703
06/07/2013  03:19:00     -101.600      -68.645      -10.799       21.355       25.936       14.615      456.038      672.671      213.592        0.825        0.067      122.616        7.354        0.004      343.679       19.961      861.715
06/07/2013  03:20:00     -130.768      -64.947      -17.745       45.470       40.601       22.651     2067.541     1648.463      513.047        1.293        0.211      146.009       11.738        0.006      343.614       19.848      861.721
06/07/2013  03:21:00     -127.487      -19.667       -5.962       45.447       35.026       25.086     2065.445     1226.815      629.300        1.030        0.196      128.995       24.409        0.036      343.435       19.545      861.726
06/07/2013  03:22:00     -131.859      -21.409        0.022       43.765       32.285       23.302     1915.337     1042.305      542.962        1.067        0.175      133.585       22.499        0.028      343.355       19.409      861.733
06/07/2013  03:23:00      -85.397       -4.240        3.867       50.361       35.572       26.633     2536.274     1265.371      709.315        0.592        0.226       85.502       24.135        0.080      343.255       19.239      861.744
06/07/2013  03:24:00     -117.336        2.034       -2.534       59.414       39.670       27.859     3530.006     1573.703      776.134        0.983        0.294      117.354       25.269        0.046      343.213       19.166      861.742
06/07/2013  03:25:00     -115.649      -36.416        2.578       41.487       49.271       25.509     1721.196     2427.602      650.704        0.975        0.240      121.247       19.954        0.027      343.245       19.221      861.731
06/07/2013  03:26:00     -126.992      -33.302       -4.897       49.242       44.326       24.670     2424.726     1964.810      608.631        1.113        0.250      131.286       21.674        0.027      343.276       19.274      861.735
06/07/2013  03:27:00     -130.367      -45.738        3.815       61.489       53.463       24.669     3780.915     2858.247      608.554        1.317        0.362      138.157       27.381        0.039      343.286       19.289      861.751
06/07/2013  03:28:00     -144.136      -35.317       -9.832       56.743       57.348       33.090     3219.756     3288.773     1094.963        1.486        0.380      148.400       30.410        0.042      343.269       19.261      861.754
06/07/2013  03:29:00     -156.354      -57.766       -9.476       45.190       38.128       27.002     2042.180     1453.727      729.101        1.605        0.211      166.684       17.988        0.012      343.255       19.237      861.751
06/07/2013  03:30:00     -162.556      -68.827       -4.472       54.032       37.239       24.709     2919.420     1386.734      610.535        1.805        0.246      176.527       23.241        0.017      343.256       19.237      861.752
06/07/2013  03:31:00     -144.071      -65.041       -4.329       44.937       38.422       27.509     2019.371     1476.242      756.725        1.463        0.213      158.072       25.372        0.026      343.240       19.210      861.754
06/07/2013  03:32:00     -117.504      -29.219       -3.007       50.470       25.360       20.322     2547.216      643.139      413.000        0.914        0.180      121.082       21.031        0.030      343.217       19.172      861.749
06/07/2013  03:33:00     -104.779      -46.352        0.705       33.798       28.925       19.161     1142.314      836.671      367.134        0.774        0.117      114.574       14.345        0.016      343.214       19.167      861.747
06/07/2013  03:34:00     -126.601      -53.227        3.282       54.888       40.120       28.198     3012.699     1609.639      795.111        1.214        0.271      137.335       29.415        0.046      343.232       19.199      861.743
06/07/2013  03:35:00      -76.829      -87.676       -4.881       32.985       44.309       23.087     1088.016     1963.247      533.011        0.860        0.179      116.576       20.106        0.030      343.321       19.352      861.745
06/07/2013  03:36:00      -39.187      -17.465        5.122       33.168       30.948       21.632     1100.103      957.810      467.926        0.220        0.126       42.903       22.629        0.278      343.271       19.265      861.757
06/07/2013  03:37:00      -58.187        0.814       -6.861       21.312       17.866       12.113      454.214      319.199      146.723        0.218        0.046       58.192        4.457        0.006      343.136       19.035      861.757
06/07/2013  03:38:00      -98.337       -7.112       -8.698       17.208       29.073       10.159      296.106      845.245      103.205        0.552        0.062       98.594        5.043        0.003      343.115       19.001      861.738
06/07/2013  03:39:00     -120.461      -42.414      -12.928       21.043       17.532       11.001      442.805      307.364      121.030        0.867        0.044      127.710        8.778        0.005      343.106       18.986      861.740
06/07/2013  03:40:00     -111.520      -40.121       -7.923       20.628       30.256       15.581      425.503      915.440      242.764        0.785        0.079      118.517        9.772        0.007      343.025       18.846      861.737
06/07/2013  03:41:00      -85.119      -16.117       -1.973       26.713       17.876       13.909      713.570      319.543      193.451        0.437        0.061       86.631       13.447        0.024      342.981       18.771      861.743
06/07/2013  03:42:00      -86.461       -9.976       -3.832       24.395       18.612       12.675      595.120      346.399      160.647        0.435        0.055       87.035       12.747        0.021      342.931       18.686      861.756
06/07/2013  03:43:00      -53.596       -4.518       -0.894       27.762       17.542       13.443      770.742      307.722      180.708        0.208        0.063       53.786       15.580        0.084      342.961       18.736      861.762
06/07/2013  03:44:00      -36.994       18.539       -4.628       21.927       18.349        9.585      480.777      336.696       91.866        0.132        0.045       41.379        8.822        0.045      343.013       18.824      861.767
06/07/2013  03:45:00      -66.046       23.419       -5.552       13.576       13.020        9.450      184.321      169.525       89.307        0.269        0.022       70.075        5.580        0.006      343.063       18.911      861.774
06/07/2013  03:46:00      -67.870      -39.166       -3.346       17.805       15.567       14.453      317.028      242.331      208.882        0.346        0.038       78.361        5.010        0.004      343.092       18.961      861.775
06/07/2013  03:47:00      -64.072      -36.442        5.085       29.010       21.445       19.084      841.592      459.877      364.211        0.356        0.083       73.711       19.921        0.073      342.842       18.535      861.776
06/07/2013  03:48:00     -103.896      -43.013        0.157       13.116       15.440        9.180      172.032      238.405       84.265        0.657        0.025      112.448        5.309        0.002      342.885       18.607      861.777
06/07/2013  03:49:00      -96.101      -51.580       -1.463       17.809       17.907       15.703      317.166      320.677      246.580        0.639        0.044      109.068       10.211        0.009      342.854       18.556      861.775
06/07/2013  03:50:00      -85.318      -54.725        3.196       34.965       24.627       16.379     1222.562      606.505      268.266        0.619        0.105      101.360       15.611        0.024      342.843       18.537      861.779
06/07/2013  03:51:00      -60.150      -34.090        3.971       36.166       29.810       21.370     1307.977      888.664      456.669        0.372        0.133       69.139       22.573        0.107      342.790       18.446      861.783
06/07/2013  03:52:00      -88.983      -58.306      -10.635       33.009       27.669       14.881     1089.617      765.562      221.458        0.675        0.104      106.384       15.697        0.022      342.906       18.645      861.784
06/07/2013  03:53:00      -81.574      -10.421       -2.510       29.503       18.107       12.783      870.408      327.851      163.414        0.407        0.068       82.237       15.265        0.034      342.747       18.372      861.783
06/07/2013  03:54:00      -55.488       39.467       -3.846       20.126       26.378       14.383      405.050      695.815      206.857        0.298        0.065       68.092       11.884        0.030      342.577       18.085      861.784
06/07/2013  03:55:00      -65.385       45.520       -5.835       14.763       20.016       11.060      217.956      400.659      122.315        0.356        0.037       79.669        4.530        0.003      342.611       18.141      861.771
06/07/2013  03:56:00      -98.260        0.110       -6.329       22.508       24.881       10.978      506.612      619.069      120.521        0.547        0.062       98.260        7.414        0.006      342.739       18.359      861.778
06/07/2013  03:57:00      -97.283      -52.203       -0.451       27.996       28.897       16.425      783.773      835.057      269.779        0.704        0.094      110.404       12.829        0.014      342.702       18.295      861.774
06/07/2013  03:58:00      -63.903      -52.663       -3.483       42.628       29.620       20.800     1817.157      877.336      432.647        0.500        0.156       82.807       14.526        0.031      342.782       18.432      861.776
06/07/2013  03:59:00      -82.784      -59.230        0.598       38.896       30.355       19.426     1512.930      921.424      377.357        0.659        0.141      101.791       19.369        0.036      342.837       18.525      861.788
06/07/2013  04:00:00      -74.108      -38.172       11.487       39.231       33.630       24.709     1539.095     1130.975      610.546        0.518        0.164       83.361       23.136        0.077      342.720       18.327      861.780
06/07/2013  04:01:00      -90.185      -45.119        7.258       51.755       38.441       26.977     2678.578     1477.706      727.772        0.755        0.244      100.842       27.186        0.073      342.722       18.331      861.769
06/07/2013  04:02:00      -84.679      -54.465        3.858       39.951       32.559       18.337     1596.098     1060.090      336.249        0.657        0.150      100.682       17.759        0.031      342.782       18.431      861.779
06/07/2013  04:03:00      -77.931      -39.552        7.585       36.743       24.615       20.890     1350.052      605.891      436.373        0.504        0.120       87.393       17.483        0.040      342.820       18.496      861.774
06/07/2013  04:04:00      -56.103      -32.083        2.914       19.743       19.253       12.782      389.785      370.695      163.367        0.255        0.046       64.629       10.474        0.026      342.846       18.541      861.772
06/07/2013  04:05:00      -96.037      -34.676       -7.616       15.809       15.757       12.665      249.932      248.280      160.402        0.557        0.033      102.106       10.047        0.010      342.891       18.616      861.770
06/07/2013  04:06:00      -58.879      -11.810        3.928       27.735       18.997       14.908      769.211      360.885      222.254        0.249        0.068       60.052       14.651        0.060      342.756       18.387      861.774
06/07/2013  04:07:00      -43.106      -15.809       -2.075       16.869       13.064        9.747      284.567      170.679       95.002        0.133        0.028       45.914        8.941        0.038      342.712       18.314      861.770
06/07/2013  04:08:00      -22.223      -20.704        9.944       21.077       13.997       10.628      444.260      195.903      112.963        0.089        0.038       30.373       10.696        0.124      342.781       18.430      861.784
06/07/2013  04:09:00      -37.518      -19.271        1.851       26.592       13.092       11.733      707.137      171.399      137.669        0.140        0.051       42.177       11.580        0.075      342.822       18.502      861.784
06/07/2013  04:10:00      -38.643      -29.663        1.972       35.158       13.209       10.798     1236.119      174.472      116.588        0.195        0.076       48.715       15.406        0.100      342.797       18.459      861.783
06/07/2013  04:11:00      -23.234      -16.729       -1.116       20.653       15.967       13.875      426.551      254.947      192.524        0.085        0.044       28.630       11.426        0.159      342.737       18.354      861.788
06/07/2013  04:12:00      -60.688       -2.434       -5.148       10.955       14.449        8.260      120.020      208.787       68.222        0.206        0.020       60.737        7.016        0.013      342.667       18.237      861.787
06/07/2013  04:13:00     -104.653        1.855      -10.552       24.222       20.614       10.827      586.683      424.950      117.223        0.610        0.056      104.669        8.664        0.007      342.522       17.991      861.792
06/07/2013  04:14:00     -120.508      -46.544       -7.695       25.608       21.108       12.046      655.787      445.534      145.116        0.900        0.062      129.184       10.186        0.006      342.441       17.854      861.815
06/07/2013  04:15:00     -106.445      -31.855      -15.221       16.101       16.668        9.400      259.249      277.834       88.359        0.660        0.031      111.109        4.750        0.002      342.325       17.655      861.840
06/07/2013  04:16:00      -96.354      -14.664      -10.998       14.000       11.649        6.727      195.990      135.691       45.251        0.500        0.019       97.464        5.372        0.003      342.260       17.545      861.843
06/07/2013  04:17:00     -106.234      -18.608      -12.102       24.819       22.433       13.161      615.975      503.230      173.203        0.654        0.065      107.852        9.419        0.008      342.132       17.328      861.850
06/07/2013  04:18:00      -90.918      -14.573      -10.682       30.127       16.138       14.899      907.624      260.431      221.966        0.499        0.070       92.078       15.749        0.029      342.144       17.348      861.865
06/07/2013  04:19:00     -100.949      -21.330       -8.242       22.795       16.625       13.008      519.592      276.390      169.219        0.584        0.048      103.178       10.676        0.011      342.187       17.422      861.871
06/07/2013  04:20:00     -105.326      -30.992       -6.113       24.425       21.123       12.542      596.568      446.195      157.305        0.665        0.060      109.791       10.005        0.008      342.238       17.507      861.856
06/07/2013  04:21:00      -67.908      -58.493        3.204       33.729       25.671       22.266     1137.648      658.985      495.785        0.517        0.115       89.626       18.350        0.042      342.256       17.538      861.846
06/07/2013  04:22:00      -99.457      -62.522       -2.072       32.635       28.918       17.311     1065.062      836.267      299.666        0.800        0.110      117.477       10.470        0.008      342.381       17.751      861.843
06/07/2013  04:23:00     -125.740      -26.742       -4.641       45.614       23.547       13.570     2080.653      554.474      184.149        0.968        0.141      128.552       16.394        0.016      342.290       17.596      861.830
06/07/2013  04:24:00      -81.778      -15.777        3.313       47.755       25.330       17.854     2280.526      641.628      318.749        0.509        0.162       83.286       20.996        0.064      342.182       17.414      861.820
06/07/2013  04:25:00      -83.562      -17.224        3.048       28.946       25.479       15.949      837.860      649.183      254.356        0.451        0.087       85.319       15.576        0.033      342.129       17.323      861.820
06/07/2013  04:26:00      -80.755      -29.866        5.557       38.042       29.000       17.911     1447.202      840.984      320.789        0.503        0.130       86.101       16.477        0.037      342.262       17.548      861.814
06/07/2013  04:27:00      -74.586        2.095       -2.603       37.256       23.920       22.229     1388.022      572.171      494.130        0.401        0.123       74.616       21.878        0.086      342.206       17.453      861.804
06/07/2013  04:28:00      -86.309        2.001       -5.109       38.427       21.101       17.989     1476.624      445.258      323.595        0.486        0.112       86.332       19.306        0.050      342.157       17.371      861.808
06/07/2013  04:29:00      -79.818      -35.738       -1.457       34.331       35.971       15.532     1178.616     1293.938      241.248        0.518        0.136       87.453       11.932        0.019      342.233       17.500      861.810
06/07/2013  04:30:00      -23.083      -30.660        9.438       36.898       24.492       26.156     1361.492      599.846      684.113        0.210        0.132       38.378       23.709        0.382      342.222       17.480      861.814
06/07/2013  04:31:00      -54.106      -44.818       -2.754       55.175       24.272       16.237     3044.254      589.126      263.646        0.442        0.195       70.257        9.885        0.020      342.232       17.499      861.828
06/07/2013  04:32:00      -72.059      -38.056       -1.525       43.447       21.432       17.019     1887.674      459.313      289.644        0.464        0.132       81.491       12.456        0.023      342.177       17.405      861.844
06/07/2013  04:33:00      -46.654      -58.915        7.423       40.994       35.894       20.684     1680.498     1288.353      427.831        0.455        0.170       75.150       20.043        0.071      342.263       17.551      861.852
06/07/2013  04:34:00      -54.954      -69.983        2.274       33.315       25.753       18.155     1109.863      663.206      329.588        0.501        0.105       88.981       18.083        0.041      342.343       17.685      861.849
06/07/2013  04:35:00      -74.652      -32.578        1.885       47.087       26.474       16.690     2217.223      700.865      278.548        0.492        0.160       81.451       20.838        0.065      342.323       17.651      861.861
06/07/2013  04:36:00      -72.092      -48.621       -0.502       30.951       20.355       15.412      957.981      414.328      237.517        0.459        0.080       86.955       11.440        0.017      342.280       17.578      861.862
06/07/2013  04:37:00      -49.517      -22.385       11.231       34.887       20.315       14.240     1217.077      412.680      202.777        0.246        0.092       54.342       13.646        0.063      342.227       17.489      861.862
06/07/2013  04:38:00      -65.772      -44.629        2.883       42.583       18.160       16.092     1813.272      329.803      258.968        0.436        0.120       79.484       12.177        0.023      342.317       17.642      861.883
06/07/2013  04:39:00     -106.830      -35.361       -9.115       16.565       22.865       13.290      274.414      522.817      176.626        0.686        0.049      112.530        7.912        0.005      342.305       17.620      861.887
06/07/2013  04:40:00     -109.421      -59.066       -9.120       22.544       25.677       12.435      508.229      659.299      154.635        0.843        0.066      124.346        8.333        0.004      342.389       17.764      861.892
06/07/2013  04:41:00     -106.521      -51.744       -1.034       22.999       23.834       13.324      528.938      568.077      177.534        0.765        0.064      118.424        9.210        0.006      342.380       17.750      861.924
06/07/2013  04:42:00      -45.522      -34.220        2.154       37.040       30.428       21.191     1371.963      925.840      449.047        0.300        0.137       56.949       19.680        0.119      342.386       17.760      861.947
06/07/2013  04:43:00      -46.168      -39.285        7.667       27.093       24.185       15.988      734.036      584.893      255.630        0.265        0.079       60.620       15.052        0.062      342.523       17.992      861.982
06/07/2013  04:44:00      -49.914      -18.594        9.184       33.403       17.262       17.983     1115.737      297.966      323.393        0.233        0.087       53.265       14.745        0.077      342.426       17.828      862.015
06/07/2013  04:45:00      -17.636      -29.016        5.295       28.309       19.405       14.308      801.380      376.551      204.706        0.128        0.069       33.955       13.901        0.168      342.467       17.898      862.028
06/07/2013  04:46:00      -56.880      -42.952        1.311       27.354       20.934       16.834      748.263      438.223      283.368        0.328        0.073       71.275        8.008        0.013      342.511       17.974      862.022
06/07/2013  04:47:00      -33.398      -77.401       -3.155       29.184       42.996       19.212      851.706     1848.630      369.106        0.509        0.153       84.299       18.391        0.048      342.523       17.994      862.037
06/07/2013  04:48:00      -36.372      -75.994        0.078       34.538       35.729       21.570     1192.880     1276.585      465.272        0.502        0.147       84.250       21.001        0.062      342.507       17.966      862.037
06/07/2013  04:49:00      -36.645      -99.563        9.717       58.400       63.201       24.916     3410.568     3994.305      620.822        0.969        0.401      106.093       28.370        0.072      342.529       18.001      862.018
06/07/2013  04:50:00      -82.801     -176.420       -1.858       47.084       49.241       24.911     2216.873     2424.706      620.536        2.162        0.263      194.885       24.754        0.016      342.595       18.113      861.999
06/07/2013  04:51:00      -87.681     -128.692        2.730       53.471       58.707       35.158     2859.177     3446.546     1236.108        1.590        0.377      155.723       37.463        0.058      342.540       18.021      861.973
06/07/2013  04:52:00      -62.068      -78.118        5.022       65.373       50.911       40.960     4273.652     2591.944     1677.760        0.926        0.427       99.774       39.979        0.161      342.549       18.039      861.952
06/07/2013  04:53:00      -59.671     -106.310       -1.174       49.186       65.044       37.681     2419.247     4230.680     1419.848        1.147        0.403      121.912       29.239        0.058      342.544       18.027      861.948
06/07/2013  04:54:00      -55.320      -57.221        6.208       53.033       48.576       32.984     2812.476     2359.595     1087.917        0.632        0.313       79.590       28.331        0.127      342.490       17.936      861.952
06/07/2013  04:55:00      -74.075      -98.144        1.254       59.816       56.177       32.150     3577.924     3155.882     1033.630        1.144        0.388      122.961       29.933        0.059      342.493       17.942      861.946
06/07/2013  04:56:00      -59.733      -63.596        3.175       49.942       35.354       23.873     2494.228     1249.906      569.921        0.597        0.216       87.249       25.709        0.087      342.492       17.939      861.956
06/07/2013  04:57:00      -84.339      -74.248        0.493       51.752       42.740       26.403     2678.300     1826.750      697.104        0.891        0.260      112.365       31.086        0.077      342.410       17.800      861.986
06/07/2013  04:58:00      -92.098     -101.266        0.988       57.169       49.224       23.840     3268.293     2422.973      568.367        1.250        0.313      136.883       17.737        0.017      342.461       17.886      862.000
06/07/2013  04:59:00      -46.997      -79.175        6.198       57.497       43.406       29.627     3305.866     1884.087      877.736        0.729        0.303       92.073       25.392        0.076      342.409       17.797      862.007
06/07/2013  05:00:00      -82.315      -56.004       12.120       50.970       33.668       31.863     2597.906     1133.517     1015.232        0.740        0.237       99.560       29.821        0.090      342.370       17.732      862.021
06/07/2013  05:01:00      -41.856      -46.556        1.353       42.360       44.762       21.402     1794.381     2003.622      458.026        0.409        0.213       62.604       17.166        0.075      342.412       17.804      862.037
06/07/2013  05:02:00      -87.244      -55.886       -0.248       48.770       41.300       21.314     2378.490     1705.666      454.293        0.764        0.227      103.609       23.907        0.053      342.354       17.706      862.037
06/07/2013  05:03:00      -99.628     -109.623       -4.682       59.667       41.509       29.084     3560.165     1723.021      845.892        1.405        0.306      148.132       21.383        0.021      342.372       17.734      862.052
06/07/2013  05:04:00      -72.970      -61.915        8.045       54.608       46.282       35.202     2982.016     2141.982     1239.190        0.779        0.318       95.698       29.066        0.092      342.340       17.681      862.059
06/07/2013  05:05:00     -119.715      -81.018        0.631       64.533       51.505       32.226     4164.473     2652.717     1038.491        1.437        0.393      144.553       21.208        0.022      342.315       17.637      862.058
06/07/2013  05:06:00      -86.692      -75.377        6.341       65.574       46.670       33.477     4299.884     2178.116     1120.681        1.042        0.380      114.878       33.543        0.085      342.277       17.573      862.066
06/07/2013  05:07:00     -163.654     -123.303       -2.477       53.810       51.681       33.736     2895.552     2670.879     1138.113        2.435        0.335      204.905       33.764        0.027      342.272       17.561      862.081
06/07/2013  05:08:00     -139.331      -97.571       -3.414       65.684       49.762       33.078     4314.434     2476.209     1094.177        1.841        0.394      170.098       34.719        0.042      342.250       17.527      862.091
06/07/2013  05:09:00     -106.035      -81.832       -0.184       61.131       41.285       22.918     3736.957     1704.448      525.248        1.195        0.298      133.940       25.789        0.037      342.220       17.477      862.098
06/07/2013  05:10:00     -104.192      -24.010       -3.961       37.758       36.742       20.674     1425.644     1349.967      427.404        0.732        0.160      106.922       17.108        0.026      342.046       17.182      862.108
06/07/2013  05:11:00     -132.233      -31.245       -7.712       49.011       34.640       25.231     2402.050     1199.938      636.620        1.138        0.212      135.874       25.200        0.034      342.014       17.128      862.102
06/07/2013  05:12:00     -143.232      -32.833       -4.875       35.233       35.703       20.208     1241.399     1274.706      408.351        1.227        0.146      146.947       13.163        0.008      341.943       17.007      862.096
06/07/2013  05:13:00     -112.452      -28.147       -0.275       37.522       38.868       19.797     1407.884     1510.685      391.938        0.837        0.166      115.921       17.495        0.023      341.884       16.908      862.102
06/07/2013  05:14:00     -112.163      -35.736       -0.538       44.173       27.062       22.033     1951.294      732.337      485.445        0.851        0.158      117.718       22.063        0.035      341.783       16.734      862.093
06/07/2013  05:15:00     -111.714      -18.012       -2.497       45.894       25.254       19.189     2106.214      637.768      368.235        0.796        0.156      113.157       15.348        0.018      341.765       16.704      862.098
06/07/2013  05:16:00      -92.945      -19.151       -8.144       31.514       37.739       17.365      993.154     1424.247      301.534        0.589        0.136       94.897       15.229        0.026      341.661       16.531      862.114
06/07/2013  05:17:00      -64.245      -24.528       -0.222       23.690       28.394       17.334      561.219      806.212      300.475        0.320        0.083       68.768       10.972        0.025      341.653       16.515      862.113
06/07/2013  05:18:00     -115.369       -1.922       -8.458       31.709       27.948       16.056     1005.434      781.118      257.786        0.771        0.102      115.385       12.779        0.012      341.650       16.509      862.113
06/07/2013  05:19:00     -112.751        9.527       -5.859       35.543       34.706       17.102     1263.318     1204.476      292.472        0.780        0.138      113.152       15.798        0.019      341.665       16.535      862.121
06/07/2013  05:20:00      -81.293        0.475       -9.573       28.357       25.943       18.503      804.131      673.035      342.375        0.426        0.091       81.294       14.588        0.032      341.706       16.604      862.126
06/07/2013  05:21:00       -8.879      -54.127       -4.226       28.918       33.645       18.576      836.273     1131.988      345.049        0.267        0.116       54.850        9.588        0.031      341.754       16.685      862.138
06/07/2013  05:22:00      -28.887      -28.778       -8.533       34.472       22.946       17.343     1188.340      526.524      300.790        0.188        0.101       40.775       12.617        0.096      341.712       16.616      862.143
06/07/2013  05:23:00      -51.258      -27.783       -3.379       23.357       16.663       10.205      545.557      277.646      104.136        0.217        0.046       58.304        3.179        0.003      341.676       16.555      862.155
06/07/2013  05:24:00      -24.388      -28.699        2.301       27.232       22.978       16.737      741.556      527.986      280.143        0.149        0.077       37.662       10.006        0.071      341.726       16.639      862.153
06/07/2013  05:25:00      -49.986      -58.855        4.975       37.762       31.162       23.256     1425.949      971.067      540.843        0.446        0.147       77.217       19.279        0.062      341.737       16.659      862.163
06/07/2013  05:26:00      -91.553      -58.070        2.880       45.505       32.405       22.421     2070.671     1050.053      502.704        0.769        0.181      108.416       23.681        0.048      341.778       16.727      862.176
06/07/2013  05:27:00      -47.183      -33.887        7.203       43.250       24.054       19.289     1870.560      578.606      372.052        0.312        0.141       58.091        9.991        0.030      341.736       16.657      862.189
06/07/2013  05:28:00      -48.508      -52.957       -2.409       35.513       23.063       20.238     1261.203      531.914      409.570        0.368        0.110       71.816       18.038        0.063      341.834       16.821      862.204
06/07/2013  05:29:00      -94.966      -75.176        0.112       41.371       41.435       23.426     1711.546     1716.829      548.792        0.932        0.199      121.119       15.964        0.017      341.867       16.877      862.219
06/07/2013  05:30:00      -80.713      -90.416        2.166       44.547       41.938       28.114     1984.418     1758.824      790.392        0.961        0.227      121.201       26.167        0.047      341.784       16.738      862.234
06/07/2013  05:31:00     -158.700     -101.541       -8.115       47.650       38.472       25.046     2270.522     1480.124      627.295        1.997        0.219      188.404       25.865        0.019      341.713       16.616      862.237
06/07/2013  05:32:00     -122.702      -50.532        1.629       44.378       25.563       21.515     1969.410      653.442      462.915        1.035        0.154      132.700       21.452        0.026      341.666       16.537      862.250
06/07/2013  05:33:00     -109.177      -70.142       -3.381       34.241       35.813       22.807     1172.465     1282.600      520.137        0.991        0.149      129.767       16.500        0.016      341.780       16.731      862.271
06/07/2013  05:34:00     -100.285      -77.870        1.264       35.651       40.117       27.154     1271.009     1609.359      737.328        0.987        0.181      126.968       21.098        0.028      341.719       16.627      862.287
06/07/2013  05:35:00     -166.113     -106.565       -5.358       60.404       50.592       33.894     3648.664     2559.537     1148.793        2.317        0.368      197.357       31.006        0.025      341.749       16.677      862.294
06/07/2013  05:36:00     -167.752     -114.020       -4.828       53.838       47.196       27.947     2898.506     2227.433      781.049        2.353        0.295      202.833       21.560        0.011      341.992       17.087      862.321
06/07/2013  05:37:00     -147.670     -104.415        1.877       60.915       51.765       36.323     3710.630     2679.663     1319.394        2.021        0.385      180.856       33.721        0.035      341.979       17.066      862.330
06/07/2013  05:38:00     -155.968      -76.330       -4.219       37.397       41.089       23.132     1398.514     1688.323      535.109        1.690        0.181      173.644       16.180        0.009      341.955       17.028      862.335
06/07/2013  05:39:00     -168.666      -50.335       -3.998       58.305       39.190       27.015     3399.430     1535.817      729.793        1.833        0.283      176.016       32.093        0.033      341.956       17.028      862.359
06/07/2013  05:40:00     -171.603      -51.078       -2.456       48.078       34.898       23.182     2311.453     1217.859      537.424        1.806        0.203      179.044       24.570        0.019      341.943       17.007      862.381
06/07/2013  05:41:00     -152.287      -14.451        0.790       40.741       36.944       28.341     1659.842     1364.873      803.198        1.361        0.191      152.972       19.810        0.017      341.877       16.895      862.390
06/07/2013  05:42:00     -111.022      -12.610       -3.099       52.768       34.121       24.295     2784.436     1164.272      590.270        0.852        0.227      111.736       24.043        0.046      341.843       16.836      862.398
06/07/2013  05:43:00      -72.954      -57.051       -2.896       34.723       46.283       22.022     1205.668     2142.151      484.947        0.621        0.192       92.613       26.055        0.079      341.959       17.034      862.414
06/07/2013  05:44:00      -15.826      -45.513       -6.850       25.447       30.323       16.898      647.526      919.500      285.526        0.211        0.093       48.186       12.177        0.064      342.022       17.139      862.433
06/07/2013  05:45:00      -36.143      -49.935        3.504       26.210       29.835       17.914      686.940      890.146      320.906        0.285        0.095       61.643       14.976        0.059      342.017       17.133      862.435
06/07/2013  05:46:00     -101.790      -45.530        0.169       57.267       44.479       20.274     3279.542     1978.421      411.025        0.905        0.283      111.509       16.922        0.023      342.026       17.147      862.430
06/07/2013  05:47:00     -103.249      -44.146       -7.633       29.659       37.125       19.987      879.652     1378.291      399.484        0.766        0.133      112.290       13.628        0.015      341.916       16.962      862.437
06/07/2013  05:48:00      -25.642      -34.370       11.478       40.675       36.191       23.650     1654.438     1309.786      559.321        0.275        0.176       42.881       23.461        0.299      341.823       16.802      862.447
06/07/2013  05:49:00      -42.676      -20.779        9.820       28.509       34.307       24.643      812.789     1176.989      607.283        0.247        0.130       47.466       19.964        0.177      341.837       16.826      862.468
06/07/2013  05:50:00      -27.975      -28.800       -1.713       34.076       24.815       17.604     1161.203      615.808      309.888        0.185        0.104       40.150       17.823        0.197      341.780       16.731      862.491
06/07/2013  05:51:00      -13.751      -13.312       18.272       28.355       37.510       25.529      804.022     1406.983      651.733        0.178        0.143       19.139       28.181        2.168      341.795       16.755      862.497
06/07/2013  05:52:00      -62.708      -33.360       -6.867       43.948       28.828       19.161     1931.458      831.078      367.134        0.411        0.156       71.030       22.436        0.100      341.917       16.963      862.503
06/07/2013  05:53:00     -108.828      -37.125       -0.273       59.935       42.011       21.670     3592.227     1764.955      469.598        0.952        0.291      114.986       25.425        0.049      341.916       16.961      862.513
06/07/2013  05:54:00      -64.918      -58.033        3.708       56.263       41.120       32.777     3165.569     1690.855     1074.304        0.676        0.297       87.075       26.731        0.094      341.831       16.815      862.520
06/07/2013  05:55:00      -55.123      -57.676       -0.156       36.847       38.570       16.472     1357.676     1487.635      271.329        0.474        0.156       79.781        9.134        0.013      341.744       16.669      862.532
06/07/2013  05:56:00      -86.649      -32.157       -7.516       32.213       22.819       14.301     1037.688      520.714      204.519        0.518        0.088       92.423       11.590        0.016      341.855       16.858      862.538
06/07/2013  05:57:00     -125.218      -67.352      -11.121       30.104       25.582       16.107      906.271      654.415      259.430        1.108        0.091      142.182       15.261        0.012      341.623       16.464      862.541
06/07/2013  05:58:00     -120.073      -48.202      -20.388       25.221       19.919       17.716      636.122      396.785      313.860        0.925        0.067      129.386        7.079        0.003      341.687       16.573      862.539
06/07/2013  05:59:00     -109.702      -41.569      -10.641       32.783       19.905       16.463     1074.714      396.220      271.016        0.781        0.087      117.314       10.268        0.008      341.559       16.355      862.534
06/07/2013  06:00:00     -113.564      -86.265       -7.191       52.507       38.515       21.834     2756.990     1483.377      476.734        1.255        0.236      142.613       18.915        0.018      341.693       16.584      862.552
06/07/2013  06:01:00      -97.392     -102.152       -5.149       51.137       35.908       25.266     2615.001     1289.369      638.388        1.224        0.227      141.139       27.464        0.038      341.723       16.635      862.572
06/07/2013  06:02:00      -98.414      -54.032        1.255       39.527       48.796       19.915     1562.388     2381.016      396.602        0.847        0.217      112.271       18.157        0.026      341.709       16.610      862.590
06/07/2013  06:03:00      -93.538      -81.240        0.107       39.238       34.736       21.612     1539.593     1206.618      467.076        0.928        0.161      123.892       19.856        0.026      341.731       16.647      862.610
06/07/2013  06:04:00      -89.478      -46.857       -5.709       36.044       25.063       14.849     1299.168      628.140      220.488        0.619        0.107      101.004       11.663        0.013      341.719       16.626      862.615
06/07/2013  06:05:00      -73.041      -46.979       -3.758       34.734       18.386       19.306     1206.447      338.032      372.738        0.474        0.096       86.845       17.189        0.039      341.758       16.695      862.607
06/07/2013  06:06:00      -71.332      -40.630      -11.036       24.597       35.383       14.659      604.991     1251.969      214.889        0.447        0.104       82.092        9.355        0.013      341.817       16.792      862.604
06/07/2013  06:07:00      -86.100      -24.569       -9.743       33.692       22.823       16.913     1135.164      520.868      286.043        0.503        0.097       89.537       12.818        0.020      341.863       16.871      862.602
06/07/2013  06:08:00      -59.687       -3.622        1.846       20.511       19.371       13.253      420.721      375.248      175.639        0.228        0.049       59.797        9.454        0.025      341.905       16.942      862.607
06/07/2013  06:09:00      -75.729      -31.481       -8.422       23.490       29.642       13.955      551.790      878.662      194.749        0.421        0.081       82.012       10.922        0.018      341.842       16.836      862.595
06/07/2013  06:10:00     -105.733      -30.428      -12.865       23.128       21.211       13.287      534.885      449.924      176.546        0.672        0.058      110.024        9.679        0.008      341.771       16.714      862.588
06/07/2013  06:11:00      -88.751      -20.564        3.690       54.639       29.989       24.803     2985.462      899.323      615.198        0.641        0.225       91.102       27.482        0.091      341.808       16.778      862.590
06/07/2013  06:12:00      -28.279      -57.855       10.335       57.605       46.479       22.892     3318.317     2160.303      524.053        0.513        0.300       64.396       25.496        0.157      341.849       16.848      862.597
06/07/2013  06:13:00     -126.359      -71.327       -6.516       63.764       33.249       27.470     4065.887     1105.513      754.606        1.351        0.296      145.100       25.779        0.032      341.824       16.805      862.589
06/07/2013  06:14:00      -83.028      -51.767        0.255       38.529       37.383       26.388     1484.470     1397.510      696.333        0.658        0.179       97.844       24.785        0.064      341.801       16.766      862.581
06/07/2013  06:15:00     -110.174      -25.770       -5.482       45.068       37.203       23.893     2031.080     1384.073      570.892        0.841        0.199      113.147       28.448        0.063      341.865       16.876      862.593
06/07/2013  06:16:00     -108.658      -24.106       -8.093       29.849       26.943       16.793      890.990      725.925      282.019        0.718        0.095      111.300       17.368        0.024      341.784       16.736      862.600
06/07/2013  06:17:00     -118.792      -59.618       -6.628       55.760       29.014       24.903     3109.166      841.824      620.139        1.114        0.229      132.912       27.785        0.044      341.816       16.793      862.597
06/07/2013  06:18:00     -100.969      -34.268       -7.546       33.053       23.233       12.865     1092.499      539.764      165.516        0.661        0.090      106.626       15.449        0.021      341.867       16.879      862.606
06/07/2013  06:19:00      -81.439        4.465        4.489       39.266       29.224       20.485     1541.843      854.035      419.628        0.474        0.141       81.561       21.354        0.069      341.938       16.998      862.617
06/07/2013  06:20:00      -36.061      -23.620      -10.336       54.988       26.701       19.520     3023.658      712.954      381.036        0.304        0.206       43.109       17.108        0.158      341.893       16.922      862.625
06/07/2013  06:21:00       -9.359      -34.552        4.833       22.917       21.849       16.916      525.203      477.398      286.139        0.130        0.064       35.797       10.489        0.086      341.984       17.077      862.638
06/07/2013  06:22:00       -2.711      -33.095       15.887       20.944       31.510       24.507      438.664      992.883      600.601        0.169        0.102       33.206       17.258        0.270      342.017       17.132      862.661
06/07/2013  06:23:00      -71.877      -54.643       -3.656       32.956       41.119       18.298     1086.099     1690.763      334.827        0.564        0.156       90.289       15.881        0.031      341.964       17.043      862.663
06/07/2013  06:24:00     -103.353      -50.351      -11.679       30.334       31.958       16.811      920.167     1021.300      282.617        0.779        0.111      114.965       14.342        0.016      341.936       16.995      862.673
06/07/2013  06:25:00     -107.552      -40.559       -2.915       39.535       22.845       17.025     1563.020      521.912      289.835        0.780        0.119      114.945       17.071        0.022      341.949       17.019      862.671
06/07/2013  06:26:00     -100.517      -87.265       -7.352       54.171       47.147       31.187     2934.473     2222.819      972.652        1.195        0.306      133.112       36.351        0.075      342.013       17.127      862.672
06/07/2013  06:27:00      -67.982      -66.487        9.277       51.139       44.483       25.288     2615.208     1978.698      639.460        0.718        0.262       95.090       28.251        0.088      342.028       17.151      862.683
06/07/2013  06:28:00      -83.624      -73.775       -0.789       66.179       41.965       33.818     4379.636     1761.070     1143.666        0.986        0.364      111.515       41.105        0.136      341.995       17.095      862.673
06/07/2013  06:29:00      -95.349      -77.118       -2.409       38.825       36.497       22.496     1507.389     1332.059      506.064        0.919        0.167      122.632       20.305        0.027      342.007       17.116      862.668
06/07/2013  06:30:00      -90.469      -55.364       -2.107       45.237       26.451       22.793     2046.349      699.657      519.512        0.726        0.163      106.065       10.555        0.010      342.073       17.229      862.675
06/07/2013  06:31:00     -114.650      -56.614        1.678       46.397       38.898       24.510     2152.726     1513.054      600.746        1.031        0.213      127.866       23.629        0.034      342.130       17.325      862.678
06/07/2013  06:32:00      -61.331      -62.319        0.641       36.950       29.453       18.415     1365.273      867.504      339.109        0.511        0.129       87.436       17.444        0.040      342.188       17.424      862.690
06/07/2013  06:33:00      -58.976      -59.137       -1.152       42.254       20.566       20.425     1785.370      422.978      417.178        0.480        0.131       83.518       22.664        0.074      342.218       17.472      862.690
06/07/2013  06:34:00      -64.363      -37.486       -5.454       15.900       18.823       13.430      252.814      354.305      180.354        0.318        0.039       74.484        7.765        0.011      342.223       17.484      862.698
06/07/2013  06:35:00      -32.885      -61.359        7.091       23.884       21.437       16.807      570.449      459.560      282.463        0.310        0.066       69.616       15.212        0.048      342.286       17.590      862.707
06/07/2013  06:36:00      -55.044        7.278        2.311       32.784       22.931       24.642     1074.793      525.818      607.251        0.265        0.110       55.523       24.675        0.197      342.418       17.813      862.709
06/07/2013  06:37:00      -46.094      -37.024       -1.728       18.471       16.863       13.620      341.174      284.346      185.500        0.215        0.041       59.122        4.844        0.007      342.311       17.631      862.713
06/07/2013  06:38:00      -72.091      -18.555       -3.075       28.104       27.638       17.200      789.863      763.882      295.825        0.370        0.092       74.440       14.403        0.037      342.347       17.692      862.706
06/07/2013  06:39:00      -95.955      -59.155       -5.806       26.925       31.321       16.278      724.973      981.028      264.983        0.736        0.099      112.724       13.469        0.014      342.299       17.610      862.704
06/07/2013  06:40:00      -88.321      -56.912       -8.855       35.998       29.041       19.480     1295.827      843.381      379.488        0.682        0.126      105.069       18.503        0.031      342.292       17.600      862.697
06/07/2013  06:41:00     -110.123       -2.971       -4.727       46.206       35.508       23.774     2134.975     1260.836      565.214        0.806        0.198      110.163       22.081        0.040      342.319       17.645      862.697
06/07/2013  06:42:00      -96.829       -6.010       -4.332       41.579       28.163       21.201     1728.794      793.131      449.486        0.620        0.149       97.015       22.011        0.051      342.347       17.693      862.698
06/07/2013  06:43:00      -88.349      -15.586       -5.882       38.396       27.664       21.824     1474.291      765.286      476.273        0.540        0.136       89.713       19.802        0.049      342.382       17.753      862.695
06/07/2013  06:44:00      -71.007      -33.283      -11.913       36.430       22.478       18.210     1327.164      505.272      331.616        0.423        0.108       78.420       14.015        0.032      342.370       17.730      862.705
06/07/2013  06:45:00      -92.957       -5.689       -6.171       37.699       19.972       21.940     1421.221      398.884      481.368        0.551        0.115       93.131       16.750        0.032      342.481       17.920      862.706
06/07/2013  06:46:00      -51.154      -18.437        4.469       36.808       24.363       16.337     1354.823      593.552      266.913        0.260        0.111       54.376       15.246        0.079      342.544       18.028      862.718
06/07/2013  06:47:00      -56.785      -14.171        3.523       38.420       22.593       19.511     1476.073      510.432      380.674        0.290        0.118       58.526       23.965        0.168      342.611       18.141      862.731
06/07/2013  06:48:00      -81.811      -39.389       -5.030       13.290        9.702        9.492      176.631       94.131       90.107        0.432        0.018       90.799        4.891        0.003      342.442       17.855      862.749
06/07/2013  06:49:00      -82.916      -40.211       -7.437       21.205       20.436       15.127      449.645      417.617      228.840        0.482        0.055       92.153        6.984        0.006      342.442       17.854      862.753
06/07/2013  06:50:00      -71.997      -34.890        2.549       44.145       13.678       16.361     1948.746      187.085      267.696        0.440        0.120       80.006       20.369        0.065      342.567       18.067      862.757
06/07/2013  06:51:00      -14.938      -13.793        9.292       16.870       12.014       16.472      284.589      144.345      271.331        0.060        0.035       20.332       14.469        0.506      343.011       18.822      862.762
06/07/2013  06:52:00      -41.453      -19.085       -5.470       12.738        6.572        9.875      162.267       43.196       97.520        0.121        0.015       45.635        5.895        0.017      342.636       18.184      862.765
06/07/2013  06:53:00      -39.394      -22.997       -2.189       12.961        8.637       12.053      167.978       74.595      145.282        0.124        0.019       45.615        6.587        0.021      342.673       18.246      862.781
06/07/2013  06:54:00      -27.222       -8.450        1.714        9.557        8.985        8.755       91.344       80.724       76.644        0.053        0.012       28.503        5.073        0.032      342.733       18.350      862.789
06/07/2013  06:55:00      -21.654      -24.032        7.297       20.627       15.274       14.028      425.462      233.301      196.794        0.098        0.043       32.349       14.220        0.193      342.952       18.722      862.794
06/07/2013  06:56:00      -17.132      -30.048        3.090       31.185       29.255       17.337      972.535      855.845      300.574        0.167        0.106       34.589       17.680        0.261      342.832       18.517      862.794
06/07/2013  06:57:00      -44.444      -54.599       -1.996       19.949       19.060       14.717      397.976      363.267      216.581        0.297        0.049       70.401       15.136        0.046      342.826       18.506      862.789
06/07/2013  06:58:00      -44.829      -66.506        0.291       29.422       30.670       12.230      865.630      940.662      149.562        0.419        0.098       80.204       16.250        0.041      342.802       18.467      862.798
06/07/2013  06:59:00      -71.049      -63.616       -6.684       12.562       17.435        8.524      157.813      303.988       72.653        0.484        0.027       95.367        4.870        0.003      342.769       18.408      862.788
06/07/2013  07:00:00      -25.499      -48.753        4.801       23.397       28.151       15.054      547.413      792.500      226.625        0.231        0.078       55.018       13.073        0.056      342.890       18.616      862.784
06/07/2013  07:01:00      -23.976      -60.115        7.774       36.499       29.058       15.830     1332.153      844.390      250.582        0.334        0.121       64.719       17.807        0.076      342.922       18.671      862.787
06/07/2013  07:02:00      -38.841      -59.955        0.314       23.167       24.575       11.521      536.719      603.919      132.727        0.319        0.064       71.436        3.847        0.003      342.970       18.754      862.779
06/07/2013  07:03:00      -11.097      -15.571       13.503       19.923       25.454       16.883      396.927      647.912      285.023        0.094        0.066       19.120       17.066        0.797      343.358       19.414      862.787
06/07/2013  07:04:00       18.370      -11.979       11.054       20.893       18.130       23.798      436.529      328.706      566.346        0.097        0.067       21.930        9.807        0.200      343.080       18.940      862.777
06/07/2013  07:05:00        6.380       -6.687       26.105       30.541       20.816       22.866      932.759      433.325      522.875        0.133        0.094        9.242       15.668        2.874      343.301       19.317      862.775
06/07/2013  07:06:00      -21.771        8.308        4.602       12.294       16.822       11.743      151.145      282.963      137.896        0.057        0.029       23.302        9.347        0.161      343.098       18.971      862.778
06/07/2013  07:07:00      -41.511      -16.868        2.072       25.603       22.394       12.239      655.492      501.477      149.798        0.166        0.065       44.807       14.105        0.099      343.191       19.128      862.775
06/07/2013  07:08:00      -31.456      -12.280       -2.724       22.835       29.662       20.835      521.437      879.861      434.093        0.149        0.092       33.768       20.133        0.355      343.154       19.067      862.778
06/07/2013  07:09:00      -10.603       -2.493       17.729       17.142       19.865       20.450      293.844      394.609      418.223        0.077        0.055       10.892       16.998        2.435      343.590       19.810      862.781
06/07/2013  07:10:00       -2.468        1.280       14.390       18.018       11.930       13.293      324.651      142.325      176.692        0.043        0.032        2.781        9.948       12.798      343.641       19.897      862.775
06/07/2013  07:11:00       -4.850       -9.925       15.248       13.982       13.782       16.158      195.492      189.957      261.071        0.050        0.032       11.047       10.334        0.875      343.980       20.476      862.789
06/07/2013  07:12:00      -12.430      -18.875        8.204       14.339       22.357       12.396      205.619      499.839      153.666        0.072        0.043       22.600        9.372        0.172      343.553       19.746      862.804
06/07/2013  07:13:00      -41.338      -91.692       -0.474       17.817       27.517       10.121      317.437      757.199      102.442        0.565        0.059      100.580        9.809        0.010      343.070       18.923      862.812
06/07/2013  07:14:00      -27.267      -64.184        3.286       18.667       22.686       14.337      348.450      514.667      205.559        0.297        0.053       69.736       10.972        0.025      343.149       19.057      862.813
06/07/2013  07:15:00      -17.796      -66.648        3.740       22.034       25.198       17.638      485.481      634.941      311.102        0.310        0.072       68.983       17.011        0.061      343.222       19.182      862.817
06/07/2013  07:16:00      -20.595      -66.649        3.164       17.348       16.345       14.981      300.944      267.153      224.434        0.283        0.040       69.759        8.284        0.014      343.250       19.229      862.815
06/07/2013  07:17:00       -0.112      -73.700       -3.753       14.247       25.998       17.750      202.990      675.881      315.079        0.332        0.060       73.700        6.936        0.009      343.186       19.120      862.823
06/07/2013  07:18:00       21.205      -19.166       11.269       26.985       28.120       22.498      728.206      790.747      506.153        0.148        0.101       28.583       18.592        0.423      343.463       19.592      862.829
06/07/2013  07:19:00       40.095       18.567       19.821       18.188       18.852       19.923      330.809      355.392      396.909        0.171        0.054       44.185       11.421        0.067      343.158       19.073      862.830
06/07/2013  07:20:00       25.550      -23.681       16.507       20.684       20.004       19.919      427.815      400.176      396.758        0.136        0.061       34.837       11.407        0.107      343.171       19.093      862.841
06/07/2013  07:21:00        5.810        3.098       15.769       22.904       19.135       24.505      524.591      366.139      600.512        0.089        0.075        6.585       15.660        5.657      343.490       19.639      862.842
06/07/2013  07:22:00       19.953       -0.522        1.612       24.683       21.216       22.914      609.245      450.112      525.061        0.099        0.079       19.959       18.710        0.879      343.378       19.448      862.850
06/07/2013  07:23:00       21.885      -43.690       -9.783       24.984       24.568       22.331      624.184      603.565      498.681        0.210        0.086       48.864       12.215        0.062      343.170       19.093      862.864
06/07/2013  07:24:00       -5.402       -5.347       -4.859        7.563        7.308        6.282       57.206       53.406       39.468        0.012        0.008        7.600        4.782        0.396      343.688       19.975      862.870
06/07/2013  07:25:00       -6.980       -8.133       -6.094       11.334       10.584        9.450      128.470      112.017       89.308        0.024        0.016       10.718        5.125        0.229      343.614       19.850      862.885
06/07/2013  07:26:00       -5.350      -15.851        1.384        5.461        8.873        8.111       29.821       78.732       65.788        0.023        0.009       16.730        3.204        0.037      343.661       19.930      862.885
06/07/2013  07:27:00      -22.114        2.250       -0.002        6.779        5.969        5.018       45.955       35.625       25.178        0.030        0.005       22.228        2.693        0.015      343.503       19.659      862.890
06/07/2013  07:28:00      -11.860       -0.697        5.185        7.598        6.315       12.160       57.723       39.877      147.876        0.021        0.012       11.881        6.216        0.274      344.019       20.543      862.897
06/07/2013  07:29:00       -9.623       -7.210        4.804        8.564        8.835       11.206       73.351       78.049      125.581        0.022        0.014       12.024        3.543        0.087      343.969       20.456      862.905
06/07/2013  07:30:00      -15.236       -0.889        9.969       11.237       10.137       14.713      126.278      102.753      216.487        0.039        0.022       15.262        8.912        0.341      344.335       21.083      862.913
06/07/2013  07:31:00      -16.371       -8.600        9.965       11.596       14.446       14.139      134.471      208.678      199.911        0.049        0.027       18.492        9.944        0.289      343.977       20.469      862.908
06/07/2013  07:32:00      -11.042       -0.275       29.133       14.950       25.164       16.527      223.492      633.239      273.140        0.105        0.056       11.045        6.767        0.375      344.626       21.580      862.917
06/07/2013  07:33:00        6.892       20.399       41.361       17.249       20.814       10.579      297.531      433.242      111.921        0.151        0.042       21.532        4.231        0.039      344.706       21.716      862.913
06/07/2013  07:34:00        3.616       57.899       10.879       21.588       26.552       22.337      466.060      704.992      498.949        0.258        0.084       58.012       19.193        0.109      344.049       20.592      862.926
06/07/2013  07:35:00        7.815       56.846       -0.456       17.159       19.591       17.989      294.445      383.807      323.587        0.215        0.050       57.381       12.671        0.049      343.948       20.418      862.928
06/07/2013  07:36:00       12.387       42.271       17.062       25.675       22.435       17.374      659.208      503.327      301.862        0.185        0.073       44.049        9.270        0.044      344.181       20.818      862.927
06/07/2013  07:37:00       43.245       57.002       15.129       26.426       21.458       17.699      698.353      460.433      313.254        0.341        0.074       71.549       15.232        0.045      344.082       20.650      862.940
06/07/2013  07:38:00        5.405       26.695       31.113       20.576       25.402       19.824      423.368      645.285      393.011        0.159        0.073       27.237       15.478        0.323      344.661       21.638      862.932
06/07/2013  07:39:00      -10.012        6.242       35.826       13.752       15.369       13.874      189.118      236.220      192.500        0.102        0.031       11.799        8.899        0.569      344.759       21.807      862.934
06/07/2013  07:40:00      -18.300       -7.329       20.797       16.194       12.634       12.999      262.245      159.611      168.982        0.071        0.030       19.713       11.492        0.340      344.326       21.065      862.936
06/07/2013  07:41:00      -25.019      -27.534        5.202       18.473       11.227        8.243      341.267      126.055       67.946        0.097        0.027       37.203        6.264        0.028      343.872       20.289      862.934
06/07/2013  07:42:00      -16.660      -12.435        9.934       15.047       12.282       11.402      226.401      150.847      130.012        0.052        0.025       20.789       10.284        0.245      344.258       20.949      862.944
06/07/2013  07:43:00        8.680      -29.331       16.450       23.198       31.880       17.415      538.167     1016.321      303.285        0.153        0.093       30.589       13.276        0.188      344.477       21.325      862.946
06/07/2013  07:44:00       21.291      -35.844       -4.912       23.974       32.157       22.238      574.736     1034.070      494.514        0.193        0.105       41.690       13.430        0.104      344.308       21.034      862.944
06/07/2013  07:45:00       20.990      -19.614       20.626       20.076       30.398       20.149      403.039      924.047      405.970        0.149        0.087       28.728       20.153        0.492      344.441       21.263      862.943
06/07/2013  07:46:00        4.338       -9.159       26.528       17.597       33.154       21.005      309.664     1099.157      441.228        0.133        0.093       10.135       19.270        3.615      344.529       21.414      862.936
06/07/2013  07:47:00       21.590       13.287       25.168       18.139       16.797       23.756      329.036      282.129      564.337        0.123        0.059       25.351        8.086        0.102      344.616       21.562      862.942
06/07/2013  07:48:00       26.746       14.675       22.125       28.976       21.408       24.144      839.627      458.282      582.936        0.165        0.094       30.507       16.103        0.279      344.474       21.319      862.944
06/07/2013  07:49:00       -3.275       13.667       42.237       14.678       20.763       11.307      215.435      431.108      127.841        0.138        0.039       14.054        7.951        0.320      345.168       22.506      862.947
06/07/2013  07:50:00      -14.853        0.398       24.569       15.878       10.571       11.774      252.096      111.749      138.627        0.066        0.025       14.859       11.462        0.595      344.953       22.140      862.952
06/07/2013  07:51:00      -23.160        3.283        8.582       13.206        9.384       12.248      174.386       88.061      150.011        0.052        0.021       23.391        8.179        0.122      344.307       21.034      862.954
06/07/2013  07:52:00      -18.609        0.948        7.114       10.431        9.141       10.603      108.811       83.564      112.420        0.035        0.015       18.633        3.047        0.027      344.424       21.234      862.964
06/07/2013  07:53:00      -20.259        4.261        0.967        9.321        4.691        6.037       86.889       22.008       36.445        0.029        0.007       20.702        1.634        0.006      344.162       20.786      862.979
06/07/2013  07:54:00      -14.629       -2.246       20.586       11.792       18.607       15.644      139.055      346.213      244.747        0.069        0.037       14.800        7.550        0.260      344.877       22.008      862.979
06/07/2013  07:55:00        3.983       11.303       41.202       18.841       16.410       13.024      354.977      269.303      169.632        0.132        0.040       11.985       12.583        1.102      345.418       22.935      862.982
06/07/2013  07:56:00       23.391       25.026       30.630       20.963       17.178       16.487      439.457      295.099      271.831        0.156        0.050       34.255       12.728        0.138      344.714       21.730      862.983
06/07/2013  07:57:00       36.081       28.476       15.301       20.296       13.688       19.841      411.920      187.359      393.676        0.167        0.050       45.964       11.075        0.058      344.400       21.193      862.976
06/07/2013  07:58:00       26.100       53.667       19.940       18.019       16.665       18.524      324.702      277.718      343.128        0.245        0.047       59.677       11.084        0.034      344.422       21.229      862.979
06/07/2013  07:59:00       28.732       54.139        0.284       23.755       25.904       20.783      564.290      671.040      431.926        0.271        0.083       61.291       12.823        0.044      344.442       21.263      862.975
06/07/2013  08:00:00       -2.438       25.148       12.062       22.093       25.272       20.197      488.101      638.670      407.911        0.116        0.077       25.266       14.695        0.338      344.715       21.731      862.981
06/07/2013  08:01:00       -8.109       35.554        2.444       15.509       22.011       19.732      240.516      484.502      389.339        0.122        0.056       36.467       15.197        0.174      344.832       21.931      862.982
06/07/2013  08:02:00       -4.634       30.260        6.137       14.946       23.030       20.953      223.387      530.396      439.030        0.108        0.060       30.613        4.092        0.018      345.040       22.289      862.976
06/07/2013  08:03:00       -3.877       45.447       -9.816       22.702       22.067       26.322      515.389      486.954      692.837        0.194        0.085       45.612       17.615        0.149      344.572       21.485      862.973
06/07/2013  08:04:00       -4.680       68.466       -3.278       17.028       27.030       26.471      289.969      730.597      700.728        0.322        0.086       68.626       13.882        0.041      344.648       21.616      862.970
06/07/2013  08:05:00        0.510       36.995        8.012       19.214       27.375       21.849      369.185      749.397      477.378        0.151        0.080       36.998       17.522        0.224      345.082       22.360      862.961
06/07/2013  08:06:00       -7.225       33.709       16.979       15.671       37.657       19.759      245.583     1418.053      390.429        0.177        0.103       34.474       22.563        0.428      345.441       22.976      862.957
06/07/2013  08:07:00       -0.475       17.624       14.794       17.947       24.972       20.510      322.080      623.586      420.671        0.095        0.068       17.630       18.316        1.079      345.372       22.857      862.951
06/07/2013  08:08:00        0.473       24.126       18.206       21.537       26.205       17.133      463.834      686.715      293.536        0.118        0.072       24.130       15.418        0.408      345.391       22.889      862.946
06/07/2013  08:09:00       26.257       45.154      -11.129       17.650       33.067       18.591      311.511     1093.455      345.640        0.230        0.088       52.233       16.688        0.102      344.749       21.789      862.957
06/07/2013  08:10:00       12.274       40.111        2.686       18.594       30.274       23.302      345.750      916.504      542.985        0.179        0.090       41.947       21.277        0.257      345.017       22.246      862.961
06/07/2013  08:11:00      -18.908       20.026       24.183       18.315       14.852       18.075      335.457      220.576      326.716        0.111        0.044       27.542       11.717        0.181      345.347       22.813      862.963
06/07/2013  08:12:00       -5.851       20.362       21.242       19.603       19.850       15.502      384.263      394.009      240.304        0.096        0.051       21.186       13.312        0.395      345.535       23.137      862.963
06/07/2013  08:13:00       25.613       22.683       36.061       34.033       28.711       21.071     1158.245      824.315      443.984        0.245        0.121       34.213       20.153        0.347      345.635       23.308      862.966
06/07/2013  08:14:00       41.086       41.085       14.937       20.955       23.993       30.759      439.103      575.685      946.101        0.278        0.098       58.104       13.251        0.052      345.037       22.283      862.958
06/07/2013  08:15:00       49.175       45.409        0.476       18.934       18.443       21.578      358.506      340.159      465.597        0.282        0.058       66.934        7.228        0.012      344.846       21.954      862.959
06/07/2013  08:16:00       45.453       51.791       18.565       26.563       25.648       29.131      705.614      657.840      848.624        0.365        0.111       68.908       16.210        0.055      345.098       22.385      862.966
06/07/2013  08:17:00       67.882       37.900       10.322       16.173       21.142       18.162      261.578      447.003      329.848        0.359        0.052       77.746       13.266        0.029      344.656       21.630      862.969
06/07/2013  08:18:00       55.743       45.466        8.906       34.255       25.811       33.364     1173.410      666.233     1113.139        0.410        0.148       71.934       19.102        0.071      344.996       22.211      862.967
06/07/2013  08:19:00       37.497       33.218       29.503       35.366       22.853       24.733     1250.779      522.238      611.740        0.288        0.119       50.094       18.099        0.131      345.246       22.640      862.983
06/07/2013  08:20:00       45.024       53.968        8.728       35.624       29.001       30.532     1269.094      841.045      932.197        0.403        0.152       70.282       19.093        0.074      345.223       22.602      862.985
06/07/2013  08:21:00       15.516       57.512        0.996       32.167       25.908       27.190     1034.723      671.237      739.309        0.300        0.122       59.568       21.181        0.126      345.391       22.889      862.991
06/07/2013  08:22:00       87.732       44.040       23.944       44.140       29.844       29.591     1948.358      890.690      875.630        0.696        0.186       98.165       12.529        0.016      345.257       22.659      862.999
06/07/2013  08:23:00        7.465       27.683       29.393       26.894       30.994       18.911      723.283      960.612      357.638        0.186        0.102       28.672       11.240        0.154      346.010       23.951      863.006
06/07/2013  08:24:00       40.143      -25.603       24.912       49.615       55.748       31.340     2461.612     3107.804      982.196        0.472        0.328       47.613       29.747        0.390      345.605       23.255      863.010
06/07/2013  08:25:00       36.093       -3.498       37.120       40.650       32.448       31.017     1652.428     1052.897      962.035        0.318        0.183       36.262       21.655        0.357      345.601       23.249      863.018
06/07/2013  08:26:00       46.483       29.805       28.437       30.413       29.778       37.054      924.934      886.709     1373.016        0.352        0.159       55.218       23.014        0.174      345.335       22.793      863.022
06/07/2013  08:27:00       63.232       51.994       12.419       24.649       18.585       19.830      607.597      345.390      393.245        0.410        0.067       81.864       10.116        0.015      345.015       22.244      863.029
06/07/2013  08:28:00        0.959        8.650       14.980       36.649       32.637       21.885     1343.142     1065.184      478.968        0.159        0.144        8.703       13.033        2.243      345.600       23.246      863.034
06/07/2013  08:29:00      -15.622       -5.583       17.699       17.359       13.950       16.838      301.332      194.596      283.502        0.068        0.039       16.590       13.356        0.648      346.117       24.136      863.035
06/07/2013  08:30:00      -67.892       11.102       -0.494       12.866       13.236        7.636      165.536      175.194       58.312        0.257        0.020       68.794        4.639        0.005      345.099       22.387      863.043
06/07/2013  08:31:00      -40.247       16.462       20.187       22.907       15.410       18.857      524.723      237.479      355.592        0.171        0.056       43.484       14.579        0.112      345.699       23.418      863.037
06/07/2013  08:32:00      -36.132        3.558        9.039       22.312       13.705       18.557      497.809      187.820      344.350        0.121        0.051       36.307       11.450        0.099      345.843       23.664      863.032
06/07/2013  08:33:00       -5.590       30.906       14.353       23.610       34.867       23.848      557.438     1215.701      568.706        0.177        0.117       31.408       27.027        0.740      346.371       24.570      863.036
06/07/2013  08:34:00        5.667       15.213       39.755       26.165       24.498       23.415      684.609      600.147      548.283        0.184        0.092       16.234       18.708        1.328      346.489       24.774      863.037
06/07/2013  08:35:00       11.706       -4.949       31.006       21.548       27.560       21.020      464.298      759.558      441.827        0.139        0.083       12.709       11.144        0.769      346.271       24.399      863.037
06/07/2013  08:36:00      -11.091       23.906       27.907       25.917       21.896       19.181      671.691      479.439      367.895        0.150        0.076       26.354        3.044        0.013      346.314       24.473      863.029
06/07/2013  08:37:00      -10.461        3.416       27.336       16.109       16.851       15.583      259.502      283.944      242.827        0.083        0.039       11.005       10.249        0.867      346.663       25.073      863.034
06/07/2013  08:38:00      -11.374      -26.155       19.134       13.782       20.667       18.121      189.952      427.120      328.386        0.106        0.047       28.521        9.927        0.121      345.933       23.817      863.030
06/07/2013  08:39:00       -9.618        3.357       35.246       12.774       12.343       12.268      163.185      152.341      150.499        0.091        0.023       10.187        5.487        0.290      346.843       25.383      863.038
06/07/2013  08:40:00      -40.915      -43.113        6.135       39.020       41.223       14.394     1522.529     1699.363      207.190        0.350        0.171       59.437        6.610        0.012      345.746       23.497      863.041
06/07/2013  08:41:00      -11.529      -16.018       11.784       29.256       39.379       26.291      855.934     1550.671      691.198        0.181        0.155       19.736       26.495        1.802      346.409       24.637      863.040
06/07/2013  08:42:00      -42.087      -18.356       -4.074       22.551       25.747       17.332      508.553      662.917      300.389        0.180        0.074       45.916        8.734        0.036      345.717       23.446      863.051
06/07/2013  08:43:00      -32.066      -26.009       10.528       20.603       23.910       14.939      424.488      571.691      223.172        0.152        0.061       41.288        8.656        0.044      345.802       23.594      863.048
06/07/2013  08:44:00       -8.552       25.166       32.429       14.684       24.664       21.048      215.627      608.293      443.009        0.151        0.063       26.580        7.692        0.084      347.018       25.686      863.045
06/07/2013  08:45:00      -20.296        8.330       30.857       14.949       16.905       12.514      223.472      285.773      156.595        0.105        0.033       21.939        9.558        0.190      346.535       24.853      863.043
06/07/2013  08:46:00       -8.214        5.734       53.246       19.806       23.112       16.069      392.289      534.181      258.218        0.206        0.059       10.018        5.427        0.293      346.990       25.636      863.027
06/07/2013  08:47:00      -15.116      -12.160       20.396       17.313       26.141       19.207      299.724      683.341      368.913        0.107        0.068       19.400       17.662        0.829      346.534       24.852      863.027
06/07/2013  08:48:00      -10.437       -2.638       34.109       11.803       17.988       20.506      139.316      323.586      420.498        0.108        0.044       10.765       16.432        2.330      347.093       25.815      863.011
06/07/2013  08:49:00      -11.939       16.567       47.008       11.367       24.050       18.213      129.215      578.423      331.714        0.183        0.052       20.421       17.747        0.755      347.044       25.729      862.994
06/07/2013  08:50:00       -7.687       11.679       52.803       10.751       18.410       11.389      115.579      338.943      129.698        0.178        0.029       13.982        9.464        0.458      347.030       25.705      862.991
06/07/2013  08:51:00      -11.253        0.232       37.085       19.018       22.533       19.938      361.679      507.740      397.511        0.138        0.063       11.256       17.973        2.550      346.754       25.231      862.973
06/07/2013  08:52:00       -0.519       20.267       63.060       26.188       39.861       19.045      685.810     1588.921      362.724        0.351        0.132       20.274       22.680        1.251      346.706       25.146      862.970
06/07/2013  08:53:00      -16.963       28.418       58.617       21.904       33.047       24.169      479.779     1092.112      584.129        0.334        0.108       33.096       20.714        0.392      346.823       25.349      862.971
06/07/2013  08:54:00        5.665      -16.298       44.877       21.333       47.468       23.274      455.091     2253.187      541.674        0.278        0.162       17.255       25.135        2.122      346.764       25.246      862.966
06/07/2013  08:55:00       12.294       30.670       45.550       31.200       29.644       23.148      973.418      878.770      535.834        0.278        0.119       33.042       15.435        0.218      346.523       24.834      862.972
06/07/2013  08:56:00       -6.178        0.258       13.143       29.509       36.505       31.525      870.775     1332.618      993.820        0.170        0.160        6.184       26.240       18.007      346.232       24.332      862.971
06/07/2013  08:57:00       -0.268       22.153       42.155       23.844       21.169       18.003      568.543      448.125      324.121        0.180        0.067       22.155       12.019        0.294      346.614       24.990      862.966
06/07/2013  08:58:00       12.442       -2.465       51.097       23.123       35.078       14.409      534.651     1230.476      207.606        0.237        0.099       12.684       13.738        1.173      346.747       25.218      862.969
06/07/2013  08:59:00      -10.822       -7.051       26.291       17.985       19.829       16.097      323.458      393.196      259.120        0.092        0.049       12.917        8.917        0.477      346.545       24.870      862.962
06/07/2013  09:00:00      -13.652       -7.854       21.200       15.229       19.835       15.758      231.912      393.445      248.319        0.079        0.044       15.750       11.953        0.576      346.680       25.103      862.955
06/07/2013  09:01:00       13.184       22.073       39.433       23.545       25.561       22.197      554.372      653.353      492.725        0.196        0.085       25.711       14.492        0.318      346.801       25.311      862.940
06/07/2013  09:02:00       -2.642      -29.373       17.236       27.781       36.615       26.012      771.807     1340.670      676.599        0.198        0.139       29.491       19.299        0.428      346.806       25.319      862.918
06/07/2013  09:03:00        4.540      -54.457       10.570       30.374       41.701       28.829      922.560     1738.995      831.118        0.329        0.175       54.646       17.896        0.107      346.487       24.768      862.909
06/07/2013  09:04:00      -34.774      -22.068       25.819       29.196       73.278       28.434      852.430     5369.670      808.470        0.470        0.352       41.185       38.091        0.855      346.682       25.108      862.897
06/07/2013  09:05:00      -82.367      -44.112        7.302       40.040       31.220       25.234     1603.202      974.686      636.750        0.600        0.161       93.436       24.140        0.067      346.140       24.173      862.882
06/07/2013  09:06:00      -50.518      -20.134        7.124       43.553       30.565       21.084     1896.831      934.210      444.546        0.314        0.164       54.382       16.222        0.089      346.251       24.364      862.879
06/07/2013  09:07:00      -54.403      -26.035       -3.261       27.994       29.403       22.550      783.644      864.533      508.517        0.290        0.108       60.312       19.277        0.102      346.138       24.170      862.871
06/07/2013  09:08:00      -33.484       -2.786       -2.222       14.944       11.361       10.606      223.313      129.082      112.497        0.080        0.023       33.600        6.273        0.035      346.159       24.205      862.874
06/07/2013  09:09:00        2.809        9.208       32.037       18.976       17.068       15.408      360.090      291.301      237.413        0.100        0.044        9.627       10.164        1.115      347.092       25.812      862.861
06/07/2013  09:10:00        0.811       23.647       50.605       22.926       27.248       13.164      525.617      742.475      173.285        0.228        0.072       23.660        7.162        0.092      347.419       26.378      862.855
06/07/2013  09:11:00      -11.348      -15.207       21.209       23.041       25.143       25.281      530.905      632.186      639.149        0.131        0.090       18.975       19.341        1.039      346.806       25.319      862.836
06/07/2013  09:12:00        6.367      -47.485        8.907       26.866       38.478       29.313      721.776     1480.543      859.225        0.272        0.153       47.910       24.547        0.263      346.981       25.620      862.833
06/07/2013  09:13:00        3.642      -71.342       -2.329       37.380       29.746       23.919     1397.228      884.832      572.104        0.398        0.143       71.434       10.316        0.021      346.508       24.807      862.819
06/07/2013  09:14:00      -39.617      -46.760        7.963       31.270       20.302       18.081      977.839      412.182      326.907        0.277        0.086       61.286       10.416        0.029      346.370       24.568      862.802
06/07/2013  09:15:00       25.841      -52.570       23.335       56.098       40.056       27.159     3147.007     1604.450      737.592        0.473        0.274       58.578       22.658        0.150      346.392       24.606      862.792
06/07/2013  09:16:00       10.782       -2.421       30.630       34.303       57.712       31.525     1176.705     3330.634      993.824        0.328        0.275       11.051       36.662       11.006      346.700       25.138      862.770
06/07/2013  09:17:00       31.353      -50.581       20.400       37.772       44.632       44.098     1426.720     1992.054     1944.660        0.466        0.268       59.510       26.322        0.196      346.756       25.232      862.761
06/07/2013  09:18:00        9.410       20.535       50.400       31.384       34.629       25.502      984.935     1199.158      650.333        0.294        0.142       22.589       19.311        0.731      347.276       26.130      862.747
06/07/2013  09:19:00        6.272       33.275       51.689       27.056       26.373       15.569      732.021      695.517      242.381        0.274        0.083       33.861       14.354        0.180      347.188       25.980      862.742
06/07/2013  09:20:00       13.101        8.198       41.576       31.461       36.459       23.596      989.815     1329.272      556.754        0.242        0.144       15.455       23.690        2.350      347.323       26.209      862.735
06/07/2013  09:21:00       28.780       32.174       14.971       26.668       34.925       28.147      711.159     1219.790      792.243        0.240        0.136       43.167       23.446        0.295      347.233       26.054      862.733
06/07/2013  09:22:00       38.005       52.169        8.701       34.751       34.799       26.885     1207.623     1210.972      722.823        0.369        0.157       64.545       23.433        0.132      347.168       25.943      862.725
06/07/2013  09:23:00       31.070       29.701       24.572       24.377       34.235       28.817      594.247     1172.002      830.430        0.252        0.130       42.983       19.271        0.201      347.057       25.751      862.736
06/07/2013  09:24:00        6.366      -10.601       29.225       17.792       22.815       22.878      316.552      520.543      523.395        0.118        0.068       12.366       20.380        2.716      347.247       26.079      862.736
06/07/2013  09:25:00       -4.060      -12.899       25.755       12.029       25.698       18.069      144.693      660.373      326.484        0.099        0.057       13.523       14.011        1.073      347.965       27.320      862.740
06/07/2013  09:26:00      -48.622      -39.641        0.127       47.459       47.920       20.618     2252.335     2296.303      425.107        0.445        0.249       62.733       18.944        0.091      346.744       25.214      862.741
06/07/2013  09:27:00      -80.048      -14.073       -9.371       22.215       19.582       17.030      493.493      383.438      290.017        0.393        0.058       81.276       12.074        0.022      346.443       24.693      862.747
06/07/2013  09:28:00      -84.590       -1.768      -11.990       16.047       15.844       14.390      257.492      251.041      207.075        0.401        0.036       84.609        5.870        0.005      346.429       24.670      862.746
06/07/2013  09:29:00      -68.713        7.159       -8.674       19.239       18.657       12.631      370.131      348.085      159.544        0.286        0.044       69.085        9.949        0.021      346.534       24.851      862.750
06/07/2013  09:30:00      -40.167      -12.818       -3.042       24.016       20.012       19.660      576.762      400.489      386.533        0.158        0.068       42.163       15.429        0.134      346.929       25.530      862.752
06/07/2013  09:31:00        6.101       11.642       12.864       26.198       21.714       21.714      686.313      471.489      471.509        0.098        0.081       13.144       15.877        1.459      347.497       26.510      862.742
06/07/2013  09:32:00       18.340       31.414       28.137       48.648       30.678       27.783     2366.613      941.146      771.878        0.310        0.204       36.376       23.507        0.418      347.445       26.419      862.744
06/07/2013  09:33:00       37.557       78.751        0.476       33.010       40.376       37.756     1089.628     1630.206     1425.481        0.588        0.207       87.248       31.153        0.127      347.238       26.062      862.737
06/07/2013  09:34:00        6.553       45.202        1.892       29.896       41.047       30.124      893.757     1684.889      907.442        0.279        0.174       45.674       25.971        0.323      347.374       26.298      862.746
06/07/2013  09:35:00       15.509       39.873       15.747       22.162       37.147       25.551      491.175     1379.890      652.863        0.230        0.126       42.783       20.306        0.225      347.538       26.581      862.738
06/07/2013  09:36:00       -3.530      -11.984       30.207       10.325       21.997       13.293      106.606      483.880      176.692        0.092        0.038       12.493       12.058        0.932      348.226       27.769      862.742
06/07/2013  09:37:00        9.463      -12.084       24.036       29.382       49.427       37.736      863.290     2443.045     1424.016        0.277        0.237       15.349       27.052        3.106      347.620       26.725      862.741
06/07/2013  09:38:00       35.671       -0.731       35.442       32.034       33.048       28.860     1026.150     1092.185      832.905        0.274        0.148       35.679       13.833        0.150      347.517       26.543      862.736
06/07/2013  09:39:00       63.178        0.084       33.498       52.122       35.477       37.610     2716.678     1258.640     1414.529        0.525        0.269       63.178       31.531        0.249      347.319       26.206      862.736
06/07/2013  09:40:00       44.292      -60.530       20.206       47.340       46.082       42.227     2241.115     2123.520     1783.160        0.609        0.307       75.004       36.070        0.231      346.963       25.589      862.724
06/07/2013  09:41:00       28.649        0.328       30.044       27.528       49.215       30.626      757.802     2422.129      937.970        0.292        0.206       28.651       29.667        1.072      347.209       26.014      862.729
06/07/2013  09:42:00       -1.424       25.640       52.798       30.115       37.363       26.265      906.919     1396.018      689.832        0.322        0.150       25.680       22.583        0.773      347.623       26.727      862.714
06/07/2013  09:43:00       31.243       -6.442       17.176       29.853       24.108       31.389      891.213      581.199      985.270        0.188        0.123       31.900       20.761        0.424      347.147       25.908      862.718
06/07/2013  09:44:00       20.272      -11.772       12.022       25.519       26.717       28.126      651.242      713.795      791.049        0.142        0.108       23.442       21.537        0.844      347.198       25.994      862.716
06/07/2013  09:45:00       98.338       45.231       14.766       77.572       51.319       40.442     6017.343     2633.642     1635.578        1.111        0.514      108.242       35.849        0.110      347.250       26.083      862.719
06/07/2013  09:46:00      100.254       88.670       43.601       56.534       37.355       51.315     3196.066     1395.370     2633.243        1.352        0.361      133.840       39.523        0.087      347.299       26.167      862.712
06/07/2013  09:47:00       43.973       61.883       38.512       56.160       44.635       53.092     3153.989     1992.280     2818.762        0.760        0.398       75.916       41.060        0.293      347.345       26.248      862.716
06/07/2013  09:48:00       97.321       67.144       39.318       39.670       43.257       42.662     1573.682     1871.178     1820.043        1.039        0.263      118.236       26.372        0.050      347.125       25.868      862.713
06/07/2013  09:49:00       85.352       83.302       20.767       44.757       40.435       39.853     2003.146     1635.012     1588.240        0.994        0.261      119.266       30.445        0.065      347.263       26.105      862.720
06/07/2013  09:50:00        9.702       80.901        8.307       35.655       44.020       34.901     1271.309     1937.744     1218.061        0.557        0.221       81.481       27.260        0.112      347.646       26.768      862.704
06/07/2013  09:51:00       33.986       39.905        6.359       26.467       43.590       33.350      700.507     1900.118     1112.241        0.325        0.186       52.416       22.093        0.178      347.422       26.379      862.693
06/07/2013  09:52:00       19.964       39.807       73.846       40.031       60.923       44.265     1602.482     3711.655     1959.393        0.735        0.364       44.533       38.057        0.730      347.644       26.764      862.669
06/07/2013  09:53:00      130.404       72.161       53.751       82.198       46.407       53.514     6756.568     2153.648     2863.714        1.844        0.589      149.038       54.893        0.136      347.186       25.972      862.673
06/07/2013  09:54:00      148.819      104.018       15.572       40.779       40.973       38.638     1662.911     1678.802     1492.903        1.902        0.242      181.567       21.475        0.014      347.191       25.981      862.660
06/07/2013  09:55:00      143.040       82.017       16.213       49.364       39.406       37.860     2436.815     1552.843     1433.380        1.644        0.271      164.885       27.603        0.028      347.311       26.189      862.658
06/07/2013  09:56:00       80.559       79.930       19.431       53.520       33.111       27.379     2864.342     1096.342      749.598        0.898        0.236      113.484       16.574        0.021      347.413       26.364      862.657
06/07/2013  09:57:00       31.066      123.708      -16.752       39.627       48.463       28.715     1570.338     2348.671      824.556        1.065        0.237      127.550       25.322        0.039      347.371       26.292      862.656
06/07/2013  09:58:00       45.334       57.825       19.347       60.013       45.102       41.426     3601.542     2034.157     1716.106        0.656        0.368       73.477       29.879        0.165      347.729       26.911      862.657
06/07/2013  09:59:00       84.794       67.671      -19.826       44.875       33.353       33.694     2013.739     1112.395     1135.260        0.821        0.213      108.487       19.475        0.032      347.361       26.275      862.646
06/07/2013  10:00:00       -7.279       16.765       25.939       60.040       21.042       28.661     3604.814      442.753      821.471        0.294        0.243       18.277       17.929        0.962      348.266       27.839      862.645
06/07/2013  10:01:00       96.256       62.901        6.951       59.113       37.408       37.990     3494.335     1399.344     1443.226        0.980        0.317      114.986       22.459        0.038      347.781       26.999      862.639
06/07/2013  10:02:00       50.525       35.707       11.741       21.589       23.003       27.924      466.070      529.123      779.772        0.287        0.089       61.869       18.210        0.087      347.857       27.130      862.636
06/07/2013  10:03:00       44.002       27.768        2.937       32.748       24.311       25.712     1072.439      591.005      661.105        0.252        0.116       52.031       13.825        0.071      347.750       26.944      862.636
06/07/2013  10:04:00       -4.077        2.875       29.903        9.701       11.126       10.517       94.113      123.792      110.607        0.062        0.016        4.989        2.956        0.351      348.868       28.878      862.627
06/07/2013  10:05:00       -6.717       27.956       54.760       21.656       39.348       22.838      468.997     1548.239      521.565        0.318        0.127       28.752       23.579        0.673      348.726       28.634      862.634
06/07/2013  10:06:00       18.114       12.628       50.007       42.581       66.388       37.837     1813.113     4407.357     1431.669        0.532        0.383       22.082       41.600        3.549      348.205       27.732      862.615
06/07/2013  10:07:00       45.645       24.047       23.222       31.314       63.134       42.941      980.538     3985.864     1843.919        0.500        0.341       51.592       17.354        0.113      347.904       27.213      862.631
06/07/2013  10:08:00       45.314       29.737       46.375       39.248       44.112       37.219     1540.432     1945.900     1385.268        0.498        0.244       54.200       27.267        0.253      348.010       27.396      862.623
06/07/2013  10:09:00       26.461       17.319       47.266       39.605       53.215       39.931     1568.568     2831.809     1594.499        0.461        0.300       31.625       39.053        1.525      348.065       27.490      862.622
06/07/2013  10:10:00       -5.653       29.623       58.716       17.821       35.777       22.727      317.576     1279.975      516.528        0.324        0.106       30.158        4.899        0.026      348.700       28.588      862.619
06/07/2013  10:11:00       27.969       43.556       59.657       48.630       39.875       34.571     2364.914     1590.027     1195.129        0.569        0.258       51.763       30.167        0.340      347.687       26.838      862.608
06/07/2013  10:12:00      116.029       11.502       16.875       68.909      110.757       51.101     4748.383    12267.130     2611.296        1.675        0.981      116.598       44.444        0.145      347.702       26.863      862.598
06/07/2013  10:13:00      130.055       91.926       15.221       54.183       36.630       37.876     2935.759     1341.721     1434.573        1.565        0.286      159.263       26.416        0.028      347.848       27.115      862.600
06/07/2013  10:14:00       78.895       66.906       25.674       40.034       30.062       36.730     1602.727      903.694     1349.075        0.761        0.193      103.445       24.152        0.055      347.962       27.310      862.606
06/07/2013  10:15:00       63.032       35.885       15.978       49.026       45.900       35.432     2403.536     2106.781     1255.404        0.564        0.288       72.531       18.044        0.062      348.084       27.522      862.590
06/07/2013  10:16:00       22.745       14.375        7.784       30.458       36.169       29.634      927.679     1308.207      878.174        0.195        0.156       26.906       21.243        0.623      348.379       28.032      862.589
06/07/2013  10:17:00       16.324       -4.881       10.334       36.836       29.897       30.423     1356.925      893.831      925.581        0.179        0.159       17.038       22.813        1.793      348.276       27.854      862.583
06/07/2013  10:18:00       95.913       75.736       37.219       65.796       39.460       37.591     4329.055     1557.107     1413.108        1.181        0.365      122.210       24.136        0.039      348.203       27.728      862.561
06/07/2013  10:19:00      134.393       74.867       33.966       50.106       35.344       39.332     2510.570     1249.212     1547.001        1.506        0.265      153.839       30.882        0.040      347.971       27.326      862.551
06/07/2013  10:20:00       73.779       67.281       56.943       62.574       39.511       31.417     3915.508     1561.145      987.035        0.984        0.323       99.850       22.826        0.052      347.877       27.164      862.539
06/07/2013  10:21:00      128.461       80.782       33.778       29.791       34.374       35.667      887.490     1181.565     1272.143        1.375        0.167      151.749       24.210        0.025      347.717       26.889      862.525
06/07/2013  10:22:00       71.883       64.569       24.144       39.691       34.110       27.366     1575.362     1163.506      748.879        0.670        0.174       96.625       21.484        0.049      347.920       27.238      862.505
06/07/2013  10:23:00       12.669       10.476       35.436       19.046       29.058       16.140      362.762      844.357      260.499        0.150        0.073       16.439       11.655        0.503      348.659       28.518      862.494
06/07/2013  10:24:00       12.019       -7.679       27.364       32.474       47.949       36.509     1054.583     2299.106     1332.904        0.282        0.234       14.263       32.288        5.125      348.388       28.050      862.496
06/07/2013  10:25:00       24.766      -32.388       21.844       39.586       62.395       47.212     1567.067     3893.197     2228.933        0.491        0.384       40.772       41.863        1.054      348.540       28.311      862.493
06/07/2013  10:26:00       73.633      -60.968        2.734       49.703       57.813       38.576     2470.356     3342.301     1488.125        0.822        0.365       95.598       32.409        0.115      348.146       27.630      862.505
06/07/2013  10:27:00       49.269      -76.945       11.749       47.067       36.609       34.575     2215.344     1340.189     1195.441        0.662        0.238       91.368       29.679        0.106      348.148       27.632      862.520
06/07/2013  10:28:00       16.057       11.151       32.251       36.553       38.458       33.565     1336.156     1478.984     1126.593        0.268        0.197       19.549       30.371        2.414      348.681       28.554      862.525
06/07/2013  10:29:00        3.829        0.186       30.809       25.159       20.371       19.044      632.995      414.982      362.689        0.119        0.071        3.834       10.594        7.636      348.747       28.669      862.522
06/07/2013  10:30:00        5.856        9.269       31.716       26.772       23.095       19.418      716.733      533.368      377.045        0.138        0.081       10.963       18.037        2.707      348.729       28.639      862.531
06/07/2013  10:31:00        9.080        6.348       22.867       28.918       14.351       20.292      836.231      205.938      411.751        0.105        0.073       11.079       13.149        1.409      348.968       29.051      862.521
06/07/2013  10:32:00       65.076       40.515       19.157       73.380       36.537       33.465     5384.552     1334.923     1119.888        0.704        0.392       76.657       37.422        0.238      348.582       28.383      862.513
06/07/2013  10:33:00       14.641       -1.147       16.162       43.765       30.537       28.756     1915.378      932.498      826.906        0.208        0.184       14.686       25.553        3.027      349.183       29.425      862.506
06/07/2013  10:34:00       75.949       29.788        7.185       61.646       48.413       37.234     3800.236     2343.860     1386.349        0.712        0.377       81.582       13.178        0.026      348.445       28.146      862.492
06/07/2013  10:35:00       31.811       32.173       44.789       43.235       31.156       16.812     1869.300      970.682      282.639        0.359        0.156       45.245       16.189        0.128      348.834       28.820      862.491
06/07/2013  10:36:00        4.111        5.342       29.956       25.228       13.933       14.813      636.465      194.122      219.422        0.100        0.053        6.741       11.415        2.868      348.973       29.061      862.477
06/07/2013  10:37:00       28.845       29.390       15.989       38.282       38.478       30.533     1465.489     1480.533      932.234        0.291        0.194       41.180       15.432        0.140      348.732       28.643      862.479
06/07/2013  10:38:00       30.068       -5.881      -12.851       23.548       30.151       30.809      554.524      909.074      949.173        0.176        0.121       30.638       21.455        0.490      348.348       27.978      862.465
06/07/2013  10:39:00       20.912       11.441      -10.475       21.886       28.389       23.339      478.994      805.927      544.713        0.125        0.091       23.837       18.660        0.613      348.341       27.967      862.468
06/07/2013  10:40:00       53.219      -11.992       23.281       43.113       32.349       38.958     1858.709     1046.485     1517.739        0.397        0.221       54.553       18.438        0.114      348.312       27.917      862.456
06/07/2013  10:41:00       21.863      -18.874       17.602       44.261       33.169       26.351     1959.046     1100.215      694.353        0.245        0.188       28.883       20.605        0.509      348.741       28.661      862.456
06/07/2013  10:42:00       43.457        0.852       21.162       48.446       48.968       36.384     2347.014     2397.870     1323.784        0.420        0.303       43.465       33.876        0.607      348.439       28.137      862.452
06/07/2013  10:43:00       14.865      -37.081       22.833       25.935       50.458       31.124      672.608     2546.040      968.684        0.315        0.209       39.950       13.612        0.116      348.533       28.299      862.452
06/07/2013  10:44:00       48.023       -2.259       27.433       36.791       35.467       38.778     1353.561     1257.904     1503.761        0.359        0.206       48.077       32.281        0.451      348.365       28.008      862.453
06/07/2013  10:45:00       -2.255       -5.875        2.878       25.553       21.300       23.448      652.942      453.695      549.821        0.085        0.083        6.293       17.843        8.040      348.638       28.480      862.453
06/07/2013  10:46:00       24.840       68.936        0.197       31.553       40.034       32.675      995.596     1602.750     1067.637        0.452        0.183       73.275       31.103        0.180      348.779       28.727      862.441
06/07/2013  10:47:00       90.441       64.060       20.738       42.707       25.544       25.466     1823.876      652.496      648.520        0.792        0.156      110.829       10.749        0.009      348.486       28.217      862.423
06/07/2013  10:48:00       42.396       40.785       41.792       38.984       32.321       30.699     1519.734     1044.619      942.438        0.436        0.175       58.829       21.380        0.132      348.739       28.655      862.424
06/07/2013  10:49:00       74.867       57.523        3.878       37.894       42.529       38.016     1435.983     1808.756     1445.216        0.681        0.234       94.414       25.779        0.075      348.781       28.728      862.410
06/07/2013  10:50:00       13.480       36.474       10.281       39.165       25.376       29.081     1533.879      643.963      845.704        0.232        0.151       38.886       14.556        0.140      349.091       29.264      862.409
06/07/2013  10:51:00      -11.887       21.296       25.926       23.533       31.231       24.221      553.794      975.399      586.673        0.169        0.106       24.389       20.810        0.728      349.552       30.066      862.404
06/07/2013  10:52:00        0.817       19.812       23.993       37.260       22.027       27.056     1388.322      485.186      732.036        0.179        0.130       19.829       19.254        0.943      349.304       29.635      862.417
06/07/2013  10:53:00       38.821       32.957       18.512       20.819       20.984       23.784      433.413      440.319      565.675        0.219        0.072       50.924       14.274        0.079      348.810       28.779      862.416
06/07/2013  10:54:00       -8.678       32.924       33.512       36.006       20.713       20.157     1296.408      429.040      406.291        0.221        0.107       34.048        9.899        0.085      349.269       29.573      862.418
06/07/2013  10:55:00      -36.236       46.684        1.480       29.010       34.126       24.027      841.589     1164.606      577.309        0.304        0.129       59.096       17.488        0.088      349.084       29.253      862.403
06/07/2013  10:56:00      -74.546       24.270       -3.048       19.188       39.134       24.017      368.187     1531.473      576.816        0.432        0.124       78.397       12.893        0.027      348.680       28.553      862.406
06/07/2013  10:57:00      -41.326      -11.494       -2.224       27.295       14.930       14.717      745.004      222.911      216.578        0.151        0.059       42.894       13.207        0.095      348.815       28.788      862.392
06/07/2013  10:58:00       -7.468       -4.966        9.919       22.399       24.978       18.594      501.732      623.916      345.750        0.082        0.074        8.968       15.648        3.045      349.501       29.976      862.386
06/07/2013  10:59:00       -9.074        7.552       27.137       28.828       20.882       26.351      831.026      436.063      694.371        0.142        0.098       11.806       22.575        3.656      349.456       29.899      862.371
06/07/2013  11:00:00      -27.720       36.996       20.612       30.063       25.957       30.909      903.795      673.771      955.338        0.255        0.127       46.229       23.771        0.264      348.982       29.077      862.360
06/07/2013  11:01:00       47.398       12.029        6.501       26.779       25.335       26.100      717.130      641.841      681.217        0.224        0.102       48.900       16.304        0.111      348.943       29.009      862.339
06/07/2013  11:02:00       23.399       19.883       35.988       25.147       32.949       21.906      632.348     1085.650      479.888        0.222        0.110       30.706       15.636        0.259      349.165       29.393      862.328
06/07/2013  11:03:00       19.574       37.315       23.999       34.684       31.952       25.130     1203.007     1020.937      631.533        0.260        0.143       42.137       18.269        0.188      349.355       29.721      862.323
06/07/2013  11:04:00       31.318       -5.589       10.603       42.828       42.107       26.927     1834.202     1773.018      725.077        0.273        0.217       31.813       23.029        0.524      348.938       29.000      862.313
06/07/2013  11:05:00       29.728      -12.632       25.738       25.310       26.318       18.934      640.582      692.624      358.497        0.170        0.085       32.300       17.206        0.284      349.168       29.399      862.319
06/07/2013  11:06:00       49.925        1.686       34.904       56.432       40.492       32.139     3184.519     1639.576     1032.940        0.478        0.293       49.954       22.556        0.204      349.119       29.315      862.310
06/07/2013  11:07:00       26.537       -0.613       30.784       34.076       39.006       33.796     1161.206     1521.501     1142.137        0.274        0.191       26.544       33.882        1.629      349.612       30.169      862.304
06/07/2013  11:08:00       24.715       11.473       38.882       43.930       37.223       34.545     1929.880     1385.520     1193.384        0.338        0.225       27.248       29.461        1.169      349.288       29.606      862.290
06/07/2013  11:09:00       60.213       57.832       33.668       56.528       40.656       43.700     3195.459     1652.882     1909.681        0.743        0.338       83.488       33.219        0.158      349.202       29.457      862.279
06/07/2013  11:10:00        7.156       31.830       53.860       47.704       45.070       28.601     2275.633     2031.284      818.021        0.454        0.256       32.625       31.307        0.921      349.770       30.443      862.269
06/07/2013  11:11:00       21.319        9.699       37.889       53.809       57.723       31.582     2895.402     3331.893      997.406        0.460        0.361       23.422       25.145        1.153      349.444       29.877      862.262
06/07/2013  11:12:00       61.231        0.253       20.564       42.829       57.183       44.058     1834.350     3269.868     1941.115        0.561        0.352       61.232       43.171        0.497      349.174       29.408      862.258
06/07/2013  11:13:00       29.087      -20.322       41.531       45.166       58.933       47.554     2039.956     3473.061     2261.421        0.538        0.389       35.483       39.252        1.224      350.012       30.864      862.236
06/07/2013  11:14:00       46.581      -18.011       36.568       46.972       70.167       38.208     2206.339     4923.352     1459.870        0.621        0.429       49.942       36.848        0.544      349.638       30.214      862.239
06/07/2013  11:15:00       55.556        1.671       29.700       63.108       48.476       33.467     3982.612     2349.927     1120.034        0.571        0.373       55.581       36.120        0.422      349.733       30.378      862.239
06/07/2013  11:16:00       29.415       57.299       36.869       47.365       69.549       37.691     2243.431     4837.044     1420.638        0.700        0.425       64.408       32.424        0.253      349.952       30.758      862.228
06/07/2013  11:17:00       99.031       64.493        5.086       42.560       33.338       35.081     1811.379     1111.428     1230.667        0.907        0.208      118.180       16.998        0.021      349.357       29.727      862.212
06/07/2013  11:18:00        5.811      101.675        3.540       48.040       62.810       34.372     2307.849     3945.072     1181.461        0.891        0.372      101.841       35.597        0.122      349.554       30.068      862.210
06/07/2013  11:19:00      -18.080      105.302       14.722       33.900       56.579       40.592     1149.196     3201.203     1647.700        0.881        0.300      106.843       38.333        0.129      349.850       30.584      862.205
06/07/2013  11:20:00      -21.297      103.887       20.134       40.822       66.294       40.853     1666.426     4394.929     1668.934        0.969        0.387      106.048       40.292        0.144      349.740       30.392      862.200
06/07/2013  11:21:00      -14.031      107.724        8.990       31.984       59.453       37.191     1022.960     3534.695     1383.198        0.891        0.297      108.634       31.730        0.085      349.743       30.396      862.202
06/07/2013  11:22:00        5.243      115.708       -2.554       36.846       64.213       42.974     1357.601     4123.286     1846.763        1.037        0.366      115.826       44.219        0.146      349.694       30.310      862.204
06/07/2013  11:23:00        2.021       88.099       12.176       41.034       87.751       40.032     1683.776     7700.319     1602.572        0.945        0.549       88.122       43.456        0.243      349.907       30.681      862.216
06/07/2013  11:24:00      -39.192      109.790       -1.086       29.553       83.769       38.399      873.409     7017.217     1474.456        1.148        0.468      116.575       42.709        0.134      349.721       30.358      862.219
06/07/2013  11:25:00      -20.303      131.574       13.421       34.260       81.977       43.776     1173.771     6720.273     1916.362        1.386        0.491      133.131       45.517        0.117      349.816       30.523      862.216
06/07/2013  11:26:00      -13.060       19.880       37.979       32.437       28.074       19.892     1052.138      788.141      395.698        0.212        0.112       23.787       14.246        0.359      350.266       31.305      862.224
06/07/2013  11:27:00       34.177       18.840       24.874       39.276       26.369       26.318     1542.622      695.344      692.631        0.254        0.147       39.026       11.576        0.088      349.887       30.645      862.220
06/07/2013  11:28:00       34.701       -8.265       29.391       52.818       43.581       31.041     2789.694     1899.290      963.530        0.389        0.283       35.672       23.330        0.428      349.918       30.701      862.228
06/07/2013  11:29:00       42.991       31.254       40.714       44.807       71.937       40.090     2007.667     5174.976     1607.242        0.663        0.439       53.151       34.474        0.421      349.651       30.235      862.210
06/07/2013  11:30:00       40.314       54.871       28.225       53.456       43.654       35.688     2857.515     1905.660     1273.621        0.573        0.302       68.088       24.309        0.127      349.990       30.825      862.213
06/07/2013  11:31:00      126.707       74.111       14.165       46.865       41.681       34.612     2196.295     1737.311     1197.965        1.344        0.257      146.790       20.362        0.019      349.329       29.677      862.210
06/07/2013  11:32:00       86.387       17.848       17.069       53.072       63.518       30.962     2816.634     4034.586      958.665        0.794        0.390       88.211       29.197        0.110      349.514       29.998      862.217
06/07/2013  11:33:00      186.540      111.896       32.516       69.963       74.033       54.377     4894.852     5480.909     2956.863        3.085        0.667      217.527       34.719        0.025      349.181       29.417      862.210
06/07/2013  11:34:00      113.913      108.588       24.117       69.859       62.569       40.993     4880.240     3914.900     1680.464        1.791        0.524      157.377       42.687        0.074      349.308       29.639      862.212
06/07/2013  11:35:00       45.392       34.604       41.595       58.358       50.052       30.013     3405.653     2505.181      900.810        0.590        0.341       57.078       30.545        0.286      349.692       30.308      862.225
06/07/2013  11:36:00       43.562       38.732       27.608       36.226       37.418       20.570     1312.352     1400.142      423.126        0.365        0.157       58.291       14.064        0.058      349.472       29.924      862.214
06/07/2013  11:37:00       -2.914       26.462       60.337       21.273       35.126       28.044      452.526     1233.841      786.438        0.341        0.124       26.622       11.060        0.173      350.157       31.114      862.215
06/07/2013  11:38:00       23.941       12.569       33.035       41.612       30.112       26.612     1731.522      906.755      708.177        0.258        0.167       27.040       20.481        0.574      350.040       30.910      862.201
06/07/2013  11:39:00       23.406        3.831       -7.861       52.374       59.316       37.774     2743.032     3518.330     1426.854        0.415        0.384       23.717       25.444        1.151      349.477       29.935      862.199
06/07/2013  11:40:00       37.460       31.303       74.151       64.300       60.779       42.364     4134.494     3694.060     1794.687        0.875        0.481       48.817       35.231        0.521      349.314       29.652      862.177
06/07/2013  11:41:00       85.570      -73.978        1.213       39.009       46.486       35.953     1521.720     2160.993     1292.618        0.888        0.249      113.114       23.128        0.042      348.570       28.364      862.174
06/07/2013  11:42:00       18.683       -0.464       24.839       45.622       45.248       25.772     2081.394     2047.423      664.174        0.288        0.240       18.689       20.943        1.256      349.276       29.585      862.175
06/07/2013  11:43:00       17.055       -3.554       12.940       32.596       38.438       19.499     1062.509     1477.455      380.209        0.169        0.146       17.421        4.322        0.062      349.514       29.999      862.153
06/07/2013  11:44:00       25.505       29.875       51.761       59.623       61.590       36.540     3554.851     3793.369     1335.162        0.645        0.434       39.281       33.304        0.719      350.123       31.055      862.153
06/07/2013  11:45:00       16.724       25.223       55.268       46.190       61.669       34.995     2133.487     3803.101     1224.684        0.556        0.358       30.264       23.950        0.626      349.746       30.401      862.134
06/07/2013  11:46:00       26.847      -14.266       41.186       36.658       31.236       20.654     1343.776      975.688      426.607        0.268        0.137       30.402       12.661        0.173      349.989       30.823      862.141
06/07/2013  11:47:00       36.309       -0.724       16.865       46.134       28.770       35.543     2128.352      827.692     1263.282        0.291        0.211       36.316       27.627        0.579      349.792       30.481      862.130
06/07/2013  11:48:00       43.026       -6.521       32.060       29.297       49.037       43.624      858.287     2404.627     1903.091        0.404        0.258       43.517       33.142        0.580      349.415       29.827      862.109
06/07/2013  11:49:00       30.675       25.290       72.852       48.989       80.532       49.521     2399.935     6485.341     2452.356        0.911        0.567       39.756       53.445        1.807      349.646       30.228      862.097
06/07/2013  11:50:00       27.833       -8.825       66.276       58.700       81.482       43.080     3445.677     6639.276     1855.857        0.859        0.597       29.198       45.370        2.415      349.693       30.310      862.083
06/07/2013  11:51:00      -17.214       33.252       52.734       24.931       42.348       31.351      621.542     1793.326      982.860        0.379        0.170       37.443       23.598        0.397      349.911       30.689      862.076
06/07/2013  11:52:00      -28.261       -2.390       18.846       30.848       30.740       26.361      951.620      944.977      694.907        0.188        0.130       28.362       20.283        0.511      350.205       31.198      862.070
06/07/2013  11:53:00      -55.803      -22.120       17.308       70.296       40.534       36.702     4941.481     1643.030     1347.010        0.592        0.397       60.027       39.048        0.423      350.191       31.174      862.054
06/07/2013  11:54:00      -19.244       -8.062       13.089       32.409       38.113       26.682     1050.354     1452.602      711.947        0.191        0.161       20.865       15.965        0.586      350.232       31.246      862.048
06/07/2013  11:55:00      -33.242      -45.143       17.648       47.784       49.335       28.257     2283.348     2433.951      798.486        0.448        0.276       56.062       25.048        0.200      349.803       30.499      862.052
06/07/2013  11:56:00      -42.329        3.601       17.665       35.047       24.882       25.426     1228.265      619.115      646.488        0.230        0.125       42.482       25.443        0.359      350.192       31.175      862.050
06/07/2013  11:57:00      -39.427       36.429       14.506       28.883       38.958       29.074      834.227     1517.693      845.300        0.314        0.160       53.680       22.869        0.181      350.159       31.118      862.049
06/07/2013  11:58:00      -25.636      124.351       -5.387       23.353       35.869       34.710      545.343     1286.575     1204.757        0.959        0.152      126.966       18.898        0.022      350.095       31.008      862.049
06/07/2013  11:59:00      -18.717       70.692        4.278       26.029       49.409       30.513      677.535     2441.268      931.059        0.471        0.202       73.128       28.569        0.153      350.173       31.143      862.040
06/07/2013  12:00:00      -46.289       24.275        5.070       33.387       26.353       22.782     1114.696      694.486      519.006        0.254        0.116       52.268       20.075        0.148      350.117       31.046      862.038
06/07/2013  12:01:00      -60.191       30.246      -14.617       21.524       17.990       17.096      463.285      323.641      292.272        0.292        0.054       67.364       12.601        0.035      349.630       30.200      862.031
06/07/2013  12:02:00      -38.526       28.730        9.211       19.453       34.252       23.047      378.404     1173.166      531.166        0.224        0.104       48.060       16.048        0.112      350.022       30.881      862.019
06/07/2013  12:03:00        5.532       35.415        7.865       35.743       42.224       26.433     1277.544     1782.860      698.690        0.255        0.188       35.845       22.097        0.380      350.656       31.983      862.018
06/07/2013  12:04:00       43.963       -7.387       -0.870       30.454       30.592       24.836      927.429      935.849      616.816        0.223        0.124       44.580       14.467        0.105      349.957       30.766      861.998
06/07/2013  12:05:00       59.622      -35.403       38.416       38.695       34.794       32.554     1497.321     1210.655     1059.741        0.503        0.188       69.341       23.291        0.113      349.748       30.405      861.980
06/07/2013  12:06:00       19.217      -28.271       33.588       27.886       39.536       27.560      777.623     1563.073      759.534        0.270        0.155       34.184       20.731        0.368      349.884       30.641      861.975
06/07/2013  12:07:00      -25.462      -11.598        7.121       47.665       24.435       22.617     2271.935      597.071      511.517        0.211        0.169       27.979       12.857        0.211      349.842       30.566      861.965
06/07/2013  12:08:00      -63.643      -27.554       32.918       62.893       60.811       35.547     3955.579     3698.038     1263.583        0.740        0.446       69.351       34.646        0.250      350.049       30.926      861.957
06/07/2013  12:09:00       40.345       12.478       30.642       32.788       17.414       23.246     1075.067      303.256      540.370        0.232        0.096       42.231       21.336        0.255      350.122       31.055      861.937
06/07/2013  12:10:00      -31.463        1.421       20.904       35.730       32.644       27.067     1276.626     1065.629      732.612        0.225        0.154       31.495       24.430        0.602      350.418       31.568      861.931
06/07/2013  12:11:00      -17.681       67.420       12.352       41.022       60.145       32.689     1682.837     3617.418     1068.586        0.569        0.318       69.700       26.219        0.142      350.537       31.775      861.914
06/07/2013  12:12:00     -105.281      155.225      -13.842       60.233       63.988       42.335     3627.963     4094.473     1792.228        2.244        0.476      187.560       47.763        0.065      349.996       30.832      861.907
06/07/2013  12:13:00      -34.615       63.961      -25.855       54.983       66.055       20.608     3023.106     4363.275      424.703        0.688        0.391       72.727       17.300        0.057      349.946       30.747      861.910
06/07/2013  12:14:00       35.650       33.078       11.822       57.661       38.295       29.467     3324.843     1466.519      868.293        0.408        0.283       48.632       29.460        0.367      350.210       31.206      861.877
06/07/2013  12:15:00      -80.393      -26.608        8.163       45.808       41.616       19.580     2098.390     1731.869      383.361        0.572        0.211       84.682       27.310        0.104      350.148       31.100      861.868
06/07/2013  12:16:00       -6.585      -63.339       -5.708       43.565       42.059       28.817     1897.883     1768.957      830.422        0.429        0.225       63.681       17.574        0.076      349.566       30.089      861.842
06/07/2013  12:17:00     -103.604      -37.712        7.666       70.966       62.291       37.696     5036.189     3880.165     1420.965        1.127        0.517      110.254       31.285        0.081      350.165       31.127      861.838
06/07/2013  12:18:00      -55.068      -21.962       12.956       48.104       46.426       28.793     2313.958     2155.384      829.016        0.449        0.265       59.286       28.025        0.223      350.299       31.363      861.820
06/07/2013  12:19:00      -17.855       47.261       24.715       56.042       37.664       29.789     3140.730     1418.572      887.383        0.430        0.272       50.521       25.823        0.261      350.861       32.338      861.814
06/07/2013  12:20:00     -119.249       81.628      -10.681       55.145       49.610       39.808     3040.920     2461.106     1584.670        1.404        0.354      144.511       35.951        0.062      350.042       30.914      861.800
06/07/2013  12:21:00      -69.238       95.163        5.321       38.406       50.420       41.692     1475.035     2542.188     1738.252        0.982        0.288      117.686       31.475        0.072      350.253       31.281      861.795
06/07/2013  12:22:00      -54.983       15.553       -4.875       17.782       29.901       24.094      316.196      894.042      580.518        0.254        0.090       57.141       19.781        0.120      349.830       30.546      861.776
06/07/2013  12:23:00      -18.414      -92.554        1.064       26.361       26.508       21.313      694.898      702.692      454.224        0.538        0.093       94.368       11.161        0.014      349.788       30.473      861.765
06/07/2013  12:24:00      -24.483      -74.271      -15.854       19.114       29.632       18.497      365.331      878.040      342.126        0.398        0.079       78.202       16.006        0.042      349.775       30.451      861.740
06/07/2013  12:25:00      -30.902      -90.716       -9.489       34.310       19.393       18.796     1177.170      376.093      353.301        0.559        0.095       95.834        9.644        0.010      349.744       30.397      861.718
06/07/2013  12:26:00     -175.589        5.657      -19.025       64.016       51.653       27.033     4098.034     2668.035      730.787        1.936        0.375      175.681       33.009        0.035      349.898       30.663      861.688
06/07/2013  12:27:00     -105.915       -2.180        0.927       44.255       44.351       26.900     1958.540     1966.995      723.620        0.794        0.232      105.937       25.756        0.059      350.220       31.222      861.663
06/07/2013  12:28:00      -42.901        6.776       24.849       42.950       22.823       28.242     1844.702      520.896      797.603        0.283        0.158       43.433       28.864        0.442      351.129       32.807      861.662
06/07/2013  12:29:00      -47.186        2.889        3.025       25.740       25.552       19.675      662.565      652.897      387.108        0.197        0.085       47.274       14.939        0.100      350.466       31.652      861.665
06/07/2013  12:30:00       24.526       76.605        5.456       29.272       70.639       23.874      856.830     4989.856      569.976        0.646        0.321       80.436       13.645        0.029      350.440       31.607      861.661
06/07/2013  12:31:00       49.219       51.334       -6.343       35.221       42.993       38.075     1240.544     1848.371     1449.721        0.482        0.227       71.118       29.625        0.174      350.434       31.596      861.673
06/07/2013  12:32:00       58.032       17.332        5.482       32.447       24.841       24.180     1052.831      617.084      584.668        0.298        0.113       60.565        4.596        0.006      350.388       31.516      861.664
06/07/2013  12:33:00      -11.013       -4.199       -2.247       25.918       18.954       20.115      671.735      359.247      404.628        0.079        0.072       11.787       11.444        0.943      350.731       32.114      861.667
06/07/2013  12:34:00      -10.346       -2.382       24.365       44.868       46.411       30.474     2013.143     2153.994      928.643        0.290        0.255       10.617       24.960        5.527      351.017       32.612      861.651
06/07/2013  12:35:00      -53.897      -67.447        2.277       65.738       52.909       33.136     4321.509     2799.334     1097.994        0.784        0.411       86.336       24.490        0.080      350.541       31.781      861.645
06/07/2013  12:36:00      -63.438      -65.616       -9.512       60.097       47.208       36.466     3611.599     2228.615     1329.777        0.779        0.358       91.268       32.147        0.124      350.368       31.480      861.630
06/07/2013  12:37:00      -60.224       -4.242        2.412       53.537       42.702       39.248     2866.164     1823.430     1540.385        0.494        0.311       60.373       26.151        0.188      350.576       31.843      861.619
06/07/2013  12:38:00       27.548        6.288       -4.859       36.793       48.318       32.742     1353.757     2334.631     1072.024        0.279        0.238       28.257       14.252        0.254      350.261       31.297      861.607
06/07/2013  12:39:00       18.080        8.067       32.679       47.334       63.427       40.185     2240.475     4022.951     1614.846        0.467        0.394       19.798       26.147        1.744      350.520       31.746      861.582
06/07/2013  12:40:00      -17.522       10.158       27.429       32.266       26.169       23.865     1041.119      684.842      569.527        0.173        0.115       20.254       16.873        0.694      351.034       32.642      861.578
06/07/2013  12:41:00        8.333       16.050       29.071       27.329       21.497       21.655      746.890      462.118      468.938        0.142        0.084       18.084        7.364        0.166      350.648       31.968      861.577
06/07/2013  12:42:00       43.556      -26.963       15.732       34.835       37.191       29.072     1213.456     1383.148      845.178        0.316        0.172       51.226       25.288        0.244      350.201       31.193      861.570
06/07/2013  12:43:00       -4.102      100.535       -6.053       39.060       81.796       37.765     1525.660     6690.661     1426.182        0.990        0.482      100.618       45.545        0.205      350.373       31.490      861.567
06/07/2013  12:44:00      -18.548      119.564      -17.102       72.023       76.017       31.778     5187.298     5778.555     1009.852        1.345        0.599      120.994       13.804        0.013      350.603       31.891      861.546
06/07/2013  12:45:00       40.702       40.760       17.941       43.541       59.223       35.641     1895.826     3507.422     1270.316        0.516        0.334       57.602       10.129        0.031      350.683       32.030      861.538
06/07/2013  12:46:00       15.868       28.718       23.484       29.077       30.295       26.829      845.461      917.791      719.774        0.205        0.124       32.810       17.919        0.298      351.014       32.606      861.525
06/07/2013  12:47:00        0.510       15.150       18.969       30.715       24.006       22.308      943.423      576.283      497.635        0.130        0.101       15.158       14.364        0.898      350.840       32.303      861.519
06/07/2013  12:48:00        0.077       66.931        7.839       46.857       56.196       42.275     2195.566     3157.975     1787.150        0.584        0.357       66.931       32.387        0.234      350.729       32.111      861.500
06/07/2013  12:49:00      -25.055       54.762       19.781       62.112       80.784       37.946     3857.860     6526.132     1439.894        0.792        0.591       60.222       22.532        0.140      351.302       33.107      861.501
06/07/2013  12:50:00       40.192       29.943        4.073       43.903       47.613       32.512     1927.439     2266.959     1057.036        0.389        0.263       50.120       13.303        0.070      351.110       32.773      861.491
06/07/2013  12:51:00       17.713       60.700        6.738       54.059       49.248       29.057     2922.399     2425.378      844.337        0.512        0.310       63.232       33.005        0.272      350.808       32.248      861.500
06/07/2013  12:52:00      -13.816      136.064      -10.262       51.779      115.570       44.040     2681.041    13356.353     1939.496        1.839        0.899      136.763       56.076        0.168      350.856       32.330      861.502
06/07/2013  12:53:00     -102.842      214.972      -14.545       54.768       85.775       44.527     2999.536     7357.305     1982.636        3.467        0.617      238.305       42.152        0.031      350.674       32.010      861.508
06/07/2013  12:54:00      -49.284      104.354       -8.383       61.884       86.116       39.826     3829.664     7416.021     1586.142        1.311        0.642      115.407       52.025        0.203      350.874       32.362      861.501
06/07/2013  12:55:00       62.807       46.072        3.602       40.333       38.006       31.772     1626.791     1444.494     1009.457        0.508        0.204       77.893       22.156        0.081      350.613       31.907      861.464
06/07/2013  12:56:00     -120.253      133.693      -33.074       66.393       90.084       25.025     4408.056     8115.149      626.259        2.329        0.657      179.818       30.104        0.028      350.647       31.964      861.462
06/07/2013  12:57:00      -20.256       48.001       17.301       37.283       46.164       35.393     1390.009     2131.071     1252.641        0.389        0.239       52.100       34.000        0.426      351.484       33.425      861.458
06/07/2013  12:58:00      -68.519       59.875       -5.523       47.641       40.209       37.553     2269.659     1616.743     1410.228        0.680        0.265       90.994       23.683        0.068      351.101       32.757      861.443
06/07/2013  12:59:00      -48.237      145.998       -6.527       39.081       84.075       35.015     1527.352     7068.524     1226.028        1.675        0.491      153.761       35.911        0.055      350.820       32.266      861.416
06/07/2013  13:00:00      -26.661      105.491       -2.833       51.520       93.128       35.385     2654.326     8672.875     1252.130        1.221        0.629      108.808       29.824        0.075      350.824       32.275      861.399
06/07/2013  13:01:00       -6.888       20.628        4.333       44.595       33.989       32.768     1988.670     1155.253     1073.739        0.235        0.211       21.748       28.454        1.712      351.021       32.618      861.356
06/07/2013  13:02:00       41.865       92.837       -4.566       69.574       79.972       42.405     4840.608     6395.503     1798.144        1.171        0.652      101.840       49.254        0.234      351.059       32.683      861.346
06/07/2013  13:03:00       22.380       49.899       13.286       74.708       83.437       44.134     5581.264     6961.745     1947.811        0.883        0.725       54.688       38.247        0.489      351.100       32.756      861.326
06/07/2013  13:04:00       32.833      164.497      -23.043       54.042       71.092       33.754     2920.526     5054.133     1139.338        1.889        0.456      167.741       34.342        0.042      350.655       31.979      861.331
06/07/2013  13:05:00       86.844       66.690        5.322       76.424       51.296       49.221     5840.658     2631.248     2422.707        1.145        0.545      109.496       33.056        0.091      350.670       32.007      861.325
06/07/2013  13:06:00       98.274       87.031        6.306       66.817       46.513       41.155     4464.541     2163.486     1693.756        1.280        0.416      131.271       24.943        0.036      350.871       32.356      861.309
06/07/2013  13:07:00       65.802       93.651        6.920       71.507       74.933       52.794     5113.297     5614.923     2787.243        1.333        0.676      114.457       36.730        0.103      351.039       32.648      861.299
06/07/2013  13:08:00      218.813      108.211       37.554       87.734       57.823       55.011     7697.243     3343.444     3026.255        3.753        0.703      244.108       42.498        0.030      350.689       32.036      861.276
06/07/2013  13:09:00      145.517       91.667       35.310       71.252       52.121       59.150     5076.906     2716.552     3498.730        2.106        0.565      171.982       43.912        0.065      350.317       31.390      861.283
06/07/2013  13:10:00      163.728      116.140       83.906      127.854       71.485       65.504    16346.624     5110.157     4290.795        3.654        1.287      200.737       65.122        0.105      350.507       31.720      861.247
06/07/2013  13:11:00      171.874       71.145       31.515      131.788       93.982       53.373    17368.071     8832.586     2848.632        3.232        1.452      186.017       29.557        0.025      350.646       31.962      861.240
06/07/2013  13:12:00      113.161       71.702       53.212       96.748       79.605       58.535     9360.192     6336.938     3426.309        1.995        0.956      133.965       44.389        0.110      350.850       32.318      861.211
06/07/2013  13:13:00      122.821       80.913       48.381      110.576       62.184       52.156    12227.153     3866.821     2720.281        2.139        0.941      147.078       56.980        0.150      350.655       31.977      861.200
06/07/2013  13:14:00      104.286       40.293       54.277      113.768       65.129       51.742    12943.149     4241.724     2677.281        1.765        0.993      111.799       49.796        0.198      350.998       32.577      861.189
06/07/2013  13:15:00      144.603       96.470       16.221       71.479       64.123       53.297     5109.227     4111.714     2840.554        2.127        0.603      173.829       40.244        0.054      350.729       32.107      861.164
06/07/2013  13:16:00       35.371      191.438      -17.541       83.598      115.680       64.536     6988.577    13381.765     4164.941        3.137        1.227      194.678       56.506        0.084      350.794       32.220      861.147
06/07/2013  13:17:00      -16.175       71.515        5.407       31.988       51.214       36.747     1023.210     2622.919     1350.346        0.520        0.250       73.322       30.344        0.171      350.987       32.560      861.131
06/07/2013  13:18:00       23.523       32.717       59.797       55.162       41.560       49.233     3042.856     1727.230     2423.936        0.620        0.360       40.296       27.627        0.470      350.878       32.368      861.094
06/07/2013  13:19:00       52.385      -15.977       19.285       52.593       38.147       38.809     2766.056     1455.182     1506.128        0.455        0.286       54.767       29.756        0.295      349.970       30.791      861.077
06/07/2013  13:20:00      136.331       65.509       42.879      110.750       76.919       53.886    12265.669     5916.465     2903.721        2.290        1.054      151.253       45.049        0.089      350.699       32.056      861.066
06/07/2013  13:21:00       75.269      237.800       -8.968      133.329      164.412       55.338    17776.566    27031.314     3062.349        5.507        2.394      249.428       74.232        0.089      350.903       32.410      861.044
06/07/2013  13:22:00       68.234      234.034      -36.734       75.623      128.609       53.348     5718.878    16540.255     2846.017        4.294        1.255      243.778       59.143        0.059      351.082       32.722      861.025
06/07/2013  13:23:00      171.411      129.327       24.098       96.241       66.484       59.178     9262.399     4420.065     3502.082        3.193        0.859      214.726       33.183        0.024      350.917       32.434      861.002
06/07/2013  13:24:00      214.064      126.516       32.573       98.151       60.313       67.537     9633.601     3637.617     4561.303        4.036        0.892      248.656       45.077        0.033      351.127       32.798      860.984
06/07/2013  13:25:00      252.165      141.429       62.070       96.872       65.983       60.488     9384.275     4353.781     3658.845        5.242        0.870      289.118       36.067        0.016      350.888       32.382      860.955
06/07/2013  13:26:00      203.681      131.909       24.412       83.893       73.577       66.253     7038.039     5413.590     4389.429        3.816        0.842      242.665       43.807        0.033      350.984       32.550      860.948
06/07/2013  13:27:00      208.880      143.088       47.586       83.737       72.421       69.190     7011.814     5244.850     4787.295        4.170        0.852      253.190       45.940        0.033      350.794       32.220      860.924
06/07/2013  13:28:00      217.656      157.840       34.760       90.124       66.906       64.757     8122.341     4476.445     4193.490        4.514        0.840      268.864       40.682        0.023      351.058       32.677      860.912
06/07/2013  13:29:00      192.130      118.943       35.921      127.654       94.486       77.230    16295.488     8927.607     5964.522        4.176        1.559      225.968       67.666        0.090      351.293       33.089      860.868
06/07/2013  13:30:00      147.789      160.969        8.524      127.310      105.972       62.425    16207.881    11230.156     3896.899        3.957        1.567      218.524       53.653        0.060      351.455       33.369      860.869
06/07/2013  13:31:00       69.645      201.857      -21.423       65.344      107.711       57.945     4269.820    11601.670     3357.600        3.264        0.961      213.533       61.762        0.084      351.328       33.150      860.880
06/07/2013  13:32:00      -71.557      218.551      -28.555       73.958       99.243       46.776     5469.746     9849.122     2188.038        3.560        0.875      229.967       41.173        0.032      351.003       32.584      860.910
06/07/2013  13:33:00      -71.554      265.368      -29.618       41.195       64.266       35.692     1697.015     4130.136     1273.899        4.176        0.355      274.846       33.386        0.015      350.837       32.292      860.920
06/07/2013  13:34:00        2.222      153.757       -0.669       63.238      115.046       44.521     3998.982    13235.604     1982.160        2.143        0.961      153.773       61.245        0.159      351.063       32.688      860.905
06/07/2013  13:35:00      127.853       65.266        9.536       45.367       50.003       38.458     2058.131     2500.311     1479.027        1.337        0.302      143.548       20.313        0.020      350.640       31.953      860.870
06/07/2013  13:36:00      141.843      124.459        5.064      121.120       91.455       55.502    14670.106     8364.076     3080.417        3.087        1.306      188.705       39.393        0.044      350.986       32.554      860.827
06/07/2013  13:37:00      107.070      122.844        1.807       97.999       74.507       60.017     9603.709     5551.221     3602.042        2.265        0.938      162.956       46.098        0.080      351.307       33.114      860.817
06/07/2013  13:38:00      256.840      235.785       18.849      169.790      120.192      100.599    28828.581    14446.177    10120.244        8.764        2.670      348.656       68.988        0.039      351.025       32.619      860.797
06/07/2013  13:39:00      159.292      123.556       -7.646      140.514      114.778       57.585    19744.112    13174.061     3316.012        3.846        1.812      201.594       29.858        0.022      351.283       33.073      860.786
06/07/2013  13:40:00       57.003       93.867       26.146      108.164       72.744       54.874    11699.472     5291.729     3011.105        1.637        1.000      109.820       36.375        0.110      351.481       33.419      860.819
06/07/2013  13:41:00      -68.653      303.204      -42.556       79.024      124.951       48.098     6244.862    15612.686     2313.389        6.131        1.209      310.879       47.181        0.023      351.092       32.736      860.844
06/07/2013  13:42:00      -12.893      301.747      -21.514      155.394      189.558       68.708    24147.291    35932.309     4720.832        7.823        3.240      302.022       89.995        0.089      351.197       32.922      860.837
06/07/2013  13:43:00       60.189       91.434       -2.528       82.173       73.719       53.132     6752.385     5434.548     2822.977        1.350        0.750      109.466       32.168        0.086      351.284       33.075      860.820
06/07/2013  13:44:00       51.892       83.022       -5.332      119.987       73.955       49.134    14396.816     5469.398     2414.142        1.594        1.114       97.906       40.984        0.175      351.212       32.949      860.804
06/07/2013  13:45:00       44.723      151.581      -30.372       76.450      119.224       49.270     5844.666    14214.292     2427.496        2.419        1.124      158.041       54.030        0.117      351.288       33.081      860.787
06/07/2013  13:46:00       79.495      212.267      -10.380       81.210      105.560       75.905     6595.020    11142.991     5761.614        3.749        1.175      226.664       62.309        0.076      351.076       32.711      860.755
06/07/2013  13:47:00      117.610      229.130      -12.715      107.074      150.340       91.488    11464.828    22602.072     8370.029        5.446        2.122      257.551       89.650        0.121      351.148       32.836      860.716
06/07/2013  13:48:00      114.495      191.895        7.061       98.744      111.982       91.556     9750.292    12540.040     8382.430        4.032        1.534      223.457       75.951        0.116      351.199       32.925      860.718
06/07/2013  13:49:00      106.198      205.760       -1.219      104.590      139.006       83.586    10939.054    19322.719     6986.575        4.543        1.862      231.550       79.455        0.118      351.254       33.020      860.700
06/07/2013  13:50:00      150.752      110.015        9.518      120.209       56.822       63.372    14450.129     3228.772     4016.015        2.830        1.085      186.627       32.860        0.031      351.351       33.192      860.698
06/07/2013  13:51:00      102.675       77.738       25.229       84.526       68.010       64.061     7144.710     4625.403     4103.822        1.654        0.794      128.784       44.785        0.121      351.555       33.547      860.698
06/07/2013  13:52:00       13.810       99.864       20.745       86.522       89.247       47.519     7486.050     7965.100     2258.046        1.415        0.885      100.815       50.071        0.247      351.948       34.236      860.696
06/07/2013  13:53:00       54.475      141.679       10.552      125.128      100.727       70.302    15657.024    10146.020     4942.364        2.694        1.537      151.791       65.225        0.185      351.479       33.414      860.722
06/07/2013  13:54:00        9.361       94.913        3.536       74.847       78.326       58.604     5602.041     6134.970     3434.385        1.214        0.759       95.373       50.018        0.275      351.740       33.871      860.719
06/07/2013  13:55:00       28.135      162.583       -1.014       90.409      129.470       58.878     8173.826    16762.417     3466.603        2.781        1.420      164.999       69.996        0.180      351.575       33.583      860.708
06/07/2013  13:56:00       64.557      204.731        1.450       89.417      102.083       69.893     7995.340    10420.916     4884.974        3.469        1.165      214.668       68.660        0.102      351.466       33.393      860.684
06/07/2013  13:57:00      -76.148      302.560      -33.543       60.282      101.008       42.986     3633.900    10202.527     1847.776        5.707        0.784      311.995       43.754        0.020      351.113       32.774      860.682
06/07/2013  13:58:00       16.146      266.576      -25.432       71.933       83.148       47.078     5174.387     6913.522     2216.294        4.313        0.715      267.064       45.286        0.029      351.271       33.052      860.667
06/07/2013  13:59:00       82.451      196.484      -27.050       63.648      137.116       49.631     4051.060    18800.756     2463.189        3.572        1.266      213.083       45.106        0.045      351.139       32.822      860.678
06/07/2013  14:00:00       98.944      111.662       11.859       74.456       81.395       58.142     5543.722     6625.120     3380.545        1.897        0.777      149.193       50.492        0.115      351.347       33.185      860.651
06/07/2013  14:01:00       18.416      -23.717       17.349       47.456       42.020       28.868     2252.109     1765.659      833.357        0.303        0.243       30.027       22.399        0.556      351.018       32.612      860.637
06/07/2013  14:02:00       25.342       30.596      -17.281       39.400       27.689       22.583     1552.365      766.653      509.989        0.235        0.141       39.728       14.893        0.141      350.321       31.399      860.647
06/07/2013  14:03:00       34.303      -12.087        4.949       32.241       45.567       25.532     1039.493     2076.370      651.905        0.256        0.188       36.371       14.517        0.159      350.535       31.772      860.658
06/07/2013  14:04:00        8.601        0.816        3.848       23.215       35.867       21.586      538.952     1286.423      465.934        0.119        0.115        8.640       13.478        2.434      351.234       32.989      860.650
06/07/2013  14:05:00       42.428       16.387       18.230       29.511       32.984       24.346      870.870     1087.932      592.728        0.248        0.128       45.483       16.519        0.132      351.028       32.629      860.652
06/07/2013  14:06:00       -4.399      -13.451        9.204       45.856       54.740       32.675     2102.791     2996.424     1067.647        0.322        0.308       14.152       20.751        2.150      351.547       33.534      860.687
06/07/2013  14:07:00       27.288      -48.641       49.442      100.167       92.846       77.848    10033.378     8620.361     6060.240        1.513        1.236       55.772       69.022        1.532      351.554       33.546      860.656
06/07/2013  14:08:00        0.057      -21.103       36.105       58.397       37.005       28.771     3410.265     1369.380      827.796        0.368        0.280       21.104       31.135        2.177      351.860       34.081      860.646
06/07/2013  14:09:00       39.594     -131.934       -1.647      100.948       79.253       49.228    10190.596     6281.091     2423.433        1.893        0.945      137.747       35.807        0.068      351.466       33.392      860.636
06/07/2013  14:10:00      -65.496     -184.333      -15.029      127.180       77.660       50.402    16174.845     6031.108     2540.370        3.162        1.237      195.623       44.112        0.051      351.327       33.148      860.643
06/07/2013  14:11:00     -149.873     -103.251      -10.061      112.609       81.177       42.637    12680.899     6589.647     1817.929        2.715        1.054      181.996       51.242        0.079      351.268       33.045      860.626
06/07/2013  14:12:00        6.748       20.315       33.347       50.801       53.053       33.733     2580.764     2814.577     1137.909        0.405        0.327       21.407       29.663        1.920      351.772       33.928      860.601
06/07/2013  14:13:00      -12.353      -40.030       11.237       48.683       77.664       41.886     2370.077     6031.669     1754.452        0.602        0.508       41.893       36.716        0.768      351.516       33.480      860.581
06/07/2013  14:14:00       49.386      -56.729       19.464       58.811       78.578       42.873     3458.720     6174.546     1838.059        0.875        0.574       75.215       40.876        0.295      351.314       33.128      860.568
06/07/2013  14:15:00       11.667      -30.390       31.157       39.989       63.095       45.268     1599.084     3980.925     2049.216        0.483        0.381       32.553       32.705        1.009      351.692       33.789      860.553
06/07/2013  14:16:00        0.678        5.848       51.949       49.221       98.188       60.907     2422.746     9640.944     3709.671        0.925        0.789        5.888       64.937      121.647      350.859       32.336      860.535
06/07/2013  14:17:00       28.963      -40.148       41.743       55.285      101.740       53.975     3056.421    10351.078     2913.301        1.025        0.816       49.505       57.278        1.339      351.425       33.321      860.529
06/07/2013  14:18:00       23.028     -115.971       11.843       57.847      108.016       55.571     3346.307    11667.384     3088.099        1.611        0.905      118.235       64.658        0.299      351.459       33.381      860.525
06/07/2013  14:19:00       55.574       -0.395       46.712       45.799       58.152       52.105     2097.510     3381.671     2714.972        0.673        0.410       55.575       46.189        0.691      350.585       31.858      860.492
06/07/2013  14:20:00       49.220       -5.150       16.311       36.974       30.828       25.816     1367.093      950.373      666.469        0.285        0.149       49.489       13.408        0.073      351.271       33.053      860.478
06/07/2013  14:21:00       88.536     -135.471       -6.060       97.367      101.415       71.678     9480.285    10284.955     5137.718        2.556        1.245      161.836       60.983        0.142      351.284       33.075      860.468
06/07/2013  14:22:00       -6.443      -48.310       -5.251       65.762       44.605       38.010     4324.635     1989.586     1444.769        0.508        0.388       48.738       38.434        0.622      351.193       32.917      860.467
06/07/2013  14:23:00       -0.295       13.153       51.793       51.417       50.588       43.811     2643.700     2559.116     1919.386        0.499        0.356       13.156       24.687        3.521      351.493       33.440      860.427
06/07/2013  14:24:00      120.834      -22.050       53.008      106.972       74.998       62.323    11442.987     5624.757     3884.101        1.942        1.048      122.829       61.781        0.253      351.290       33.085      860.388
06/07/2013  14:25:00     -156.540     -119.305       -5.032      160.058       95.398       55.444    25618.553     9100.736     3074.009        3.827        1.890      196.821       43.278        0.048      351.477       33.410      860.417
06/07/2013  14:26:00       57.684     -237.700      -21.962       98.338       86.046       50.961     9670.342     7403.829     2597.012        3.999        0.984      244.599       29.415        0.014      351.274       33.055      860.425
06/07/2013  14:27:00       12.712      -46.113       49.616       55.717      103.551       50.032     3104.399    10722.828     2503.233        1.054        0.817       47.833       46.753        0.955      351.476       33.411      860.377
06/07/2013  14:28:00      -26.263      -67.417        5.864       74.330       78.035       50.689     5524.886     6089.532     2569.411        0.972        0.709       72.352       57.756        0.637      351.944       34.227      860.351
06/07/2013  14:29:00      -13.318       10.949       34.864       38.356       48.950       38.712     1471.197     2396.143     1498.620        0.344        0.268       17.241       25.172        2.132      352.065       34.438      860.329
06/07/2013  14:30:00      111.484     -109.598       28.536      138.013      187.838      117.633    19047.501    35283.132    13837.513        4.670        3.408      156.334      129.958        0.691      351.543       33.525      860.274
06/07/2013  14:31:00       91.916     -156.777        5.601      115.888       89.759       70.241    13429.980     8056.593     4933.784        2.973        1.321      181.734       61.528        0.115      351.514       33.474      860.271
06/07/2013  14:32:00       21.782     -114.330      -36.833       56.934       47.384       31.920     3241.526     2245.212     1018.874        1.070        0.325      116.386       16.979        0.021      351.743       33.877      860.285
06/07/2013  14:33:00       13.976     -107.830       -8.728       62.644       56.034       43.764     3924.330     3139.843     1915.286        1.044        0.449      108.732       26.030        0.057      351.652       33.717      860.276
06/07/2013  14:34:00       62.350     -106.807       13.506       47.991       68.568       40.221     2303.144     4701.587     1617.738        1.205        0.431      123.674       33.012        0.071      351.569       33.573      860.264
06/07/2013  14:35:00      -43.600     -113.454       -9.694       75.484       51.835       33.299     5697.772     2686.916     1108.808        1.218        0.475      121.543       21.560        0.031      351.678       33.763      860.268
06/07/2013  14:36:00       -9.461      -34.103        1.355       80.824       36.598       31.335     6532.499     1339.415      981.898        0.505        0.443       35.391       28.781        0.661      351.389       33.259      860.260
06/07/2013  14:37:00       51.807      -54.252       14.894       44.832       43.955       31.648     2009.865     1932.071     1001.606        0.540        0.247       75.015       27.550        0.135      351.481       33.421      860.255
06/07/2013  14:38:00       24.536        0.383       17.806       30.888       51.534       40.056      954.060     2655.773     1604.521        0.307        0.261       24.539       37.756        2.367      351.380       33.243      860.237
06/07/2013  14:39:00       12.118       -6.439       15.244       36.790       51.423       40.622     1353.494     2644.285     1650.133        0.303        0.282       13.723       36.485        7.069      351.643       33.703      860.223
06/07/2013  14:40:00       60.942       49.954       46.340       53.665       51.736       38.057     2879.953     2676.581     1448.322        0.768        0.350       78.800       24.586        0.097      351.550       33.539      860.225
06/07/2013  14:41:00      -12.955      -71.543      -13.665       69.721       79.005       36.316     4861.023     6241.825     1318.888        0.894        0.621       72.707       30.319        0.174      351.681       33.767      860.238
06/07/2013  14:42:00      -62.149        5.912       -9.598       62.521       43.815       38.858     3908.910     1919.783     1509.968        0.566        0.367       62.430       11.537        0.034      351.729       33.851      860.225
06/07/2013  14:43:00     -170.424      -62.525        3.876       80.391       65.793       35.510     6462.651     4328.784     1260.953        2.251        0.603      181.531       28.746        0.025      351.750       33.886      860.223
06/07/2013  14:44:00     -150.422      -57.776        3.423       93.258       49.568       31.198     8697.022     2456.984      973.323        1.905        0.606      161.136       39.099        0.059      351.664       33.737      860.209
06/07/2013  14:45:00       19.028      -20.534       27.428       51.948       37.075       34.217     2698.640     1374.561     1170.770        0.339        0.262       27.995       25.808        0.850      351.773       33.928      860.191
06/07/2013  14:46:00      -83.747       40.127       10.265       91.336       55.296       50.325     8342.246     3057.662     2532.628        1.133        0.697       92.864       47.339        0.260      351.718       33.834      860.178
06/07/2013  14:47:00      -41.704        2.593      -11.677       31.235       20.735       20.739      975.612      429.942      430.122        0.186        0.092       41.784        6.136        0.022      351.494       33.442      860.178
06/07/2013  14:48:00     -208.797      -37.857       11.628      138.541       93.455       52.833    19193.581     8733.842     2791.314        3.794        1.536      212.201       48.050        0.051      351.892       34.135      860.178
06/07/2013  14:49:00     -252.893      -80.616       -1.506      126.612      102.983       66.490    16030.683    10605.423     4420.904        5.075        1.553      265.432       66.713        0.063      351.903       34.152      860.143
06/07/2013  14:50:00     -215.353     -135.581        0.891      134.583       75.655       54.476    18112.477     5723.710     2967.583        4.578        1.340      254.478       51.703        0.041      351.862       34.080      860.112
06/07/2013  14:51:00     -147.426      -75.314        3.017      100.532       58.733       43.920    10106.777     3449.595     1929.005        2.145        0.774      165.550       34.514        0.043      352.033       34.381      860.143
06/07/2013  14:52:00     -200.864       28.693      -15.560       72.654       89.911       34.695     5278.632     8084.027     1203.752        2.799        0.728      202.903       34.071        0.028      351.955       34.243      860.128
06/07/2013  14:53:00      -23.808        3.167        3.320       73.735      103.006       48.613     5436.832    10610.151     2363.268        0.950        0.921       24.018       39.828        2.750      352.024       34.368      860.099
06/07/2013  14:54:00     -108.343      -36.688        1.983       85.204       55.432       37.689     7259.807     3072.723     1420.443        1.242        0.588      114.386       44.190        0.149      352.024       34.368      860.107
06/07/2013  14:55:00      -25.046      -24.237       28.369       80.836       49.350       41.140     6534.526     2435.406     1692.465        0.634        0.533       34.853       41.301        1.404      352.109       34.516      860.119
06/07/2013  14:56:00       12.323      -26.507       15.306       46.432       37.556       29.375     2155.965     1410.457      862.919        0.276        0.221       29.231       17.472        0.357      351.959       34.254      860.116
06/07/2013  14:57:00       -1.101        1.460       32.012       32.160       16.827       20.614     1034.294      283.157      424.947        0.138        0.087        1.828       14.416       62.175      351.902       34.154      860.078
06/07/2013  14:58:00      -17.506       16.239       15.690       67.968       48.296       40.382     4619.640     2332.543     1630.723        0.470        0.429       23.879       33.838        2.008      351.548       33.538      860.061
06/07/2013  14:59:00      -20.139      -21.797       18.350      121.471       66.352       39.341    14755.218     4402.596     1547.713        1.096        1.035       29.676       32.892        1.228      351.587       33.604      860.063
06/07/2013  15:00:00      -42.409     -152.207        4.408       74.436       98.638       50.623     5540.724     9729.399     2562.694        2.141        0.892      158.004       54.568        0.119      351.839       34.043      860.087
06/07/2013  15:01:00      -87.581      -70.935        9.144       98.320       59.260       42.668     9666.747     3511.725     1820.568        1.389        0.750      112.704       44.390        0.155      351.895       34.141      860.045
06/07/2013  15:02:00     -199.910      -74.638      -13.892       80.545       45.434       43.809     6487.529     2064.290     1919.267        2.810        0.524      213.389       44.045        0.043      351.474       33.405      859.998
06/07/2013  15:03:00     -106.271      -45.732        2.746      112.806      102.350       51.336    12725.119    10475.535     2635.421        1.961        1.292      115.693       55.489        0.230      351.937       34.211      859.977
06/07/2013  15:04:00     -343.539     -162.975        7.161      213.005      132.681       79.476    45370.928    17604.320     6316.422       10.695        3.465      380.236       94.901        0.062      351.715       33.825      859.932
06/07/2013  15:05:00     -132.004     -126.302       15.996      148.218      131.517       62.355    21968.436    17296.756     3888.178        3.838        2.158      182.694       67.665        0.137      352.010       34.340      859.926
06/07/2013  15:06:00     -466.754     -258.649      -17.220      196.828      133.789       91.120    38741.417    17899.445     8302.764       17.499        3.247      533.627       87.162        0.027      351.564       33.561      859.902
06/07/2013  15:07:00     -471.933     -152.962      -16.166      187.257      125.530       73.078    35065.308    15757.794     5340.390       15.126        2.808      496.103       85.057        0.029      351.447       33.356      859.871
06/07/2013  15:08:00     -310.165      -76.342       -0.160      153.740      106.365       69.433    23636.103    11313.550     4820.917        7.089        1.989      319.422       80.769        0.064      351.710       33.816      859.861
06/07/2013  15:09:00     -341.961     -160.248       -7.866      174.101      208.147       84.589    30311.174    43325.355     7155.349       11.172        4.040      377.647       89.646        0.056      351.848       34.056      859.857
06/07/2013  15:10:00     -284.218     -109.987        3.478      236.785      138.683       76.420    56066.944    19233.076     5840.064        8.700        4.057      304.757       85.068        0.078      351.700       33.799      859.883
06/07/2013  15:11:00     -254.082      -66.409       -8.784      119.996       69.009       48.254    14398.962     4762.261     2328.411        4.526        1.074      262.617       53.392        0.041      351.602       33.629      859.899
06/07/2013  15:12:00     -268.630      -13.419      -10.161      105.551       80.236       54.162    11141.056     6437.764     2933.502        4.647        1.026      268.965       64.636        0.058      351.778       33.933      859.874
06/07/2013  15:13:00     -149.572       -3.345       -1.051       80.618       83.288       43.683     6499.210     6936.912     1908.185        1.886        0.767      149.609       37.890        0.064      352.008       34.338      859.853
06/07/2013  15:14:00     -148.484     -108.609        8.439       79.114      107.193       49.124     6259.048    11490.344     2413.180        2.703        1.008      183.966       47.576        0.067      351.663       33.734      859.858
06/07/2013  15:15:00     -333.482     -149.369       -7.159      131.617       96.544       63.554    17323.103     9320.764     4039.132        8.212        1.534      365.406       67.986        0.035      351.568       33.569      859.838
06/07/2013  15:16:00     -167.267     -128.008       16.829      124.465       95.942       60.699    15491.650     9204.924     3684.328        3.651        1.419      210.628       65.344        0.096      351.708       33.814      859.839
06/07/2013  15:17:00     -167.267     -177.217       -7.040      121.997      110.466       62.797    14883.257    12202.700     3943.523        4.523        1.551      243.689       71.051        0.085      351.643       33.701      859.834
06/07/2013  15:18:00      -91.644     -142.034        1.445       97.387       71.669       51.641     9484.238     5136.458     2666.843        2.293        0.864      169.033       47.992        0.081      351.681       33.766      859.837
06/07/2013  15:19:00        4.437      -54.594       18.738       47.714       70.167       36.814     2276.659     4923.350     1355.265        0.595        0.428       54.774       25.721        0.221      352.046       34.406      859.824
06/07/2013  15:20:00       79.510     -176.291       -6.126      118.593      139.712       67.102    14064.303    19519.428     4502.671        3.775        1.904      193.392       59.750        0.095      351.732       33.856      859.819
06/07/2013  15:21:00     -147.338     -126.367        3.859      101.150       91.223       52.748    10231.338     8321.576     2782.379        2.951        1.067      194.106       56.039        0.083      351.676       33.758      859.828
06/07/2013  15:22:00       37.536     -175.423      -22.857       91.821      105.825       37.564     8431.176    11198.839     1411.061        2.687        1.052      179.394       27.915        0.024      351.699       33.798      859.819
06/07/2013  15:23:00       -6.027      -14.228      -10.070       50.826       35.000       42.359     2583.280     1225.007     1794.311        0.297        0.280       15.452       26.742        2.995      352.201       34.676      859.789
06/07/2013  15:24:00      -10.651      -11.068      -13.879       96.442       54.401       33.523     9301.097     2959.467     1123.785        0.690        0.669       15.361       22.172        2.084      351.239       32.998      859.773
06/07/2013  15:25:00       29.262      -23.725        3.369      155.682       89.996       45.590    24236.950     8099.291     2078.410        1.792        1.721       37.672       40.041        1.130      351.607       33.639      859.754
06/07/2013  15:26:00      -26.829     -111.895        9.978      136.582       86.523       53.523    18654.592     7486.222     2864.718        2.117        1.450      115.066       33.962        0.087      351.993       34.311      859.735
06/07/2013  15:27:00      -25.527     -129.136      -13.940       61.646       81.671       42.749     3800.181     6670.178     1827.435        1.491        0.615      131.634       30.631        0.054      351.663       33.735      859.747
06/07/2013  15:28:00      -44.534      -96.315       -6.430       55.352       64.223       31.363     3063.820     4124.595      983.615        0.974        0.409      106.113       36.888        0.121      351.513       33.474      859.719
06/07/2013  15:29:00       21.612      -58.957       16.444       45.062       30.443       23.911     2030.561      926.758      571.725        0.387        0.176       62.793       15.924        0.064      351.816       34.004      859.713
06/07/2013  15:30:00       15.942        6.525       52.655       45.344       59.487       36.408     2056.083     3538.726     1325.565        0.499        0.346       17.226       32.079        3.468      352.020       34.360      859.725
06/07/2013  15:31:00       45.049      -63.469       20.053       60.504       87.719       54.027     3660.735     7694.592     2918.894        1.036        0.714       77.831       46.686        0.360      351.913       34.173      859.708
06/07/2013  15:32:00      -89.721      -31.996       10.510       81.151       82.072       40.657     6585.404     6735.799     1653.026        1.208        0.749       95.256       36.343        0.146      352.321       34.887      859.673
06/07/2013  15:33:00      -61.928     -125.366        1.377      115.929       82.850       52.792    13439.576     6864.041     2787.032        2.132        1.155      139.828       46.996        0.113      352.084       34.469      859.680
06/07/2013  15:34:00     -114.222     -124.307        9.980      104.855       92.757       52.938    10994.471     8603.932     2802.458        2.550        1.120      168.817       38.451        0.052      351.909       34.165      859.672
06/07/2013  15:35:00      -37.260      -57.917        5.427       62.278       99.628       40.845     3878.512     9925.645     1668.332        1.012        0.774       68.867       39.912        0.336      351.740       33.872      859.658
06/07/2013  15:36:00     -101.667     -121.021       -4.200      102.306       97.595       49.646    10466.601     9524.776     2464.735        2.372        1.123      158.058       37.624        0.057      351.904       34.156      859.614
06/07/2013  15:37:00     -149.971     -335.873        0.264      131.952      147.969       82.200    17411.410    21894.872     6756.821        9.067        2.303      367.834       74.652        0.041      351.787       33.950      859.614
06/07/2013  15:38:00      -96.778     -168.837       -1.309      124.292       90.564       61.397    15448.504     8201.857     3769.585        3.264        1.371      194.607       46.725        0.058      351.741       33.871      859.615
06/07/2013  15:39:00       -8.037      -54.445       -5.572       94.865       67.274       36.473     8999.289     4525.853     1330.256        0.895        0.743       55.035       32.658        0.352      351.786       33.952      859.569
06/07/2013  15:40:00       45.635      -60.510       10.783       52.662       79.543       40.771     2773.329     6327.119     1662.264        0.831        0.538       75.789       48.474        0.409      351.576       33.584      859.544
06/07/2013  15:41:00      -46.769      -47.593       -7.519      114.078       83.069       40.067    13013.840     6900.409     1605.376        1.301        1.076       66.727       35.197        0.278      351.943       34.226      859.537
06/07/2013  15:42:00     -102.640     -126.609        3.835      119.383       94.114       43.897    14252.286     8857.383     1926.938        2.580        1.252      162.987       38.287        0.055      352.194       34.661      859.504
06/07/2013  15:43:00     -389.075      -57.314      -10.008      180.472      189.754       82.575    32570.151    36006.658     6818.602       11.506        3.770      393.273       93.444        0.056      352.390       35.002      859.516
06/07/2013  15:44:00     -371.330     -166.376       -9.144      242.901      125.301       77.448    59000.682    15700.437     5998.213       12.316        4.035      406.899      105.284        0.067      351.998       34.319      859.547
06/07/2013  15:45:00     -393.786      -17.010      -22.297      128.223      111.959       68.332    16441.107    12534.894     4669.291        9.474        1.682      394.153       70.930        0.032      351.847       34.053      859.553
06/07/2013  15:46:00     -235.803      116.685      -22.600      120.337       88.148       59.895    14481.074     7770.016     3587.461        4.778        1.292      263.094       54.375        0.043      351.932       34.203      859.550
06/07/2013  15:47:00     -238.328       39.119      -19.580      145.154       85.243       67.874    21069.796     7266.298     4606.915        4.582        1.647      241.517       79.311        0.108      352.000       34.323      859.519
06/07/2013  15:48:00     -119.486       28.364      -21.277       48.905       66.278       32.285     2391.682     4392.796     1042.313        1.168        0.391      122.806       25.452        0.043      352.002       34.329      859.525
06/07/2013  15:49:00     -191.342       -2.660       -6.425       91.718       67.568       39.328     8412.177     4565.485     1546.656        2.559        0.726      191.361       42.085        0.048      352.033       34.381      859.509
06/07/2013  15:50:00     -193.454      -28.590      -12.736       68.979       60.286       35.067     4758.043     3634.440     1229.701        2.401        0.481      195.556       29.384        0.023      351.761       33.906      859.508
06/07/2013  15:51:00      -11.749       55.612       -2.772       70.811       99.261       38.045     5014.218     9852.772     1447.401        0.977        0.816       56.840       31.127        0.300      351.790       33.957      859.500
06/07/2013  15:52:00      -80.416      -63.587        5.786       69.418       56.090       33.555     4818.890     3146.061     1125.920        0.982        0.455      102.519       35.693        0.121      351.911       34.169      859.486
06/07/2013  15:53:00      -80.297      -42.247       14.248       87.237       55.227       35.465     7610.310     3049.989     1257.757        1.017        0.596       90.733       46.130        0.258      352.044       34.402      859.477
06/07/2013  15:54:00      -10.763      -41.810        9.961       40.670       55.856       28.421     1654.052     3119.939      807.749        0.377        0.279       43.173       17.776        0.170      352.180       34.641      859.440
06/07/2013  15:55:00      -30.031       33.310        7.507       43.643       43.926       32.391     1904.726     1929.536     1049.161        0.347        0.244       44.848       12.511        0.078      352.076       34.457      859.429
06/07/2013  15:56:00     -102.044      -74.509      -10.888      137.286       59.167       33.716    18847.447     3500.767     1136.759        1.978        1.174      126.351       36.299        0.083      351.885       34.123      859.424
06/07/2013  15:57:00     -205.930        7.934       -1.534      132.441       93.245       47.138    17540.732     8694.701     2221.999        3.546        1.423      206.082       49.192        0.057      352.328       34.897      859.455
06/07/2013  15:58:00     -277.179     -131.198       -0.713      144.830      155.618       69.692    20975.624    24216.984     4857.033        7.204        2.502      306.661       69.044        0.051      352.161       34.603      859.433
06/07/2013  15:59:00     -237.396      -96.944       -7.877      111.638      120.097       62.124    12463.115    14423.327     3859.392        4.828        1.537      256.427       57.108        0.050      352.084       34.466      859.459
06/07/2013  16:00:00     -308.655     -217.915        2.004      216.337      126.524       79.929    46801.484    16008.384     6388.665       10.596        3.460      377.829       83.383        0.049      351.978       34.284      859.420
06/07/2013  16:01:00     -258.490      -72.654       -4.935      130.669      141.002       67.400    17074.299    19881.587     4542.702        5.680        2.075      268.507       74.443        0.077      352.272       34.797      859.417
06/07/2013  16:02:00     -146.308     -137.680       11.050      169.709      142.546       94.216    28801.173    20319.251     8876.565        4.923        2.900      200.902      102.474        0.260      352.198       34.668      859.420
06/07/2013  16:03:00     -311.880     -132.928      -16.958      179.999      133.430       67.202    32399.642    17803.548     4516.075        8.496        2.736      339.027       72.869        0.046      351.989       34.303      859.401
06/07/2013  16:04:00     -271.612     -101.516       -9.710      181.657       87.298       61.398    32999.313     7620.943     3769.744        6.427        2.219      289.963       71.744        0.061      352.097       34.491      859.404
06/07/2013  16:05:00     -219.101     -149.700        9.369      159.611      111.169       78.420    25475.540    12358.554     6149.683        5.723        2.199      265.359       69.660        0.069      352.028       34.369      859.389
06/07/2013  16:06:00     -280.517      -52.866      -11.196       66.221      128.048       48.480     4385.279    16396.195     2350.331        5.237        1.157      285.455       38.906        0.019      352.027       34.367      859.390
06/07/2013  16:07:00     -204.260      -20.071      -19.079       59.902       87.487       37.109     3588.224     7653.947     1377.046        2.755        0.631      205.244       34.784        0.029      352.086       34.472      859.383
06/07/2013  16:08:00     -192.779      -14.255       -3.173      243.585      151.395       55.923    59333.697    22920.345     3127.341        6.136        4.269      193.305       74.893        0.150      352.214       34.699      859.378
06/07/2013  16:09:00     -528.625     -133.176      -23.632      202.011      151.790       85.832    40808.533    23040.353     7367.132       18.446        3.561      545.142       98.359        0.033      352.099       34.493      859.345
06/07/2013  16:10:00     -512.634     -139.584       -8.771      219.383      120.650       88.394    48129.113    14556.305     7813.500       17.641        3.525      531.298      112.751        0.045      351.964       34.259      859.350
06/07/2013  16:11:00     -342.108     -121.311       -2.467      189.175      158.930       95.206    35787.236    25258.706     9064.232       10.092        3.506      362.980      102.128        0.079      352.223       34.712      859.327
06/07/2013  16:12:00     -338.091     -186.857       -8.667      184.052      150.651       74.792    33875.154    22695.734     5593.833       10.572        3.108      386.291       90.696        0.055      352.120       34.530      859.370
06/07/2013  16:13:00     -392.087     -120.298      -23.523      196.731      164.820       74.162    38703.128    27165.740     5500.011       12.005        3.568      410.127       96.266        0.055      351.930       34.198      859.380
06/07/2013  16:14:00     -277.931      -88.695       12.638      193.518      101.621       63.192    37449.236    10326.901     3993.245        6.851        2.588      291.741       88.552        0.092      351.987       34.300      859.379
06/07/2013  16:15:00     -217.719      -56.378        1.301      121.236       97.397       51.023    14698.076     9486.179     2603.378        3.868        1.339      224.900       57.029        0.064      352.051       34.410      859.366
06/07/2013  16:16:00     -258.092     -117.256       -6.819      151.112      123.217       71.765    22834.768    15182.412     5150.234        6.178        2.158      283.479       76.339        0.073      351.992       34.305      859.359
06/07/2013  16:17:00     -210.303     -176.954       -6.968      134.865      102.228       74.040    18188.615    10450.653     5481.887        5.485        1.706      274.845       48.938        0.032      352.032       34.378      859.336
06/07/2013  16:18:00     -226.713     -164.062       -5.085      116.793      110.573       60.989    13640.613    12226.431     3719.638        5.396        1.479      279.849       55.380        0.039      351.883       34.116      859.334
06/07/2013  16:19:00     -315.985     -170.391       -4.697      131.623       73.402       60.547    17324.579     5387.845     3665.887        7.763        1.319      358.998       60.863        0.029      351.987       34.296      859.326
06/07/2013  16:20:00     -256.911      -44.882      -12.231      151.969       97.253       64.986    23094.445     9458.221     4223.153        5.246        1.839      260.802       71.181        0.074      352.194       34.661      859.336
06/07/2013  16:21:00     -299.162     -214.938      -13.418      137.638      128.500       77.894    18944.150    16512.169     6067.449        8.869        2.076      368.369       72.984        0.039      351.955       34.242      859.329
06/07/2013  16:22:00     -215.907     -154.989        7.419      148.487      126.838       73.720    22048.506    16087.957     5434.674        5.712        2.179      265.777       83.499        0.099      352.115       34.520      859.332
06/07/2013  16:23:00     -183.798     -121.148        5.741      127.096      133.965       47.991    16153.331    17946.743     2303.131        4.244        1.820      220.133       60.225        0.075      352.130       34.550      859.324
06/07/2013  16:24:00     -248.566     -110.473       -0.292      210.286      181.543       89.946    44220.370    32957.920     8090.282        7.961        4.263      272.010       88.093        0.105      352.090       34.479      859.261
06/07/2013  16:25:00     -256.290      -62.121        9.068      117.747      102.996       51.742    13864.465    10608.263     2677.210        4.838        1.357      263.711       54.433        0.043      352.069       34.442      859.317
06/07/2013  16:26:00     -351.868     -221.184       -5.015      215.650      175.771       99.763    46504.852    30895.543     9952.607       13.004        4.368      415.613      116.773        0.079      352.019       34.354      859.287
06/07/2013  16:27:00     -276.074      -31.573        2.333      211.194      134.813       67.155    44603.075    18174.469     4509.748        7.224        3.364      277.873       78.285        0.079      352.329       34.899      859.308
06/07/2013  16:28:00     -434.438      -67.029      -21.076      176.012      165.292       82.995    30980.362    27321.527     6888.184       12.942        3.260      439.578       87.299        0.039      352.030       34.373      859.318
06/07/2013  16:29:00     -384.083     -182.384        5.840      244.235      144.019       87.010    59650.582    20741.464     7570.787       13.437        4.398      425.186      111.893        0.069      351.940       34.216      859.319
06/07/2013  16:30:00     -278.110      -15.145      -13.663      152.831      101.123       70.656    23357.413    10225.956     4992.258        5.816        1.929      278.523       84.048        0.091      352.179       34.635      859.347
06/07/2013  16:31:00     -428.808     -140.830      -12.661      134.743      101.815       58.305    18155.569    10366.315     3399.514       11.789        1.596      451.342       54.046        0.014      351.738       33.864      859.333
06/07/2013  16:32:00      -98.218     -112.600        2.112       89.153       79.535       50.964     7948.299     6325.887     2597.284        1.960        0.844      149.418       46.293        0.096      351.889       34.132      859.313
06/07/2013  16:33:00      -37.444      -53.403       23.175       54.993       80.539       40.699     3024.194     6486.505     1656.432        0.798        0.558       65.222       26.686        0.167      351.946       34.231      859.304
06/07/2013  16:34:00     -284.272      -41.876      -28.974      136.796      103.644       56.964    18713.068    10742.020     3244.916        5.805        1.635      287.340       55.051        0.037      352.127       34.543      859.294
06/07/2013  16:35:00     -319.243        5.969      -38.986      128.893      113.933       52.827    16613.319    12980.626     2790.667        6.792        1.619      319.299       52.148        0.027      351.893       34.134      859.289
06/07/2013  16:36:00     -397.283       -5.824      -24.156      193.418      162.329       75.020    37410.572    26350.777     5628.028       11.391        3.469      397.325       81.808        0.042      352.087       34.473      859.236
06/07/2013  16:37:00     -311.316     -102.469       -0.054      204.208      150.110       78.276    41701.013    22533.065     6127.103        8.888        3.518      327.746       97.004        0.088      352.234       34.731      859.241
06/07/2013  16:38:00     -256.492     -113.350      -14.113      173.720      124.960       79.182    30178.630    15615.036     6269.719        6.544        2.603      280.422       66.889        0.057      352.204       34.678      859.262
06/07/2013  16:39:00     -353.521     -164.826      -23.883      245.657      142.685       62.424    60347.132    20358.881     3896.751       11.864        4.230      390.057       69.099        0.031      351.818       34.004      859.256
06/07/2013  16:40:00     -153.503      -38.870       12.717      162.390       89.689       62.686    26370.484     8044.115     3929.520        3.178        1.917      158.348       60.577        0.146      352.061       34.431      859.227
06/07/2013  16:41:00     -204.172     -144.271       10.532      132.928      130.252       61.836    17669.825    16965.518     3823.722        5.053        1.923      250.001       67.076        0.072      352.036       34.384      859.217
06/07/2013  16:42:00     -342.933     -164.831      -10.831      150.487      106.663       62.096    22646.321    11377.076     3855.923        9.138        1.894      380.489       64.412        0.029      351.970       34.267      859.197
06/07/2013  16:43:00     -366.168     -249.353      -13.799      150.738      110.677       74.858    22721.917    12249.438     5603.672       11.850        2.029      443.008       73.760        0.028      351.892       34.132      859.174
06/07/2013  16:44:00     -360.731     -260.871      -13.012      199.660      169.856      102.737    39864.313    28850.919    10554.879       13.879        3.964      445.175      101.099        0.052      351.878       34.109      859.145
06/07/2013  16:45:00     -318.135     -253.634       -0.234      214.211      166.058       88.098    45886.308    27575.157     7761.210       12.337        4.061      406.867       98.708        0.059      351.944       34.223      859.136
06/07/2013  16:46:00     -316.833     -147.114      -21.633      193.339      149.880       88.524    37379.795    22463.949     7836.504        9.507        3.384      349.322       98.357        0.079      351.872       34.098      859.165
06/07/2013  16:47:00     -155.852     -127.008        1.254      104.793       74.766       45.993    10981.481     5589.975     2115.343        2.955        0.934      201.049       34.616        0.030      351.763       33.910      859.137
06/07/2013  16:48:00     -265.244     -128.846        0.380      126.815       90.274       53.678    16082.126     8149.355     2881.369        5.703        1.356      294.883       56.042        0.036      351.876       34.105      859.096
06/07/2013  16:49:00     -159.069     -115.006       16.347      138.611      106.748       58.299    19212.912    11395.234     3398.784        3.640        1.700      196.290       66.077        0.113      352.016       34.350      859.096
06/07/2013  16:50:00     -222.866     -189.712      -10.724      173.798      130.129       97.157    30205.608    16933.624     9439.494        7.117        2.829      292.677       89.351        0.093      352.001       34.323      859.096
06/07/2013  16:51:00     -235.108     -112.712       10.167      204.374      139.755       70.434    41768.634    19531.424     4960.919        6.716        3.313      260.729       89.248        0.117      352.050       34.409      859.096
06/07/2013  16:52:00     -211.131      -59.299        2.714      150.965       82.551       60.434    22790.474     6814.733     3652.274        4.067        1.663      219.300       71.438        0.106      352.229       34.725      859.111
06/07/2013  16:53:00     -116.153       50.265        3.015      117.395      129.798       65.452    13781.558    16847.587     4283.910        2.546        1.746      126.563       64.747        0.262      352.186       34.649      859.105
06/07/2013  16:54:00     -105.709      -78.650       -3.082       84.527       73.500       38.358     7144.811     5402.179     1471.333        1.569        0.701      131.758       34.638        0.069      352.224       34.716      859.089
06/07/2013  16:55:00     -146.554     -139.066        3.958       85.769       99.299       66.656     7356.260     9860.345     4443.043        3.124        1.083      202.033       58.130        0.083      352.030       34.375      859.071
06/07/2013  16:56:00     -239.778     -126.306        3.030      147.932      131.986       70.515    21883.920    17420.276     4972.318        5.886        2.214      271.010       73.066        0.073      351.916       34.175      859.075
06/07/2013  16:57:00     -206.004     -214.859       -9.496      110.808       82.883       59.403    12278.473     6869.527     3528.692        5.568        1.134      297.661       51.992        0.031      351.988       34.300      859.078
06/07/2013  16:58:00     -187.811     -156.598        3.528      102.796       79.077       58.709    10566.974     6253.176     3446.751        4.003        1.013      244.532       61.398        0.063      351.968       34.265      859.072
06/07/2013  16:59:00      -75.867     -123.764       19.285       73.790       78.471       41.681     5445.015     6157.667     1737.337        1.739        0.667      145.167       41.082        0.080      351.982       34.292      859.071
06/07/2013  17:00:00     -153.465      -97.145       -4.503       50.015       72.290       31.914     2501.459     5225.833     1018.524        2.088        0.437      181.628       21.854        0.014      351.813       33.998      859.073
06/07/2013  17:01:00     -114.530      -13.749       -8.834       62.049       63.566       29.108     3850.067     4040.662      847.303        1.106        0.437      115.352       29.470        0.065      352.023       34.364      859.070
06/07/2013  17:02:00     -387.024       -3.574      -23.455      210.414      116.566       63.464    44274.209    13587.686     4027.633       10.611        3.094      387.040       95.152        0.060      352.160       34.599      859.081
06/07/2013  17:03:00     -353.998       40.663      -28.120      109.502      123.117       64.406    11990.766    15157.742     4148.159        7.952        1.565      356.326       43.519        0.015      352.145       34.572      859.055
06/07/2013  17:04:00     -456.684     -203.797       -6.364      206.658      161.734       88.549    42707.474    26157.866     7840.961       16.340        3.835      500.093      100.792        0.041      351.979       34.284      859.063
06/07/2013  17:05:00     -249.398     -134.904       13.791      220.741      118.337       81.865    48726.386    14003.675     6701.814        7.500        3.472      283.547      101.376        0.128      351.908       34.163      859.088
06/07/2013  17:06:00     -235.332     -125.443       -9.885      162.127      144.103       71.026    26285.094    20765.569     5044.668        6.164        2.605      266.678       88.398        0.110      351.823       34.012      859.070
06/07/2013  17:07:00      -82.788      -92.319       21.615      154.897       83.719       63.097    23993.197     7008.920     3981.208        2.541        1.749      124.003       74.101        0.357      351.949       34.233      859.039
06/07/2013  17:08:00      -36.789       20.294       23.935      101.850       85.085       46.704    10373.358     7239.399     2181.237        1.106        0.990       42.015       57.746        1.889      352.124       34.540      859.026
06/07/2013  17:09:00      -95.448       54.534      -13.650      116.658      105.336       68.081    13609.040    11095.674     4634.982        2.080        1.467      109.929       71.625        0.425      352.022       34.362      859.034
06/07/2013  17:10:00     -105.516       95.706      -11.110       67.851       64.047       47.382     4603.723     4101.981     2245.007        1.568        0.548      142.454       34.918        0.060      351.960       34.255      859.035
06/07/2013  17:11:00     -172.760       16.106      -15.478       82.408       66.516       47.147     6791.135     4424.338     2222.844        2.189        0.672      173.509       42.596        0.060      352.161       34.605      859.041
06/07/2013  17:12:00     -249.232       12.632      -29.975      112.435      106.094       65.142    12641.653    11255.870     4243.494        4.565        1.407      249.552       44.282        0.031      352.124       34.540      859.027
06/07/2013  17:13:00     -157.084      -73.995       20.666      157.782      143.086       74.889    24895.074    20473.605     5608.351        4.077        2.549      173.639       78.958        0.207      352.357       34.945      859.033
06/07/2013  17:14:00     -343.252     -137.374       -9.696      216.824      171.994       77.123    47012.509    29581.952     5947.944       10.965        4.127      369.721       92.486        0.063      352.111       34.516      859.067
06/07/2013  17:15:00     -323.016     -110.022       -8.396      213.323      125.571       72.794    45506.803    15768.021     5299.022        9.153        3.329      341.239       94.545        0.077      351.959       34.250      859.071
06/07/2013  17:16:00     -249.912      -93.978      -13.475      138.019      140.476       57.293    19049.133    19733.390     3282.503        5.676        2.103      266.998       57.632        0.047      351.930       34.198      859.074
06/07/2013  17:17:00     -426.576     -109.410        0.208      199.680      131.774       67.262    39872.133    17364.437     4524.232       12.784        3.088      440.384       74.224        0.028      351.810       33.990      859.054
06/07/2013  17:18:00     -251.661     -129.331       -4.625      138.950       77.664       43.965    19307.218     6031.728     1932.963        5.367        1.364      282.948       42.626        0.023      351.721       33.834      859.052
06/07/2013  17:19:00     -131.464      -23.409        6.155       79.197       85.395       41.123     6272.144     7292.307     1691.096        1.656        0.763      133.532       42.855        0.103      352.041       34.397      859.042
06/07/2013  17:20:00     -122.975      -62.363       21.566      116.884       73.795       48.204    13661.911     5445.677     2323.634        2.045        1.072      137.884       66.600        0.233      352.049       34.409      859.038
06/07/2013  17:21:00     -161.726     -113.025       -5.001      107.717       60.313       45.541    11603.005     3637.611     2074.010        2.813        0.866      197.307       55.271        0.078      351.835       34.035      859.014
06/07/2013  17:22:00      -94.793     -173.569       27.726      113.597      107.287       53.744    12904.187    11510.533     2888.461        3.359        1.365      197.768       53.216        0.072      351.958       34.248      858.985
06/07/2013  17:23:00     -254.535     -134.693      -14.699      110.627      105.123       53.993    12238.380    11050.801     2915.277        5.467        1.310      287.976       60.771        0.045      352.041       34.393      858.983
06/07/2013  17:24:00     -228.637       46.534      -10.056      156.232      100.335       60.846    24408.445    10067.208     3702.196        4.635        1.909      233.325       80.822        0.120      352.240       34.741      859.008
06/07/2013  17:25:00     -248.767     -117.155      -11.807      156.015      105.305       59.310    24340.764    11089.213     3517.707        5.734        1.947      274.973       60.529        0.048      352.161       34.603      859.006
06/07/2013  17:26:00     -378.520     -214.475       -8.182      171.459      123.631       77.300    29398.267    15284.739     5975.361       11.999        2.533      435.060       87.753        0.041      351.943       34.221      858.999
06/07/2013  17:27:00     -236.625     -124.703        8.165      158.700      137.574       75.576    25185.552    18926.631     5711.802        6.071        2.491      267.474       76.446        0.082      351.963       34.256      859.003
06/07/2013  17:28:00     -230.733     -216.990        2.397      157.369      119.696       74.429    24764.916    14327.185     5539.714        7.247        2.232      316.737       77.711        0.060      351.835       34.033      859.005
06/07/2013  17:29:00     -190.752     -189.856        0.153      114.535       88.729       64.926    13118.154     7872.802     4215.420        4.881        1.260      269.132       60.318        0.050      351.731       33.851      858.979
06/07/2013  17:30:00     -169.403     -113.587       -0.228      101.495       62.855       43.931    10301.222     3950.768     1929.913        2.889        0.809      203.959       45.561        0.050      351.870       34.096      858.957
06/07/2013  17:31:00     -156.504      -96.741       17.266       88.630       95.138       42.521     7855.302     9051.246     1808.063        2.643        0.936      183.990       51.287        0.078      351.932       34.203      858.949
06/07/2013  17:32:00      -58.615     -167.377        6.040       79.738       72.665       43.570     6358.073     5280.262     1898.308        2.251        0.677      177.343       35.638        0.040      351.905       34.156      858.926
06/07/2013  17:33:00     -114.700      -67.573        5.140      108.038       62.335       39.973    11672.169     3885.631     1597.865        1.745        0.858      133.125       39.608        0.089      352.123       34.537      858.912
06/07/2013  17:34:00      -90.753      -46.653        6.830       98.398       68.645       46.629     9682.083     4712.148     2174.283        1.351        0.828      102.042       38.774        0.144      352.013       34.346      858.906
06/07/2013  17:35:00     -185.982     -173.692       -5.458      100.151      107.949       58.618    10030.315    11652.911     3436.036        4.495        1.256      254.477       58.262        0.052      351.930       34.199      858.904
06/07/2013  17:36:00     -336.431     -134.797      -10.895      161.298      111.706       77.286    26016.929    12478.169     5973.165        8.796        2.223      362.431       63.960        0.031      352.073       34.448      858.908
06/07/2013  17:37:00     -318.435       -9.878       -8.411      121.040      114.495       56.730    14650.719    13109.020     3218.338        6.627        1.549      318.588       55.720        0.031      352.231       34.725      858.924
06/07/2013  17:38:00     -140.799      -38.725       11.656       94.041       79.420       42.306     8843.708     6307.580     1789.784        1.920        0.847      146.027       43.616        0.089      352.230       34.725      858.937
06/07/2013  17:39:00      -71.098       65.142        0.396       70.074       69.146       35.352     4910.333     4781.219     1249.733        1.012        0.547       96.428       30.369        0.099      352.273       34.802      858.935
06/07/2013  17:40:00     -185.162      -14.449      -30.290       66.099      136.439       38.757     4369.026    18615.670     1502.136        2.994        1.224      185.725       27.891        0.023      352.157       34.597      858.939
06/07/2013  17:41:00     -205.166      -80.001      -13.047      132.018       93.531       76.266    17428.833     8747.969     5816.556        4.032        1.600      220.212       68.003        0.095      352.174       34.625      858.921
06/07/2013  17:42:00     -160.917      -21.859       -2.680       83.102       74.411       57.729     6905.922     5537.028     3332.672        2.107        0.789      162.395       48.187        0.088      352.284       34.819      858.918
06/07/2013  17:43:00     -119.564       16.626        4.642       74.127       92.050       53.523     5494.759     8473.113     2864.758        1.571        0.842      120.714       37.124        0.095      352.346       34.930      858.942
06/07/2013  17:44:00     -108.805       -2.026      -13.528       55.093       58.624       38.198     3035.210     3436.798     1459.060        0.998        0.397      108.824       20.134        0.034      352.204       34.682      858.921
06/07/2013  17:45:00       -1.834       22.239        5.501       31.861       44.990       25.159     1015.120     2024.112      632.969        0.210        0.184       22.314       22.312        1.000      351.856       34.073      858.893
06/07/2013  17:46:00      -67.898      200.846      -12.262       86.550       65.511       46.083     7490.924     4291.638     2123.616        2.950        0.695      212.012       39.156        0.034      351.678       33.762      858.888
06/07/2013  17:47:00      -99.731      163.630       -2.069       77.499       95.104       53.464     6006.022     9044.822     2858.377        2.731        0.895      191.627       44.350        0.054      351.796       33.966      858.846
06/07/2013  17:48:00     -244.576      342.629      -60.386      118.809      142.929       75.494    14115.492    20428.838     5699.316       11.054        2.012      420.965       75.844        0.032      351.868       34.090      858.892
06/07/2013  17:49:00     -131.641      331.247      -41.308      101.466      125.705       48.276    10295.253    15801.714     2330.544        7.859        1.421      356.446       54.630        0.023      351.675       33.755      858.915
06/07/2013  17:50:00     -169.246      196.190      -21.125       89.674      110.423       65.843     8041.366    12193.190     4335.281        4.607        1.228      259.104       50.120        0.037      351.925       34.187      858.920
06/07/2013  17:51:00     -104.774      172.692      -20.827       51.576      135.185       39.126     2660.090    18274.946     1530.811        3.185        1.123      201.990       41.707        0.043      351.747       33.882      858.914
06/07/2013  17:52:00     -156.572      -46.567      -11.534      117.220      111.585       39.975    13740.413    12451.187     1597.994        2.730        1.389      163.350       41.292        0.064      352.017       34.353      858.904
06/07/2013  17:53:00     -162.880      -20.682       -5.132       97.332       91.605       43.189     9473.538     8391.491     1865.319        2.335        0.987      164.188       38.156        0.054      352.045       34.402      858.899
06/07/2013  17:54:00      -89.990       68.062      -28.317       79.859       77.600       55.325     6377.396     6021.711     3060.813        1.449        0.773      112.830       27.729        0.060      352.158       34.602      858.899
06/07/2013  17:55:00     -141.485      -32.916      -23.805       72.009       53.554       44.694     5185.292     2868.078     1997.522        1.586        0.503      145.263       25.611        0.031      352.179       34.637      858.896
06/07/2013  17:56:00     -190.660       49.700      -25.955       94.545       95.423       57.063     8938.671     9105.487     3256.202        3.039        1.065      197.031       56.477        0.082      352.089       34.476      858.914
06/07/2013  17:57:00     -219.289        5.669      -18.516      109.671       87.849       52.383    12027.796     7717.529     2743.986        3.547        1.124      219.362       47.284        0.046      351.959       34.250      858.915
06/07/2013  17:58:00     -149.577        8.003      -20.446       75.787       90.142       50.325     5743.678     8125.511     2532.586        1.963        0.820      149.791       35.326        0.056      352.098       34.494      858.889
06/07/2013  17:59:00     -155.497       53.428       -8.771      119.350       70.796       47.249    14244.509     5012.042     2232.425        2.430        1.074      164.419       46.912        0.081      352.207       34.685      858.879
06/07/2013  18:00:00     -168.754      -49.814      -15.383      100.011      108.029       52.069    10002.163    11670.252     2711.198        2.778        1.219      175.953       29.377        0.028      352.104       34.502      858.870
06/07/2013  18:01:00     -425.856       26.890      -41.113      282.785      144.759       83.406    79967.187    20955.200     6956.570       14.580        5.394      426.704      113.710        0.071      351.926       34.193      858.848
06/07/2013  18:02:00     -397.594      -74.871      -40.791      255.032      149.904       87.787    65041.318    22471.238     7706.567       13.027        4.761      404.583      114.333        0.080      351.861       34.079      858.844
06/07/2013  18:03:00     -227.233     -101.970        2.094      150.445      109.706       68.130    22633.830    12035.484     4641.717        5.067        1.966      249.064       71.752        0.083      351.900       34.145      858.839
06/07/2013  18:04:00     -403.004      -78.656      -20.141      145.508      113.528       68.473    21172.560    12888.619     4688.564       10.387        1.937      410.608       65.003        0.025      351.931       34.200      858.850
06/07/2013  18:05:00     -307.098     -104.081       -7.301      207.387      129.724       81.006    43009.319    16828.411     6561.920        8.578        3.320      324.257       93.325        0.083      351.906       34.156      858.861
06/07/2013  18:06:00     -385.261      -40.983      -23.663       84.946       70.408       49.726     7215.782     4957.273     2472.716        8.265        0.732      387.435       40.817        0.011      351.784       33.944      858.877
06/07/2013  18:07:00     -299.056       -7.148      -21.403      161.332      100.112       64.208    26027.900    10022.410     4122.708        6.505        2.009      299.142       78.617        0.069      351.939       34.214      858.876
06/07/2013  18:08:00     -220.859       58.854      -20.928      111.645       89.058       49.143    12464.701     7931.290     2415.027        3.774        1.141      228.567       40.631        0.032      351.950       34.234      858.892
06/07/2013  18:09:00     -350.889      -12.142      -31.078      112.444      114.832       47.194    12643.696    13186.444     2227.312        7.614        1.403      351.099       38.947        0.012      351.822       34.009      858.898
06/07/2013  18:10:00     -195.433       28.824       -3.208      106.145       66.475       50.597    11266.751     4418.871     2560.033        2.864        0.912      197.547       55.896        0.080      351.972       34.274      858.891
06/07/2013  18:11:00     -183.724       45.265      -38.205       66.476       83.691       40.662     4419.061     7004.228     1653.359        2.517        0.654      189.218       29.743        0.025      351.874       34.101      858.869
06/07/2013  18:12:00     -352.200       27.697      -27.853      117.948       81.834       46.808    13911.730     6696.741     2191.035        7.419        1.140      353.287       44.127        0.016      351.942       34.217      858.865
06/07/2013  18:13:00     -211.475      -29.892      -11.064       82.853       70.360       43.938     6864.550     4950.476     1930.522        2.974        0.687      213.577       45.890        0.046      351.997       34.316      858.865
06/07/2013  18:14:00     -177.867      -30.735       -0.100       78.217       84.529       41.318     6117.923     7145.188     1707.183        2.377        0.749      180.503       38.867        0.046      352.036       34.385      858.852
06/07/2013  18:15:00     -188.819       17.044      -16.129       81.620      132.237       49.481     6661.886    17486.511     2448.403        3.139        1.330      189.587       33.714        0.032      351.955       34.243      858.838
06/07/2013  18:16:00     -431.317      -26.172      -33.533      141.648      115.713       68.947    20064.157    13389.411     4753.745       11.302        1.910      432.110       76.689        0.031      351.878       34.109      858.853
06/07/2013  18:17:00     -320.656     -135.103      -22.734      166.614      181.183       87.986    27760.258    32827.188     7741.589        9.495        3.416      347.956       84.967        0.060      351.875       34.101      858.834
06/07/2013  18:18:00     -211.260     -144.798       24.671      176.480      146.279       98.566    31145.017    21397.676     9715.303        6.422        3.113      256.120      102.216        0.159      351.832       34.029      858.840
06/07/2013  18:19:00     -308.383        2.841      -25.094      147.177      135.978       59.182    21661.033    18490.029     3502.536        6.969        2.183      308.396       59.434        0.037      351.928       34.195      858.877
06/07/2013  18:20:00      -92.956        0.681       18.935       86.720       71.804       40.975     7520.433     5155.826     1678.955        1.167        0.718       92.958       39.846        0.184      351.882       34.118      858.883
06/07/2013  18:21:00     -140.171       14.974      -13.713       47.600       46.356       29.768     2265.797     2148.887      886.150        1.268        0.265      140.968       22.524        0.026      351.992       34.311      858.867
06/07/2013  18:22:00     -143.870      -29.718      -20.441       55.448       73.818       35.154     3074.526     5449.089     1235.808        1.588        0.488      146.907       29.550        0.040      351.952       34.241      858.858
06/07/2013  18:23:00     -260.313      -89.731        3.907      133.282      108.325       67.205    17764.097    11734.297     4516.451        5.492        1.701      275.344       75.963        0.076      351.848       34.055      858.846
06/07/2013  18:24:00     -251.504      -35.572      -35.220       80.648       85.943       41.301     6504.058     7386.192     1705.805        4.067        0.780      254.007       22.762        0.008      351.895       34.138      858.863
06/07/2013  18:25:00     -273.124      -23.522      -15.628       96.778       76.451       54.216     9365.901     5844.744     2939.417        4.677        0.908      274.135       42.232        0.024      351.888       34.126      858.868
06/07/2013  18:26:00     -191.086      -88.252       -5.703      188.427      106.494       50.124    35504.777    11341.047     2512.379        4.684        2.468      210.481       70.163        0.111      351.808       33.987      858.867
06/07/2013  18:27:00     -282.506      -73.976        0.341      110.946      111.009       60.468    12309.091    12323.046     3656.398        5.678        1.414      292.031       56.038        0.037      351.859       34.074      858.860
06/07/2013  18:28:00     -281.736       -1.477      -25.286      157.372      108.991       52.140    24766.070    11879.068     2718.594        5.968        1.968      281.740       51.015        0.033      351.795       33.964      858.893
06/07/2013  18:29:00     -211.269      -24.486      -19.467      103.633       62.988       44.042    10739.795     3967.550     1939.708        3.113        0.832      212.684       53.448        0.063      351.821       34.009      858.908
06/07/2013  18:30:00      -93.386       -4.400       -6.045       55.747       74.818       34.103     3107.761     5597.753     1163.039        0.932        0.493       93.489       27.931        0.089      352.025       34.368      858.905
06/07/2013  18:31:00     -183.163      -52.663      -16.440      118.900       43.896       40.157    14137.202     1926.896     1612.572        2.713        0.884      190.583       51.500        0.073      351.831       34.029      858.900
06/07/2013  18:32:00     -144.268       19.171       -9.673       84.979       86.382       44.937     7221.426     7461.787     2019.319        1.899        0.835      145.536       42.729        0.086      351.726       33.845      858.897
06/07/2013  18:33:00     -148.863       22.052       -1.851       80.735       92.604       48.013     6518.120     8575.443     2305.258        2.002        0.870      150.487       45.758        0.092      351.853       34.067      858.892
06/07/2013  18:34:00     -143.787        6.655       -1.908       85.316       90.937       42.031     7278.850     8269.598     1766.606        1.902        0.866      143.941       29.673        0.042      351.845       34.053      858.898
06/07/2013  18:35:00     -185.728      -54.495      -13.162      160.693       61.971       49.271    25822.230     3840.432     2427.602        3.486        1.605      193.558       57.095        0.087      351.818       34.006      858.923
06/07/2013  18:36:00     -295.929     -101.329      -14.303       94.104       81.041       51.357     8855.622     6567.621     2637.529        5.805        0.903      312.796       36.889        0.014      351.667       33.741      858.924
06/07/2013  18:37:00     -223.952      -55.342      -20.799      101.508       99.529       52.536    10303.930     9905.961     2760.076        3.831        1.148      230.688       55.697        0.058      351.666       33.740      858.930
06/07/2013  18:38:00     -196.544      -41.383       -2.320      144.376       71.348       64.385    20844.313     5090.583     4145.452        3.521        1.504      200.854       71.971        0.128      351.739       33.867      858.921
06/07/2013  18:39:00     -206.408      -57.271      -17.140       93.556       91.053       64.402     8752.726     8290.607     4147.671        3.368        1.060      214.206       44.906        0.044      351.692       33.784      858.928
06/07/2013  18:40:00     -198.743       37.749      -10.471       93.858      117.553       58.512     8809.294    13818.620     3423.706        3.354        1.303      202.296       25.734        0.016      351.657       33.724      858.937
06/07/2013  18:41:00     -166.281      -33.435      -11.947       89.535       86.183       45.721     8016.546     7427.574     2090.385        2.322        0.877      169.609       40.530        0.057      351.637       33.690      858.941
06/07/2013  18:42:00     -145.434      -67.999        6.251       80.413       75.062       30.575     6466.306     5634.351      934.835        1.942        0.652      160.545       27.843        0.030      351.633       33.683      858.929
06/07/2013  18:43:00     -100.001       -0.662        0.579       69.988       88.134       42.468     4898.279     7767.578     1803.527        1.223        0.723      100.003       29.574        0.087      351.764       33.913      858.925
06/07/2013  18:44:00     -271.792      -68.755        1.334      130.398       98.129       55.778    17003.598     9629.301     3111.237        5.417        1.487      280.354       48.954        0.030      351.604       33.634      858.905
06/07/2013  18:45:00     -217.808      -41.530      -22.379       55.455       59.055       40.696     3075.283     3487.509     1656.183        2.894        0.411      221.732       30.448        0.019      351.636       33.688      858.903
06/07/2013  18:46:00     -150.303      -64.869       -1.727       79.407       63.350       40.251     6305.506     4013.238     1620.179        1.937        0.597      163.704       32.113        0.038      351.726       33.846      858.893
06/07/2013  18:47:00     -212.673     -124.487       -8.512      120.404       66.831       45.098    14497.222     4466.412     2033.818        4.089        1.050      246.428       48.498        0.039      351.607       33.637      858.894
06/07/2013  18:48:00     -207.027      -46.534        4.627      127.040       67.226       50.841    16139.185     4519.381     2584.786        3.414        1.162      212.192       67.410        0.101      351.627       33.672      858.883
06/07/2013  18:49:00     -362.846     -109.996       -8.567      147.341      124.543       64.157    21709.428    15510.841     4116.059        9.257        2.067      379.152       66.617        0.031      351.648       33.707      858.884
06/07/2013  18:50:00     -296.138      -64.768       -0.341      175.498      163.074       91.926    30799.486    26593.026     8450.334        7.885        3.292      303.138       99.307        0.107      351.590       33.608      858.851
06/07/2013  18:51:00     -215.813       32.138      -17.589      168.749       88.723       53.118    28476.362     7871.844     2821.551        4.354        1.958      218.193       56.277        0.067      351.670       33.746      858.898
06/07/2013  18:52:00      -88.415       17.667       -7.916       71.357       68.387       61.710     5091.770     4676.829     3808.124        1.088        0.679       90.163       54.380        0.364      351.692       33.789      858.899
06/07/2013  18:53:00     -164.762       42.898      -18.173      164.663       71.809       53.034    27113.861     5156.470     2812.593        3.219        1.754      170.255       70.753        0.173      351.562       33.559      858.906
06/07/2013  18:54:00     -241.566      -54.359      -16.570      142.249      120.531       52.339    20234.682    14527.609     2739.328        4.953        1.875      247.606       55.392        0.050      351.553       33.543      858.912
06/07/2013  18:55:00     -317.068     -105.331       -8.973      117.444      102.084       62.340    13793.129    10421.226     3886.277        6.990        1.405      334.106       53.114        0.025      351.533       33.508      858.916
06/07/2013  18:56:00     -257.661      -29.364      -33.409       75.992       89.316       41.512     5774.758     7977.419     1723.245        4.192        0.774      259.329       18.534        0.005      351.546       33.531      858.929
06/07/2013  18:57:00     -146.508      -40.600      -10.902      111.547       73.724       49.475    12442.790     5435.186     2447.750        2.177        1.016      152.030       45.921        0.091      351.612       33.645      858.927
06/07/2013  18:58:00     -192.630       44.082      -16.053       70.154      108.178       51.107     4921.536    11702.506     2611.929        2.927        0.962      197.609       43.180        0.048      351.452       33.365      858.939
06/07/2013  18:59:00     -294.826       95.853      -46.765      126.404      131.871       66.784    15977.865    17389.880     4460.161        6.806        1.891      310.017       61.467        0.039      351.410       33.293      858.945
06/07/2013  19:00:00     -138.828      -17.245        7.579      123.818       84.535       61.260    15330.950     7146.135     3752.789        2.292        1.311      139.895       69.211        0.245      351.442       33.350      858.936
06/07/2013  19:01:00     -296.617      -56.532      -18.642      112.684       75.521       52.035    12697.772     5703.440     2707.591        5.631        1.055      301.956       56.573        0.035      351.472       33.403      858.953
06/07/2013  19:02:00     -356.565     -104.350       -8.113      187.645      131.406       80.992    35210.633    17267.468     6559.746        9.855        2.952      371.520       81.972        0.049      351.516       33.478      858.947
06/07/2013  19:03:00     -343.562      -86.588      -13.470      118.590      130.243       68.879    14063.522    16963.117     4744.311        8.074        1.789      354.305       45.264        0.016      351.462       33.384      858.958
06/07/2013  19:04:00     -306.104     -101.604      -17.130      131.051       92.698       52.121    17174.454     8592.901     2716.574        6.639        1.424      322.526       42.326        0.017      351.515       33.476      858.963
06/07/2013  19:05:00     -257.020     -116.193        7.602      149.282      108.601       73.719    22284.994    11794.226     5434.525        5.956        1.976      282.064       62.648        0.049      351.447       33.357      858.971
06/07/2013  19:06:00     -333.499      -41.721      -33.205      128.204      139.184       67.898    16436.285    19372.302     4610.088        7.723        2.021      336.098       62.684        0.035      351.428       33.324      858.989
06/07/2013  19:07:00     -285.419      -52.811      -26.077      128.879      166.242       62.619    16609.673    27636.434     3921.164        6.654        2.408      290.264       56.082        0.037      351.402       33.279      858.999
06/07/2013  19:08:00     -350.011      -77.382      -25.243      104.195      108.455       54.906    10856.517    11762.455     3014.639        7.738        1.282      358.463       51.381        0.021      351.348       33.185      859.016
06/07/2013  19:09:00     -350.254      -71.506      -23.560      102.026       76.335       51.635    10409.236     5826.980     2666.204        7.362        0.945      357.479       45.624        0.016      351.326       33.145      859.027
06/07/2013  19:10:00     -195.292      -76.748       -6.336       88.848       86.365       51.169     7893.921     7458.861     2618.271        3.102        0.899      209.831       40.711        0.038      351.361       33.207      859.040
06/07/2013  19:11:00     -281.900      -96.018      -27.437      116.157       85.812       48.104    13492.454     7363.783     2314.032        5.630        1.159      297.804       51.217        0.030      351.331       33.154      859.044
06/07/2013  19:12:00     -268.426      -66.837      -23.919       87.930      107.814       44.450     7731.611    11623.915     1975.842        4.921        1.067      276.622       32.556        0.014      351.353       33.192      859.048
06/07/2013  19:13:00     -202.697      -52.748       -9.832       91.264       85.482       50.022     8329.144     7307.107     2502.183        3.105        0.907      209.448       49.534        0.056      351.419       33.307      859.065
06/07/2013  19:14:00     -275.447      -36.711      -25.409       95.693      125.749       57.045     9157.069    15812.906     3254.182        5.304        1.411      277.882       42.702        0.024      351.378       33.237      859.099
06/07/2013  19:15:00     -338.511     -119.020      -33.681      167.010       94.540       61.540    27892.366     8937.760     3787.132        8.525        2.031      358.825       62.964        0.031      351.363       33.212      859.069
06/07/2013  19:16:00     -238.311      -64.574        4.608      127.004       76.047       54.723    16129.986     5783.219     2994.567        4.294        1.245      246.905       62.255        0.064      351.365       33.213      859.089
06/07/2013  19:17:00     -235.011      -77.262      -19.236       73.341       71.166       48.369     5378.903     5064.549     2339.516        3.717        0.639      247.386       19.939        0.006      351.307       33.112      859.100
06/07/2013  19:18:00     -125.970        4.662      -21.656       77.385       98.833       37.135     5988.368     9767.986     1378.995        1.674        0.857      126.056       29.072        0.053      351.346       33.182      859.103
06/07/2013  19:19:00     -235.309        9.016      -28.797      110.503      109.155       42.513    12210.877    11914.732     1807.322        4.110        1.297      235.482       46.723        0.039      351.258       33.027      859.104
06/07/2013  19:20:00     -235.250       -6.311      -25.761      132.060      130.947       54.724    17439.970    17147.208     2994.738        4.681        1.879      235.334       49.281        0.044      351.211       32.946      859.119
06/07/2013  19:21:00     -147.036       -6.681       -1.020      102.362       77.421       55.508    10478.054     5994.058     3081.084        2.061        0.978      147.188       48.209        0.107      351.248       33.012      859.116
06/07/2013  19:22:00     -240.006      -35.435      -15.677       97.408       95.409       67.336     9488.407     9102.896     4534.120        4.111        1.156      242.608       27.145        0.013      351.206       32.935      859.117
06/07/2013  19:23:00     -108.654      -14.911      -15.047       69.877       65.361       53.610     4882.735     4272.039     2874.001        1.214        0.601      109.672       39.836        0.132      351.268       33.047      859.126
06/07/2013  19:24:00     -210.529      -64.218       -3.984      107.966       94.076       62.304    11656.661     8850.228     3881.743        3.642        1.219      220.106       55.338        0.063      351.182       32.895      859.132
06/07/2013  19:25:00     -241.959      -70.250       -9.373       83.086       69.594       56.029     6903.273     4843.301     3139.201        3.922        0.744      251.951       42.241        0.028      351.132       32.807      859.143
06/07/2013  19:26:00     -128.576      -29.528       -9.270      123.144       75.149       52.847    15164.347     5647.417     2792.772        2.054        1.180      131.923       48.690        0.136      351.160       32.857      859.149
06/07/2013  19:27:00     -221.221      -73.001      -16.985      116.544       94.372       65.207    13582.561     8905.985     4251.957        4.064        1.337      232.955       70.693        0.092      351.085       32.724      859.161
06/07/2013  19:28:00     -205.953      -77.237      -24.019       73.777       66.996       39.104     5443.074     4488.450     1529.084        3.021        0.573      219.960       32.578        0.022      351.042       32.651      859.161
06/07/2013  19:29:00     -181.844      -74.726      -10.718       92.727       89.907       53.718     8598.292     8083.242     2885.572        2.916        0.978      196.599       45.871        0.054      350.995       32.569      859.162
06/07/2013  19:30:00     -162.054       -9.797       -8.597      119.316       71.929       47.289    14236.415     5173.739     2236.244        2.403        1.082      162.350       48.743        0.090      350.991       32.563      859.158
06/07/2013  19:31:00     -242.933      -81.123      -21.754      119.702       94.972       51.686    14328.497     9019.628     2671.408        4.604        1.301      256.120       45.285        0.031      350.974       32.533      859.160
06/07/2013  19:32:00     -281.238      -60.527      -26.123      109.916      102.713       52.277    12081.596    10549.963     2732.872        5.440        1.268      287.677       42.956        0.022      350.936       32.467      859.180
06/07/2013  19:33:00     -255.633      -13.414      -14.292      107.822       75.074       51.828    11625.634     5636.057     2686.140        4.284        0.997      255.985       48.056        0.035      350.931       32.458      859.189
06/07/2013  19:34:00     -246.965      -24.421      -15.174      103.792       69.342       55.151    10772.763     4808.296     3041.668        4.022        0.931      248.169       51.907        0.044      350.904       32.412      859.182
06/07/2013  19:35:00     -318.356      -51.740      -30.910      113.332      106.574       57.887    12844.175    11357.992     3350.906        6.626        1.378      322.533       39.297        0.015      350.921       32.441      859.179
06/07/2013  19:36:00     -323.840      -33.732      -27.703       99.781       91.318       49.989     9956.247     8338.897     2498.936        6.378        1.040      325.592       46.263        0.020      350.888       32.383      859.182
06/07/2013  19:37:00     -260.125      -78.090       -2.628      110.852      100.296       56.890    12288.176    10059.267     3236.502        4.967        1.279      271.593       61.487        0.051      350.896       32.397      859.189
06/07/2013  19:38:00     -293.518      -24.679      -31.511       91.251       69.981       43.491     8326.798     4897.350     1891.454        5.143        0.756      294.554       40.070        0.019      350.853       32.323      859.192
06/07/2013  19:39:00     -290.576      -33.844      -27.794      102.044       89.037       49.981    10412.947     7927.671     2498.095        5.359        1.042      292.540       50.393        0.030      350.883       32.374      859.192
06/07/2013  19:40:00     -230.895      -95.742      -21.150       68.038       70.177       46.965     4629.147     4924.819     2205.723        3.734        0.588      249.958       30.558        0.015      350.812       32.251      859.189
06/07/2013  19:41:00     -197.077      -24.751      -16.001       92.773       75.837       51.971     8606.884     5751.222     2701.021        2.838        0.853      198.625       50.111        0.064      350.851       32.319      859.189
06/07/2013  19:42:00     -310.292      -15.803      -31.218       72.100       91.852       47.669     5198.445     8436.804     2272.303        5.670        0.795      310.694       37.289        0.014      350.792       32.215      859.197
06/07/2013  19:43:00     -288.468      -64.066      -14.108      107.223       93.622       58.829    11496.722     8765.020     3460.855        5.562        1.186      295.496       49.978        0.029      350.782       32.197      859.206
06/07/2013  19:44:00     -222.161      -31.681       -4.259       82.024       58.759       39.913     6727.945     3452.567     1593.022        3.107        0.589      224.408       38.792        0.030      350.763       32.164      859.206
06/07/2013  19:45:00     -249.667      -43.010      -22.060       72.159       67.041       41.904     5206.978     4494.446     1755.979        3.806        0.573      253.345       34.255        0.018      350.700       32.055      859.213
06/07/2013  19:46:00     -321.498      -14.379      -34.172       86.643       86.847       43.100     7507.082     7542.445     1857.593        6.082        0.845      321.819       23.603        0.005      350.663       31.990      859.215
06/07/2013  19:47:00     -292.680       12.377      -21.026      122.351       84.968       54.308    14969.684     7219.494     2949.375        5.569        1.257      292.942       55.333        0.036      350.614       31.904      859.226
06/07/2013  19:48:00     -255.745      -65.852      -25.711       64.800       77.037       42.303     4199.029     5934.750     1789.528        4.116        0.596      264.087       31.377        0.014      350.626       31.926      859.228
06/07/2013  19:49:00     -230.240      -80.898       -9.210       96.378       75.703       47.085     9288.664     5730.985     2217.020        3.843        0.862      244.039       43.918        0.032      350.573       31.834      859.223
06/07/2013  19:50:00     -197.933      -24.726      -11.160      105.234       73.842       57.683    11074.095     5452.699     3327.370        2.988        0.993      199.471       43.793        0.048      350.525       31.751      859.240
06/07/2013  19:51:00     -233.518      -48.236      -15.554       93.128       77.554       46.690     8672.756     6014.621     2179.968        3.698        0.843      238.448       48.662        0.042      350.528       31.753      859.253
06/07/2013  19:52:00     -261.744      -60.059      -23.508       53.587       49.861       34.933     2871.545     2486.157     1220.321        3.962        0.329      268.546       22.663        0.007      350.501       31.705      859.254
06/07/2013  19:53:00     -175.529      -54.416       -7.908       86.238       57.974       37.340     7436.922     3361.033     1394.272        2.301        0.610      183.771       20.860        0.013      350.484       31.681      859.253
06/07/2013  19:54:00     -207.257      -74.829       -8.137      102.190       98.544       53.936    10442.746     9710.945     2909.122        3.584        1.153      220.351       59.429        0.073      350.489       31.687      859.259
06/07/2013  19:55:00     -312.005      -46.418      -17.819      126.727       76.440       52.986    16059.704     5843.034     2807.528        6.226        1.236      315.439       57.537        0.033      350.445       31.612      859.270
06/07/2013  19:56:00     -273.599      -60.744      -15.953      126.231       66.237       50.419    15934.387     4387.307     2542.081        5.083        1.143      280.261       60.573        0.047      350.438       31.600      859.270
06/07/2013  19:57:00     -217.637      -63.371       -7.209       69.731       79.814       40.206     4862.371     6370.319     1616.520        3.214        0.642      226.676       34.939        0.024      350.424       31.576      859.286
06/07/2013  19:58:00     -258.296      -20.217      -26.059       84.849       78.452       45.852     7199.268     6154.653     2102.445        4.163        0.773      259.086       37.414        0.021      350.408       31.548      859.302
06/07/2013  19:59:00     -211.901      -22.992      -16.797       74.411       52.172       32.244     5537.023     2721.960     1039.670        2.750        0.465      213.144       25.453        0.014      350.389       31.515      859.307
06/07/2013  20:00:00     -248.062      -16.779      -23.702      113.537       80.584       45.986    12890.547     6493.735     2114.730        4.193        1.075      248.629       42.048        0.029      350.361       31.467      859.313
06/07/2013  20:01:00     -278.836      -69.191      -18.460       94.623       66.651       47.781     8953.492     4442.322     2282.999        4.928        0.784      287.293       51.909        0.033      350.364       31.472      859.331
06/07/2013  20:02:00     -271.384      -43.195      -13.937      110.359       78.592       45.702    12179.080     6176.743     2088.662        4.807        1.022      274.800       43.879        0.025      350.386       31.510      859.331
06/07/2013  20:03:00     -297.132      -34.206      -16.498      100.676       81.298       47.546    10135.710     6609.409     2260.600        5.436        0.950      299.095       52.341        0.031      350.366       31.475      859.325
06/07/2013  20:04:00     -197.202      -66.569       -6.379       91.122       77.095       45.847     8303.155     5943.584     2101.991        2.985        0.817      208.134       40.641        0.038      350.314       31.383      859.332
06/07/2013  20:05:00     -266.906      -20.530      -21.042      102.544       71.076       48.046    10515.370     5051.754     2308.463        4.499        0.894      267.695       52.644        0.039      350.335       31.423      859.330
06/07/2013  20:06:00     -123.664      -19.196        3.822       86.033       79.466       41.106     7401.739     6314.806     1689.676        1.554        0.770      125.145       44.160        0.125      350.277       31.323      859.328
06/07/2013  20:07:00     -210.717      -69.340       -3.075       87.312       67.932       41.477     7623.434     4614.808     1720.368        3.159        0.698      221.832       18.695        0.007      350.312       31.380      859.336
06/07/2013  20:08:00     -185.642      -36.503        0.758       89.178       67.849       42.896     7952.699     4603.453     1840.109        2.509        0.720      189.196       48.632        0.066      350.277       31.320      859.336
06/07/2013  20:09:00     -168.510      -19.219       -0.224      101.533       75.516       51.258    10308.908     5702.695     2627.371        2.370        0.932      169.603       59.642        0.124      350.226       31.232      859.338
06/07/2013  20:10:00     -212.887      -53.565       -5.376       99.805       68.491       47.573     9960.965     4691.008     2263.147        3.256        0.846      219.522       47.084        0.046      350.193       31.173      859.338
06/07/2013  20:11:00     -137.608      -10.455       -1.669       92.839       70.269       46.656     8619.030     4937.712     2176.817        1.739        0.787      138.005       51.310        0.138      350.164       31.124      859.335
06/07/2013  20:12:00      -91.846      -59.158       -0.519       59.992       63.437       31.974     3599.053     4024.257     1022.346        1.029        0.432      109.249       18.258        0.028      350.178       31.149      859.347
06/07/2013  20:13:00     -200.848      -79.707       -3.142       64.239       55.458       35.545     4126.650     3075.562     1263.471        2.758        0.423      216.086       35.316        0.027      350.120       31.047      859.347
06/07/2013  20:14:00     -162.443      -86.056       -3.861       34.674       36.799       24.522     1202.295     1354.192      601.325        1.848        0.158      183.830       18.863        0.011      350.095       31.007      859.351
06/07/2013  20:15:00     -136.688      -51.575        0.851       62.480       58.295       28.642     3903.768     3398.328      820.386        1.473        0.406      146.094       29.831        0.042      349.988       30.821      859.365
06/07/2013  20:16:00     -163.064      -54.137       -9.436       81.776       50.996       36.675     6687.333     2600.573     1345.043        2.012        0.532      171.816       42.177        0.060      350.079       30.976      859.377
06/07/2013  20:17:00     -168.714      -54.749       -1.736       67.863       47.784       29.451     4605.383     2283.355      867.339        1.961        0.388      177.375       30.640        0.030      350.008       30.853      859.386
06/07/2013  20:18:00     -158.044      -39.953        3.020       71.317       59.363       33.109     5086.050     3523.995     1096.176        1.814        0.485      163.016       38.307        0.055      349.975       30.797      859.404
06/07/2013  20:19:00     -203.202      -86.645       -1.802       68.403       63.565       44.066     4678.994     4040.571     1941.827        2.973        0.533      220.904       44.290        0.040      349.951       30.753      859.409
06/07/2013  20:20:00     -168.697      -66.780       -1.676       62.090       68.147       34.177     3855.148     4643.993     1168.040        2.129        0.483      181.434       33.929        0.035      349.926       30.712      859.420
06/07/2013  20:21:00     -143.503      -60.147       -1.484       78.173       52.299       34.366     6111.016     2735.233     1181.018        1.712        0.501      155.598       41.368        0.071      349.865       30.606      859.430
06/07/2013  20:22:00     -176.174      -62.853       -9.731       90.577       65.509       35.389     8204.231     4291.477     1252.386        2.441        0.687      187.050       39.746        0.045      349.892       30.651      859.431
06/07/2013  20:23:00     -232.467     -104.009       -6.399       74.297       74.126       40.580     5520.056     5494.714     1646.741        3.878        0.633      254.674       36.000        0.020      349.883       30.634      859.448
06/07/2013  20:24:00     -143.770      -53.711        2.568       82.682       61.475       34.453     6836.376     3779.224     1187.000        1.768        0.590      153.476       34.400        0.050      349.802       30.496      859.456
06/07/2013  20:25:00     -161.167      -44.531        0.286       63.828       49.908       34.930     4073.985     2490.834     1220.077        1.787        0.389      167.205       33.950        0.041      349.823       30.531      859.446
06/07/2013  20:26:00     -208.251      -92.758       -2.540       83.806       78.026       40.646     7023.521     6087.982     1652.128        3.337        0.738      227.975       45.134        0.039      349.817       30.519      859.467
06/07/2013  20:27:00     -137.740      -58.294        7.933       75.133       59.893       45.454     5644.952     3587.137     2066.095        1.686        0.565      149.568       44.216        0.087      349.767       30.435      859.470
06/07/2013  20:28:00     -194.673      -64.254      -14.443       72.573       65.186       38.162     5266.877     4249.168     1456.358        2.660        0.549      205.003       36.871        0.032      349.792       30.477      859.471
06/07/2013  20:29:00     -170.806     -104.856       -0.851       79.935       57.119       43.943     6389.631     3262.552     1930.966        2.587        0.579      200.423       34.766        0.030      349.764       30.427      859.488
06/07/2013  20:30:00     -194.076      -90.116       -1.711       73.297       66.150       42.210     5372.519     4375.864     1781.677        2.866        0.577      213.977       40.182        0.035      349.776       30.448      859.480
06/07/2013  20:31:00     -209.282      -73.589       -1.500       73.168       53.066       42.304     5353.531     2816.006     1789.617        2.959        0.498      221.843       39.640        0.032      349.759       30.418      859.491
06/07/2013  20:32:00     -178.187      -78.748       -4.870       63.010       73.588       39.967     3970.318     5415.187     1597.352        2.448        0.549      194.812       32.733        0.028      349.744       30.395      859.499
06/07/2013  20:33:00     -161.940      -44.652       -0.544       88.626       70.504       39.740     7854.596     4970.808     1579.241        2.131        0.720      167.983       37.492        0.050      349.727       30.364      859.507
06/07/2013  20:34:00     -149.658      -44.321       -9.265       47.823       63.611       31.841     2286.999     4046.339     1013.842        1.590        0.367      156.083       29.726        0.036      349.716       30.347      859.519
06/07/2013  20:35:00      -87.895      -36.402        7.035       62.155       51.523       31.561     3863.185     2654.664      996.090        0.831        0.376       95.135       32.267        0.115      349.595       30.140      859.522
06/07/2013  20:36:00     -103.864      -44.675       14.529       92.746       80.349       43.558     8601.796     6455.902     1897.316        1.497        0.848      113.064       52.113        0.212      349.514       29.997      859.534
06/07/2013  20:37:00     -119.783      -82.124        9.215       93.373       88.461       40.508     8718.591     7825.423     1640.898        1.968        0.909      145.232       43.219        0.089      349.526       30.016      859.534
06/07/2013  20:38:00     -164.618     -119.311       -6.429       88.635       62.947       40.927     7856.146     3962.320     1674.980        2.743        0.675      203.309       48.861        0.058      349.546       30.053      859.540
06/07/2013  20:39:00     -186.186     -125.986        1.188       96.146       56.347       52.763     9244.034     3175.011     2783.931        3.287        0.760      224.806       47.312        0.044      349.474       29.926      859.533
06/07/2013  20:40:00     -196.555     -113.837       -2.332       99.453       67.820       51.005     9890.825     4599.588     2601.474        3.434        0.855      227.141       54.142        0.057      349.395       29.789      859.548
06/07/2013  20:41:00     -113.122      -55.247        7.316       89.408       74.899       38.005     7993.750     5609.918     1444.396        1.547        0.752      125.892       35.191        0.078      349.380       29.763      859.552
06/07/2013  20:42:00     -226.411     -128.012      -12.303       54.100       70.048       37.649     2926.816     4906.744     1417.439        3.852        0.463      260.094       26.108        0.010      349.453       29.887      859.563
06/07/2013  20:43:00     -176.560     -126.685       -2.020       97.535       85.694       42.535     9513.047     7343.505     1809.200        3.294        0.933      217.308       43.814        0.041      349.423       29.836      859.569
06/07/2013  20:44:00     -171.315      -38.931        7.461       94.144       61.881       49.005     8863.035     3829.233     2401.522        2.300        0.755      175.683       52.426        0.089      349.315       29.650      859.590
06/07/2013  20:45:00     -250.952      -65.435       -2.941      119.215       73.569       44.397    14212.261     5412.471     1971.094        4.443        1.080      259.343       45.198        0.030      349.374       29.752      859.599
06/07/2013  20:46:00     -211.056      -61.832       -0.789      124.864       82.787       53.191    15591.004     6853.753     2829.299        3.682        1.264      219.927       56.003        0.065      349.332       29.680      859.616
06/07/2013  20:47:00     -145.455      -68.193        5.822      118.401       67.592       54.873    14018.774     4568.718     3011.009        2.372        1.080      160.647       59.862        0.139      349.258       29.552      859.618
06/07/2013  20:48:00     -279.190      -79.532       -5.581      116.608       85.004       54.893    13597.357     7225.661     3013.290        5.407        1.192      290.297       61.178        0.044      349.324       29.664      859.643
06/07/2013  20:49:00     -147.229      -77.540        0.616       85.285       98.406       48.249     7273.583     9683.766     2327.992        2.348        0.964      166.400       42.676        0.066      349.227       29.499      859.645
06/07/2013  20:50:00     -199.204      -58.404       -8.164       92.310       74.896       43.086     8521.141     5609.343     1856.410        2.957        0.799      207.589       46.939        0.051      349.247       29.532      859.660
06/07/2013  20:51:00     -177.241      -61.886        3.507       92.168       88.049       46.962     8494.913     7752.697     2205.435        2.685        0.923      187.735       43.111        0.053      349.196       29.443      859.677
06/07/2013  20:52:00     -221.276      -84.220       -9.314       92.055       84.439       47.764     8474.042     7129.924     2281.421        3.701        0.894      236.761       52.783        0.050      349.250       29.539      859.680
06/07/2013  20:53:00     -239.774     -103.329       -9.764      112.800       86.309       57.922    12723.808     7449.226     3354.980        4.589        1.176      261.091       64.768        0.062      349.222       29.489      859.679
06/07/2013  20:54:00     -153.923      -75.329        0.383      134.334       89.151       59.797    18045.718     7947.849     3575.697        2.946        1.478      171.368       63.695        0.138      349.228       29.501      859.688
06/07/2013  20:55:00     -177.202      -57.226       -1.963       74.668       71.752       38.160     5575.367     5148.333     1456.164        2.343        0.609      186.214       28.962        0.024      349.249       29.538      859.691
06/07/2013  20:56:00     -230.148      -96.278       -3.830      123.828       84.751       40.465    15333.269     7182.750     1637.385        4.320        1.208      249.475       45.439        0.033      349.256       29.548      859.699
06/07/2013  20:57:00     -263.211     -115.080      -10.053       87.090       68.174       50.007     7584.695     4647.760     2500.685        4.868        0.737      287.269       50.580        0.031      349.264       29.561      859.718
06/07/2013  20:58:00     -256.202     -119.455      -13.588       91.095       78.309       37.069     8298.353     6132.270     1374.104        4.795        0.790      282.681       39.522        0.020      349.234       29.510      859.730
06/07/2013  20:59:00     -167.872      -32.997       -1.882       90.974       53.609       41.530     8276.309     2873.932     1724.701        2.107        0.644      171.084       45.947        0.072      349.183       29.421      859.730
06/07/2013  21:00:00     -293.736      -65.990      -10.791      103.628       86.115       54.578    10738.697     7415.835     2978.720        5.594        1.057      301.058       47.950        0.025      349.143       29.351      859.737
06/07/2013  21:01:00     -200.494      -75.476        3.597       94.731       76.209       48.969     8974.019     5807.813     2397.947        3.154        0.859      214.230       52.396        0.060      349.178       29.414      859.740
06/07/2013  21:02:00     -325.228     -105.733      -17.378      121.945       82.743       49.325    14870.466     6846.469     2432.946        7.070        1.207      341.984       53.163        0.024      349.196       29.442      859.739
06/07/2013  21:03:00     -263.132      -79.444       -4.874      127.614       95.779       54.617    16285.452     9173.544     2983.032        5.200        1.422      274.863       61.123        0.049      349.219       29.481      859.742
06/07/2013  21:04:00     -230.747      -52.135       -1.299       94.273       76.349       48.138     8887.362     5829.215     2317.245        3.650        0.852      236.564       39.631        0.028      349.223       29.491      859.742
06/07/2013  21:05:00     -149.772      -36.811        3.101      143.352       89.027       48.376    20549.748     7925.796     2340.241        2.730        1.541      154.229       62.172        0.163      349.163       29.385      859.742
06/07/2013  21:06:00     -234.994      -91.200       -7.257       82.589       77.170       46.797     6820.992     5955.161     2189.998        3.928        0.748      252.071       39.431        0.024      349.204       29.454      859.743
06/07/2013  21:07:00     -280.969      -98.445       -4.753      152.489      132.455       57.340    23252.750    17544.350     3287.921        6.636        2.204      297.716       70.666        0.056      349.254       29.544      859.738
06/07/2013  21:08:00     -227.855      -57.120       -4.444      127.931      106.432       58.631    16366.369    11327.733     3437.581        4.316        1.557      234.906       60.456        0.066      349.217       29.479      859.748
06/07/2013  21:09:00     -256.638     -140.396       -4.962      150.116      117.297       75.201    22534.845    13758.703     5655.129        6.377        2.097      292.530       71.658        0.060      349.292       29.610      859.761
06/07/2013  21:10:00     -244.123      -49.091      -16.705       87.958       94.571       47.541     7736.531     8943.738     2260.137        4.061        0.947      249.010       48.297        0.038      349.301       29.623      859.778
06/07/2013  21:11:00     -203.972      -70.034        7.652       84.618       91.121       51.012     7160.244     8302.993     2602.221        3.231        0.903      215.660       52.710        0.060      349.237       29.515      859.792
06/07/2013  21:12:00     -234.761      -34.931       -7.880      109.201       67.565       48.561    11924.839     4564.991     2358.215        3.762        0.942      237.346       52.738        0.049      349.255       29.547      859.812
06/07/2013  21:13:00     -235.180      -69.676       -3.758       85.988      107.634       55.081     7393.962    11585.110     3033.943        4.109        1.101      245.285       44.036        0.032      349.263       29.558      859.824
06/07/2013  21:14:00     -255.421      -63.608       -7.453      133.219       99.703       63.731    17747.236     9940.647     4061.653        5.054        1.587      263.222       68.163        0.067      349.250       29.536      859.848
06/07/2013  21:15:00     -259.833      -80.877        3.015      118.792       94.815       53.837    14111.525     8989.975     2898.406        5.003        1.300      272.129       55.838        0.042      349.295       29.615      859.863
06/07/2013  21:16:00     -245.564      -44.969       -5.314      100.796       98.700       59.005    10159.818     9741.709     3481.608        4.286        1.169      249.647       51.948        0.043      349.279       29.587      859.877
06/07/2013  21:17:00     -249.073      -54.532       -0.380      144.135       81.334       62.106    20774.978     6615.159     3857.190        4.812        1.562      254.973       74.446        0.085      349.290       29.607      859.894
06/07/2013  21:18:00     -255.473      -68.552       -0.535      144.406       90.668       57.860    20852.997     8220.624     3347.807        5.119        1.621      264.511       68.094        0.066      349.296       29.616      859.905
06/07/2013  21:19:00     -306.239      -58.521       -6.443      141.731      112.086       59.908    20087.603    12563.336     3589.011        6.674        1.812      311.780       66.728        0.046      349.312       29.645      859.907
06/07/2013  21:20:00     -206.832      -77.414       -6.849       94.065       66.183       40.976     8848.197     4380.181     1679.041        3.186        0.745      220.844       38.263        0.030      349.196       29.444      859.917
06/07/2013  21:21:00     -429.450        8.645      -32.417      134.848       95.776       59.221    18184.003     9172.952     3507.153       10.820        1.543      429.537       57.155        0.018      349.326       29.667      859.920
06/07/2013  21:22:00     -185.463      -24.990       -2.475      122.047       98.864       54.241    14895.544     9774.033     2942.085        3.131        1.381      187.139       62.279        0.111      349.206       29.462      859.935
06/07/2013  21:23:00     -318.824      -46.918      -16.943      171.672       77.769       64.199    29471.244     6048.021     4121.566        7.188        1.982      322.257       81.584        0.064      349.297       29.619      859.954
06/07/2013  21:24:00     -198.590      -79.263        2.672      107.354      125.176       62.899    11524.858    15669.103     3956.268        3.843        1.558      213.824       67.352        0.099      349.217       29.480      859.948
06/07/2013  21:25:00     -205.614      -35.099        1.399       94.121       99.931       47.807     8858.724     9986.159     2285.554        3.232        1.057      208.588       44.150        0.045      349.210       29.467      859.953
06/07/2013  21:26:00     -259.864      -32.095       -6.501      121.043       93.574       55.122    14651.497     8756.053     3038.389        4.752        1.322      261.839       64.362        0.060      349.254       29.544      859.958
06/07/2013  21:27:00     -277.849      -69.575       -5.728      134.767       91.382       58.831    18162.272     8350.658     3461.111        5.602        1.499      286.427       65.883        0.053      349.200       29.450      859.956
06/07/2013  21:28:00     -288.662      -25.795       -2.311      110.302       95.011       61.726    12166.533     9027.019     3810.114        5.450        1.250      289.812       62.320        0.046      349.196       29.444      859.983
06/07/2013  21:29:00     -295.954      -73.502      -13.252      120.984       88.439       51.733    14637.155     7821.436     2676.310        5.915        1.257      304.945       51.733        0.029      349.202       29.456      859.976
06/07/2013  21:30:00     -281.674      -98.944        0.263      154.905       94.886       61.510    23995.518     9003.400     3783.459        6.295        1.839      298.547       70.697        0.056      349.189       29.433      859.980
06/07/2013  21:31:00     -342.116      -85.214      -21.420      119.992       89.249       52.674    14397.978     7965.366     2774.507        7.495        1.257      352.569       57.972        0.027      349.187       29.427      859.983
06/07/2013  21:32:00     -323.221      -69.605      -17.620       97.191       75.794       47.736     9446.138     5744.666     2278.712        6.354        0.873      330.630       41.020        0.015      349.181       29.417      859.983
06/07/2013  21:33:00     -291.727      -94.705       -1.949      122.959       99.487       54.523    15118.799     9897.676     2972.777        6.103        1.399      306.714       51.531        0.028      349.164       29.388      859.994
06/07/2013  21:34:00     -389.383      -58.291      -12.975      153.731       86.041       61.977    23633.268     7402.998     3841.105        9.502        1.744      393.722       67.183        0.029      349.217       29.480      860.008
06/07/2013  21:35:00     -407.985      -57.901      -20.947      151.862       93.821       73.268    23062.012     8802.382     5368.240       10.373        1.862      412.073       85.027        0.043      349.241       29.521      860.004
06/07/2013  21:36:00     -259.578     -106.196       -7.283      115.197       90.730       56.459    13270.442     8232.008     3187.589        5.170        1.235      280.461       55.217        0.039      349.133       29.333      860.004
06/07/2013  21:37:00     -327.382     -110.848      -15.745      117.728       91.975       53.644    13859.806     8459.448     2877.726        7.245        1.260      345.639       55.052        0.025      349.159       29.379      859.998
06/07/2013  21:38:00     -188.662      -75.909       -8.836      147.899      112.500       59.840    21874.003    12656.247     3580.872        3.976        1.906      203.361       68.321        0.113      349.052       29.193      859.994
06/07/2013  21:39:00     -276.942      -51.934       -3.352      120.650       96.115       51.073    14556.349     9238.105     2608.473        5.290        1.320      281.769       58.320        0.043      349.092       29.262      860.000
06/07/2013  21:40:00     -220.015      -70.126       -1.622      140.044       77.101       50.874    19612.325     5944.635     2588.198        4.073        1.407      230.920       59.428        0.066      349.053       29.194      859.983
06/07/2013  21:41:00     -251.027      -70.578      -11.153      113.160       81.211       52.235    12805.209     6595.266     2728.483        4.512        1.106      260.760       48.617        0.035      349.041       29.174      859.995
06/07/2013  21:42:00     -206.342      -66.355       -0.426      107.327      102.017       57.982    11519.121    10407.513     3361.922        3.613        1.264      216.749       62.023        0.082      349.000       29.103      860.001
06/07/2013  21:43:00     -221.583      -51.856       -5.099      100.856       85.999       46.438    10171.947     7395.774     2156.533        3.577        0.986      227.570       53.974        0.056      348.953       29.022      860.013
06/07/2013  21:44:00     -264.894      -31.203      -13.516       95.234       79.610       48.223     9069.449     6337.810     2325.433        4.453        0.887      266.726       45.830        0.030      348.971       29.052      860.026
06/07/2013  21:45:00     -174.591      -31.614        0.702       83.018       64.949       36.750     6892.047     4218.378     1350.599        2.197        0.623      177.430       39.787        0.050      348.937       28.996      860.038
06/07/2013  21:46:00     -189.109      -78.992       -4.950       86.841       81.556       45.987     7541.379     6651.456     2114.822        2.916        0.815      204.944       51.652        0.064      348.908       28.944      860.053
06/07/2013  21:47:00     -219.737      -21.943      -14.546       88.680       59.022       47.859     7864.079     3483.587     2290.531        3.130        0.682      220.830       39.198        0.032      348.997       29.101      860.067
06/07/2013  21:48:00     -211.704      -16.739        0.198       71.966       78.061       41.194     5179.165     6093.534     1696.927        2.903        0.648      212.364       39.031        0.034      348.989       29.085      860.097
06/07/2013  21:49:00     -243.062       -2.621      -16.701       86.138       73.468       42.586     7419.738     5397.494     1813.590        3.699        0.732      243.076       39.781        0.027      348.986       29.079      860.121
06/07/2013  21:50:00     -175.696       -4.924       -2.274       84.434       80.428       36.483     7129.184     6468.589     1331.005        2.291        0.746      175.765       39.470        0.050      348.915       28.958      860.154
06/07/2013  21:51:00      -97.016       54.149      -19.387       52.517       48.246       27.041     2758.060     2327.715      731.234        0.927        0.291      111.105       24.985        0.051      348.903       28.938      860.211
06/07/2013  21:52:00      -77.543       81.037        1.938       57.904       77.097       42.651     3352.829     5944.015     1819.112        1.185        0.556      112.160       37.065        0.109      348.863       28.868      860.256
06/07/2013  21:53:00     -216.151       35.903      -21.735      172.272       75.140       55.490    29677.578     5646.063     3079.179        4.344        1.920      219.113       79.949        0.133      348.881       28.900      860.318
06/07/2013  21:54:00     -173.664      182.963      -12.887      114.290      219.244       67.453    13062.214    48067.885     4549.903        6.473        3.284      252.259       79.006        0.098      348.886       28.907      860.356
06/07/2013  21:55:00     -228.326      244.748      -45.744      101.631      116.856       60.000    10328.790    13655.305     3600.039        7.085        1.379      334.715       52.377        0.024      349.026       29.148      860.381
06/07/2013  21:56:00     -119.530      197.464      -28.446       80.021       91.918       49.126     6403.366     8448.919     2413.371        3.567        0.863      230.824       40.995        0.032      349.009       29.119      860.398
06/07/2013  21:57:00      -94.126      122.332      -12.858       99.017       77.159       44.369     9804.411     5953.492     1968.617        2.085        0.886      154.353       44.861        0.084      348.884       28.904      860.430
06/07/2013  21:58:00     -201.584      246.047      -48.639      106.442      141.330       63.011    11329.936    19974.064     3970.383        6.940        1.764      318.081       80.084        0.063      348.844       28.832      860.443
06/07/2013  21:59:00     -152.156      338.619      -42.880      110.710      122.749       70.142    12256.700    15067.360     4919.892        8.594        1.612      371.234       76.038        0.042      348.827       28.803      860.462
06/07/2013  22:00:00     -136.988      231.256      -35.269       93.204       73.718       52.228     8687.021     5434.280     2727.798        4.517        0.842      268.784       42.059        0.024      348.781       28.724      860.479
06/07/2013  22:01:00     -179.682      177.955      -20.222      112.739      110.280       65.118    12710.140    12161.652     4240.415        4.673        1.456      252.890       65.517        0.067      348.720       28.620      860.481
06/07/2013  22:02:00     -184.250       58.284      -13.108      105.554       93.637       48.208    11141.646     8767.807     2324.051        2.987        1.112      193.249       55.299        0.082      348.767       28.702      860.487
06/07/2013  22:03:00     -233.096       59.750      -38.062       87.871      112.430       50.601     7721.360    12640.578     2560.473        4.113        1.146      240.632       41.631        0.030      348.842       28.829      860.463
06/07/2013  22:04:00     -172.790      -40.770      -14.643       67.656       61.782       38.613     4577.324     3816.964     1490.936        2.081        0.494      177.535       39.242        0.049      348.769       28.705      860.460
06/07/2013  22:05:00     -140.195      -57.097       -4.280      114.484       71.749       47.826    13106.536     5147.984     2287.299        2.173        1.027      151.376       47.606        0.099      348.625       28.456      860.456
06/07/2013  22:06:00     -242.829      -18.951      -23.365      105.833       70.824       41.202    11200.700     5015.986     1697.573        3.889        0.896      243.568       40.265        0.027      348.565       28.349      860.465
06/07/2013  22:07:00     -104.180       16.325       -8.339       64.217       63.286       41.885     4123.795     4005.131     1754.389        1.053        0.494      105.451       31.840        0.091      348.452       28.157      860.460
06/07/2013  22:08:00     -161.555        9.806      -21.681       59.370       63.716       44.106     3524.772     4059.692     1945.321        1.810        0.476      161.852       34.717        0.046      348.453       28.159      860.497
06/07/2013  22:09:00      -53.054      -12.916        7.139      101.867       46.188       39.600    10376.987     2133.352     1568.135        0.855        0.704       54.603       46.744        0.733      348.363       28.004      860.490
06/07/2013  22:10:00      -87.692      -27.714       -0.560       96.157       46.121       37.570     9246.191     2127.108     1411.535        1.062        0.639       91.967       49.845        0.294      348.324       27.938      860.467
06/07/2013  22:11:00     -143.564      -34.819       -3.539       60.948       45.107       34.405     3714.638     2034.647     1183.732        1.438        0.347      147.726       25.427        0.030      348.281       27.862      860.474
06/07/2013  22:12:00     -114.765      -36.623        4.021       61.015       56.285       35.669     3722.856     3167.991     1272.288        1.134        0.408      120.467       27.651        0.053      348.264       27.831      860.460
06/07/2013  22:13:00     -195.501      -37.641      -14.053       86.066       53.554       36.611     7407.370     2868.008     1340.338        2.572        0.581      199.092       42.960        0.047      348.279       27.856      860.451
06/07/2013  22:14:00     -167.110      -36.112       -1.225       75.246       67.144       33.159     5661.951     4508.302     1099.510        2.025        0.563      170.967       28.104        0.027      348.296       27.886      860.454
06/07/2013  22:15:00     -162.960       -0.656       -2.267       50.688       51.966       31.205     2569.253     2700.500      973.764        1.640        0.312      162.961       23.159        0.020      348.283       27.866      860.460
06/07/2013  22:16:00     -201.433       -9.781       -9.281       95.418       43.414       36.467     9104.579     1884.792     1329.876        2.654        0.616      201.671       42.757        0.045      348.419       28.100      860.454
06/07/2013  22:17:00     -160.793       -0.841      -13.078       45.903       61.219       31.946     2107.107     3747.768     1020.573        1.645        0.344      160.795       12.337        0.006      348.389       28.048      860.447
06/07/2013  22:18:00     -202.725      -30.759       -9.986       59.689       50.254       46.799     3562.783     2525.510     2190.143        2.521        0.414      205.045       41.563        0.041      348.535       28.300      860.461
06/07/2013  22:19:00     -143.115      -33.917        5.626       89.007       71.224       42.381     7922.241     5072.872     1796.190        1.822        0.740      147.079       45.677        0.096      348.516       28.268      860.456
06/07/2013  22:20:00     -218.502      -29.769      -35.882       80.106       64.114       37.434     6417.016     4110.608     1401.329        3.092        0.596      220.521       36.253        0.027      348.644       28.488      860.457
06/07/2013  22:21:00     -116.286      -16.420      -10.944       91.608       54.056       32.701     8392.097     2922.019     1069.361        1.315        0.619      117.439       34.254        0.085      348.593       28.401      860.461
06/07/2013  22:22:00     -109.945       17.861       -9.839       71.894       98.164       42.403     5168.750     9636.267     1798.011        1.455        0.830      111.387       36.519        0.107      348.674       28.543      860.475
06/07/2013  22:23:00     -170.372       97.782      -36.410       94.915       73.116       45.666     9008.932     5345.963     2085.350        2.817        0.822      196.438       50.443        0.066      348.863       28.867      860.471
06/07/2013  22:24:00     -113.244       40.392      -15.133       66.272       52.658       47.777     4391.943     2772.905     2282.682        1.206        0.472      120.231       42.565        0.125      348.902       28.936      860.481
06/07/2013  22:25:00      -88.213       98.866      -11.982       62.460       70.822       42.621     3901.294     5015.701     1816.586        1.421        0.537      132.499       35.646        0.072      348.888       28.912      860.482
06/07/2013  22:26:00     -126.749       86.427       -1.145       90.445       60.247       53.055     8180.238     3629.711     2814.818        1.908        0.731      153.411       55.583        0.131      349.006       29.116      860.479
06/07/2013  22:27:00     -137.266       82.209      -17.446       81.121       58.766       39.201     6580.539     3453.431     1536.700        1.874        0.579      160.000       42.673        0.071      349.140       29.349      860.487
06/07/2013  22:28:00      -92.481       30.483      -13.139       58.062       67.757       37.643     3371.215     4590.996     1416.974        0.951        0.469       97.375       37.259        0.146      349.121       29.316      860.488
06/07/2013  22:29:00     -166.252      194.506      -37.638       84.803       70.949       48.457     7191.557     5033.733     2348.051        4.073        0.729      255.875       40.598        0.025      349.244       29.527      860.490
06/07/2013  22:30:00     -217.662      231.263      -52.597       94.363      104.470       61.145     8904.391    10914.056     3738.746        6.359        1.178      317.583       57.005        0.032      349.212       29.469      860.505
06/07/2013  22:31:00     -193.230      210.246      -32.061      126.487       93.235       68.947    15998.934     8692.690     4753.733        5.600        1.472      285.554       79.411        0.077      349.283       29.593      860.510
06/07/2013  22:32:00     -171.641      148.387      -27.472      115.198       77.555       54.577    13270.607     6014.842     2978.672        3.724        1.113      226.891       53.212        0.055      349.237       29.513      860.512
06/07/2013  22:33:00     -166.109      207.002      -18.462       88.660      125.336       60.290     7860.617    15709.236     3634.825        4.899        1.360      265.409       56.981        0.046      349.236       29.512      860.526
06/07/2013  22:34:00      -99.851      140.855       -9.190       93.002       84.672       49.568     8649.403     7169.372     2457.012        2.408        0.914      172.656       59.938        0.121      349.135       29.339      860.540
06/07/2013  22:35:00     -122.851      138.167      -25.081       53.979       52.764       30.599     2913.777     2784.007      936.300        2.072        0.332      184.886       26.057        0.020      349.122       29.317      860.544
06/07/2013  22:36:00      -99.003       84.243       -9.208       74.590       49.870       35.590     5563.602     2486.995     1266.627        1.315        0.466      129.994       31.287        0.058      349.135       29.339      860.547
06/07/2013  22:37:00      -14.639       58.264        5.387       30.154       50.829       19.751      909.265     2583.554      390.111        0.376        0.194       60.075       25.401        0.179      348.913       28.956      860.560
06/07/2013  22:38:00      -69.301       66.116      -14.953       22.138       35.373       21.168      490.085     1251.229      448.087        0.579        0.109       95.781       15.346        0.026      348.991       29.092      860.580
06/07/2013  22:39:00      -43.317      101.262      -14.483       41.367       34.167       29.463     1711.243     1167.379      868.091        0.804        0.187      110.138       22.585        0.042      348.984       29.078      860.583
06/07/2013  22:40:00      -25.341       72.753       -4.832       28.559       54.780       27.369      815.596     3000.902      749.083        0.526        0.228       77.040       27.496        0.127      348.904       28.940      860.588
06/07/2013  22:41:00      -32.572       36.494       12.192       34.380       38.518       20.944     1181.972     1483.629      438.634        0.282        0.155       48.915       19.843        0.165      348.917       28.963      860.594
06/07/2013  22:42:00       -3.173      -10.387       -3.156       23.146       21.732       11.529      535.730      472.296      132.919        0.063        0.057       10.860        9.824        0.818      348.957       29.031      860.605
06/07/2013  22:43:00       -9.946      105.489       -5.087       34.588       65.103       30.922     1196.297     4238.438      956.196        0.882        0.320      105.957       26.755        0.064      348.896       28.927      860.608
06/07/2013  22:44:00       22.978       52.829       -1.518       43.400       33.383       29.071     1883.593     1114.424      845.149        0.358        0.192       57.610       28.649        0.247      348.834       28.819      860.631
06/07/2013  22:45:00       61.341       42.059        4.524       37.795       19.117       18.111     1428.455      365.457      327.995        0.384        0.106       74.376       13.689        0.034      348.720       28.621      860.636
06/07/2013  22:46:00      121.914       79.385       14.600       60.041       42.065       38.509     3604.940     1769.493     1482.942        1.412        0.343      145.482       25.894        0.032      348.730       28.637      860.664
06/07/2013  22:47:00       99.437       48.482       18.156       55.087       49.359       30.512     3034.557     2436.302      930.997        0.948        0.320      110.626       30.443        0.076      348.604       28.423      860.699
06/07/2013  22:48:00       60.718       39.103        5.666       50.606       40.055       35.228     2560.960     1604.382     1241.027        0.533        0.270       72.220       16.486        0.052      348.481       28.209      860.710
06/07/2013  22:49:00       45.153       57.905        3.808       31.945       38.774       28.898     1020.465     1503.394      835.066        0.438        0.168       73.429       20.498        0.078      348.456       28.166      860.731
06/07/2013  22:50:00       34.030       53.802        8.822       53.786       40.778       37.957     2892.918     1662.831     1440.710        0.506        0.300       63.661       15.699        0.061      348.471       28.190      860.766
06/07/2013  22:51:00      -28.739       80.004      -12.591       24.626       47.623       27.483      606.451     2267.913      755.317        0.551        0.181       85.009       17.729        0.043      348.425       28.112      860.819
06/07/2013  22:52:00       20.973       31.905       12.396       22.355       20.831       15.081      499.731      433.943      227.446        0.139        0.058       38.181        4.548        0.014      348.266       27.837      860.864
06/07/2013  22:53:00      -37.356       -3.291       -4.823       40.186       35.975       28.950     1614.935     1294.194      838.118        0.259        0.187       37.501       22.365        0.356      348.188       27.703      860.892
06/07/2013  22:54:00      -15.957       21.929       22.889       56.499       35.713       30.575     3192.137     1275.424      934.841        0.333        0.270       27.120       33.229        1.501      348.018       27.407      860.910
06/07/2013  22:55:00      -71.936       50.321      -18.389       42.480       27.651       22.360     1804.533      764.588      499.977        0.556        0.153       87.790       26.845        0.094      348.113       27.573      860.919
06/07/2013  22:56:00      -56.308       52.435      -10.887       38.648       40.086       20.208     1493.702     1606.873      408.369        0.477        0.175       76.942       20.749        0.073      348.109       27.564      860.936
06/07/2013  22:57:00     -149.093      122.780      -31.370       54.395       43.165       26.006     2958.847     1863.207      676.332        2.189        0.275      193.141       16.084        0.007      348.197       27.715      860.955
06/07/2013  22:58:00     -160.427      139.414      -33.248       31.822       56.558       27.191     1012.622     3198.820      739.367        2.561        0.248      212.540       23.143        0.012      348.382       28.034      860.958
06/07/2013  22:59:00     -175.414       73.724      -17.336       78.836       44.108       33.308     6215.140     1945.534     1109.406        2.289        0.464      190.277       33.695        0.031      348.252       27.811      860.961
06/07/2013  23:00:00     -195.210      181.353      -40.984       67.814       79.601       40.438     4598.691     6336.397     1635.241        4.262        0.629      266.451       32.738        0.015      348.278       27.851      860.964
06/07/2013  23:01:00     -203.259      191.055      -47.116       65.990       74.157       41.172     4354.733     5499.247     1695.124        4.579        0.577      278.956       41.741        0.022      348.348       27.973      860.980
06/07/2013  23:02:00     -163.771      147.881      -45.438       51.614       52.435       23.222     2663.954     2749.438      539.265        2.835        0.298      220.657       30.613        0.019      348.376       28.026      860.995
06/07/2013  23:03:00     -136.097      149.390      -39.087       36.865       47.368       25.870     1359.042     2243.720      669.277        2.332        0.214      202.088       14.965        0.005      348.297       27.889      861.000
06/07/2013  23:04:00     -133.259      116.808      -28.047       58.261       37.270       31.260     3394.325     1389.038      977.178        1.897        0.288      177.206       33.041        0.035      348.216       27.748      861.004
06/07/2013  23:05:00      -39.287       88.285      -16.486       38.128       28.674       24.614     1453.772      822.175      605.833        0.625        0.144       96.632       26.709        0.076      348.206       27.733      861.005
06/07/2013  23:06:00      -85.652      160.121      -25.053       69.238       62.976       33.147     4793.915     3966.036     1098.740        2.173        0.493      181.590       33.146        0.033      348.194       27.710      860.991
06/07/2013  23:07:00     -140.429      146.999      -33.482       52.347       42.142       29.088     2740.256     1775.917      846.090        2.391        0.268      203.295       28.063        0.019      348.268       27.839      861.001
06/07/2013  23:08:00     -134.337      136.379      -32.674       56.767       64.956       33.003     3222.479     4219.237     1089.199        2.312        0.427      191.431       28.902        0.023      348.252       27.810      861.017
06/07/2013  23:09:00     -150.157      159.943      -44.457       45.695       72.606       33.734     2088.012     5271.602     1137.981        2.930        0.425      219.383       22.878        0.011      348.208       27.733      861.011
06/07/2013  23:10:00     -126.038      135.987      -13.093       62.010       64.724       40.245     3845.288     4189.229     1619.660        2.210        0.483      185.413       30.994        0.028      348.080       27.514      861.006
06/07/2013  23:11:00      -98.972      160.342      -25.054       42.308       37.121       23.574     1789.998     1377.992      555.750        1.993        0.186      188.428       18.966        0.010      348.134       27.608      861.005
06/07/2013  23:12:00      -18.714      144.978      -15.744       28.882       38.709       15.960      834.183     1498.406      254.722        1.210        0.129      146.181        6.774        0.002      348.060       27.480      861.004
06/07/2013  23:13:00      -39.628      182.354      -22.615       28.080       35.129       18.287      788.498     1234.048      334.415        1.885        0.118      186.610       11.261        0.004      348.082       27.518      861.011
06/07/2013  23:14:00       18.000      145.953      -15.778       30.317       30.295       20.816      919.116      917.783      433.326        1.207        0.114      147.058       14.802        0.010      348.088       27.531      861.018
06/07/2013  23:15:00       10.082      129.424      -17.971       33.181       25.543       15.936     1100.992      652.431      253.962        0.959        0.100      129.816       13.113        0.010      347.970       27.325      861.015
06/07/2013  23:16:00       61.529       79.462       -7.773       49.585       37.949       23.091     2458.721     1440.164      533.172        0.730        0.222      100.499       21.021        0.044      347.799       27.030      861.006
06/07/2013  23:17:00       46.362       50.324        7.211       30.495       25.252       19.624      929.973      637.643      385.105        0.334        0.098       68.425       13.428        0.039      347.660       26.790      860.997
06/07/2013  23:18:00       45.161       95.995       -5.653       39.860       47.766       30.452     1588.797     2281.626      927.295        0.804        0.240      106.088       28.108        0.070      347.680       26.825      861.006
06/07/2013  23:19:00       36.431       85.511       -9.036       43.339       60.751       31.779     1878.258     3690.698     1009.915        0.765        0.329       92.948       31.402        0.114      347.810       27.050      861.008
06/07/2013  23:20:00       26.310       89.287       -8.086       37.314       48.101       24.062     1392.321     2313.690      578.962        0.651        0.214       93.083       22.443        0.058      347.724       26.901      861.028
06/07/2013  23:21:00        6.668       83.430      -13.418       21.933       18.964       11.546      481.073      359.633      133.308        0.408        0.049       83.696        8.663        0.011      347.756       26.955      861.038
06/07/2013  23:22:00        8.630       38.332        3.799       22.982       25.206       15.635      528.179      635.335      244.441        0.148        0.070       39.291       14.606        0.138      347.683       26.831      861.037
06/07/2013  23:23:00       18.304       65.566       -5.572       21.817       35.568       19.770      475.966     1265.062      390.853        0.340        0.107       68.073       20.856        0.094      347.736       26.922      861.047
06/07/2013  23:24:00        7.519       77.319       -7.110       32.392       37.498       23.504     1049.222     1406.126      552.427        0.455        0.150       77.684       23.655        0.093      347.738       26.925      861.026
06/07/2013  23:25:00      -18.803      110.813      -13.647       22.167       39.672       19.419      491.369     1573.889      377.080        0.763        0.122      112.397       18.099        0.026      347.834       27.090      861.030
06/07/2013  23:26:00       -3.548       75.753       -7.149       31.591       32.467       20.561      997.985     1054.079      422.747        0.414        0.124       75.836       22.721        0.090      347.830       27.083      861.024
06/07/2013  23:27:00       11.908       76.722       -5.558       20.662       19.908       13.905      426.919      396.333      193.345        0.354        0.051       77.640       12.512        0.026      347.759       26.961      861.011
06/07/2013  23:28:00      -17.603      148.558      -26.602       29.391       39.009       12.642      863.837     1521.678      159.823        1.282        0.127      149.597       10.774        0.005      347.885       27.178      861.022
06/07/2013  23:29:00      -44.259      126.350      -18.415       30.273       38.763       17.657      916.476     1502.541      311.784        1.050        0.137      133.877       13.618        0.010      347.633       26.744      861.048
06/07/2013  23:30:00       -6.258      126.743      -23.205       24.177       23.177        8.341      584.507      537.155       69.569        0.892        0.060      126.897        5.111        0.002      347.768       26.977      861.049
06/07/2013  23:31:00      -34.561       82.656       -6.520       24.373       28.925       13.299      594.037      836.636      176.851        0.484        0.080       89.590       14.066        0.025      347.620       26.722      861.030
06/07/2013  23:32:00       -0.752      166.940      -27.621       22.708       44.313       16.650      515.675     1963.631      277.223        1.569        0.138      166.942       20.527        0.015      347.773       26.985      861.032
06/07/2013  23:33:00      -13.175      186.546      -24.786       25.506       31.872       20.920      650.535     1015.812      437.654        1.885        0.105      187.010       16.779        0.008      347.868       27.147      861.041
06/07/2013  23:34:00      -57.022       79.360      -14.042       32.078       44.504       21.424     1029.002     1980.641      458.999        0.661        0.173       97.722       15.272        0.024      347.640       26.756      861.042
06/07/2013  23:35:00      -64.654       17.312      -12.244       32.452       37.726       17.135     1053.128     1423.244      293.605        0.370        0.138       66.932       15.411        0.053      347.525       26.558      861.057
06/07/2013  23:36:00     -102.517      -26.420       -5.750       24.221       23.818       13.274      586.679      567.307      176.188        0.629        0.067      105.867       10.886        0.011      347.479       26.479      861.050
06/07/2013  23:37:00     -126.190      -39.135       -5.205       32.967       29.886       17.400     1086.835      893.165      302.766        0.988        0.114      132.119       16.796        0.016      347.475       26.472      861.039
06/07/2013  23:38:00      -90.610       -7.702       -7.065       17.018       14.040       10.713      289.626      197.112      114.764        0.446        0.030       90.937        7.645        0.007      347.514       26.537      861.040
06/07/2013  23:39:00     -126.252       22.700      -15.116       29.056       20.710       17.234      844.267      428.920      297.019        0.913        0.079      128.277       13.255        0.011      347.510       26.531      861.049
06/07/2013  23:40:00     -126.422      -29.536      -12.412       44.695       27.807       19.401     1997.610      773.249      376.385        1.008        0.157      129.827       16.175        0.016      347.620       26.721      861.030
06/07/2013  23:41:00      -93.837       14.084       -9.979       28.275       28.972       12.220      799.474      839.374      149.333        0.545        0.089       94.888        9.366        0.010      347.447       26.422      861.028
06/07/2013  23:42:00     -103.180       48.083      -14.554       30.261       30.993       20.828      915.719      960.556      433.808        0.774        0.116      113.833       10.407        0.008      347.475       26.472      861.048
06/07/2013  23:43:00     -130.767       32.007      -16.718       40.339       48.249       23.265     1627.248     2327.978      541.242        1.145        0.225      134.627       21.587        0.026      347.670       26.808      861.044
06/07/2013  23:44:00     -141.042       50.654      -14.456       38.626       36.212       28.943     1491.961     1311.327      837.683        1.315        0.182      149.863       20.223        0.018      347.813       27.055      861.054
06/07/2013  23:45:00     -149.584        7.322      -16.931       37.842       32.341       24.563     1432.024     1045.971      603.323        1.290        0.154      149.763       19.831        0.018      347.735       26.920      861.051
06/07/2013  23:46:00     -135.602        6.898      -10.103       43.698       63.547       24.601     1909.504     4038.205      605.189        1.254        0.328      135.777       20.898        0.024      347.558       26.614      861.045
06/07/2013  23:47:00     -139.677      -34.215       -4.954       49.337       45.789       30.814     2434.168     2096.591      949.519        1.309        0.274      143.806       28.907        0.040      347.365       26.280      861.059
06/07/2013  23:48:00     -166.719       21.169      -21.474       40.358       61.547       25.698     1628.778     3788.008      660.408        1.739        0.304      168.057       19.514        0.013      347.609       26.701      861.057
06/07/2013  23:49:00     -152.418       22.453      -17.774       48.013       44.724       28.977     2305.229     2000.278      839.645        1.460        0.257      154.063       23.250        0.023      347.549       26.598      861.058
06/07/2013  23:50:00     -147.431        0.703      -23.455       52.292       61.296       28.667     2734.470     3757.185      821.784        1.480        0.366      147.433       29.218        0.039      347.520       26.548      861.063
06/07/2013  23:51:00     -171.970       21.448       -9.824       62.997       60.765       37.995     3968.569     3692.416     1443.596        1.962        0.455      173.303       37.873        0.048      347.551       26.600      861.060
06/07/2013  23:52:00     -169.945      -21.039      -17.131       51.310       47.565       31.327     2632.737     2262.443      981.379        1.775        0.294      171.243       23.958        0.020      347.434       26.399      861.053
06/07/2013  23:53:00     -143.741      -54.857       -6.265       46.530       47.044       29.167     2165.075     2213.125      850.717        1.447        0.261      153.853       23.682        0.024      347.398       26.338      861.052
06/07/2013  23:54:00     -176.163      -56.311      -13.794       36.352       38.686       29.920     1321.503     1496.629      895.226        1.905        0.186      184.944       10.744        0.003      347.325       26.212      861.036
06/07/2013  23:55:00     -203.123      -41.017      -20.405       43.830       49.205       29.569     1921.042     2421.158      874.307        2.429        0.261      207.223       22.455        0.012      347.297       26.161      861.030
06/07/2013  23:56:00     -208.443      -61.521      -17.680       41.598       39.939       30.905     1730.416     1595.084      955.145        2.591        0.214      217.332       20.539        0.009      347.220       26.027      861.033
06/07/2013  23:57:00     -200.970      -53.980      -25.401       41.477       47.546       25.652     1720.339     2260.590      658.033        2.429        0.232      208.093       12.592        0.004      347.169       25.941      861.020
06/07/2013  23:58:00     -206.315      -55.669      -17.199       44.209       39.772       29.577     1954.421     1581.813      874.797        2.519        0.221      213.694       23.839        0.012      347.066       25.762      861.016
06/07/2013  23:59:00     -171.400      -63.209      -12.943       52.893       65.722       30.876     2797.617     4319.432      953.340        2.080        0.404      182.684       25.301        0.019      347.035       25.709      861.005
